<?xml version="1.0" encoding="UTF-8" standalone="no" ?>
<gpx xmlns="http://www.topografix.com/GPX/1/1" xmlns:xsi="http://www.w3.org/2001/XMLSchema-instance" xsi:schemaLocation="http://www.topografix.com/GPX/1/1 http://www.topografix.com/GPX/1/1/gpx.xsd" version="1.1" creator="VisuGPX - https://www.visugpx.com">
  <metadata>
    <name>matheysins</name>
  </metadata>
  <trk>
    <name><![CDATA[Skyrace des Matheysins 2019 sur TraceDeTrail.fr]]></name>
    <extensions>
      <line xmlns="http://www.topografix.com/GPX/gpx_style/0/2">
        <color>0000FF</color>
        <width>4</width>
      </line>
    </extensions>
    <trkseg>
      <trkpt lat="44.94108" lon="5.80039">
        <ele>910</ele>
        <time>2000-01-01T02:14:31.000Z</time>
      </trkpt>
      <trkpt lat="44.94108" lon="5.80054">
        <ele>911</ele>
        <time>2000-01-01T02:14:41.000Z</time>
      </trkpt>
      <trkpt lat="44.94106" lon="5.80071">
        <ele>912</ele>
        <time>2000-01-01T02:14:51.000Z</time>
      </trkpt>
      <trkpt lat="44.94106" lon="5.80084">
        <ele>912.2</ele>
        <time>2000-01-01T02:15:01.000Z</time>
      </trkpt>
      <trkpt lat="44.94099" lon="5.80108">
        <ele>914</ele>
        <time>2000-01-01T02:15:11.000Z</time>
      </trkpt>
      <trkpt lat="44.94095" lon="5.80124">
        <ele>914.9</ele>
        <time>2000-01-01T02:15:21.000Z</time>
      </trkpt>
      <trkpt lat="44.94095" lon="5.80137">
        <ele>916</ele>
        <time>2000-01-01T02:15:31.000Z</time>
      </trkpt>
      <trkpt lat="44.94099" lon="5.80168">
        <ele>916</ele>
        <time>2000-01-01T02:15:41.000Z</time>
      </trkpt>
      <trkpt lat="44.94101" lon="5.80198">
        <ele>916</ele>
        <time>2000-01-01T02:15:51.000Z</time>
      </trkpt>
      <trkpt lat="44.94099" lon="5.80215">
        <ele>917.6</ele>
        <time>2000-01-01T02:16:01.000Z</time>
      </trkpt>
      <trkpt lat="44.94096" lon="5.80232">
        <ele>919</ele>
        <time>2000-01-01T02:16:11.000Z</time>
      </trkpt>
      <trkpt lat="44.94088" lon="5.80258">
        <ele>920</ele>
        <time>2000-01-01T02:16:21.000Z</time>
      </trkpt>
      <trkpt lat="44.94083" lon="5.80272">
        <ele>920.1</ele>
        <time>2000-01-01T02:16:31.000Z</time>
      </trkpt>
      <trkpt lat="44.94078" lon="5.80282">
        <ele>921</ele>
        <time>2000-01-01T02:16:41.000Z</time>
      </trkpt>
      <trkpt lat="44.94066" lon="5.80317">
        <ele>923</ele>
        <time>2000-01-01T02:16:51.000Z</time>
      </trkpt>
      <trkpt lat="44.94056" lon="5.8034">
        <ele>924</ele>
        <time>2000-01-01T02:17:01.000Z</time>
      </trkpt>
      <trkpt lat="44.9405" lon="5.8035">
        <ele>924.9</ele>
        <time>2000-01-01T02:17:11.000Z</time>
      </trkpt>
      <trkpt lat="44.9404" lon="5.80376">
        <ele>927</ele>
        <time>2000-01-01T02:17:21.000Z</time>
      </trkpt>
      <trkpt lat="44.9403" lon="5.80399">
        <ele>929</ele>
        <time>2000-01-01T02:17:31.000Z</time>
      </trkpt>
      <trkpt lat="44.94021" lon="5.80427">
        <ele>929</ele>
        <time>2000-01-01T02:17:41.000Z</time>
      </trkpt>
      <trkpt lat="44.94016" lon="5.80438">
        <ele>930.7</ele>
        <time>2000-01-01T02:17:51.000Z</time>
      </trkpt>
      <trkpt lat="44.94012" lon="5.80452">
        <ele>931</ele>
        <time>2000-01-01T02:18:01.000Z</time>
      </trkpt>
      <trkpt lat="44.94007" lon="5.80464">
        <ele>932.2</ele>
        <time>2000-01-01T02:18:11.000Z</time>
      </trkpt>
      <trkpt lat="44.93993" lon="5.8049">
        <ele>933</ele>
        <time>2000-01-01T02:18:21.000Z</time>
      </trkpt>
      <trkpt lat="44.93983" lon="5.80514">
        <ele>935</ele>
        <time>2000-01-01T02:18:31.000Z</time>
      </trkpt>
      <trkpt lat="44.93975" lon="5.80527">
        <ele>936.8</ele>
        <time>2000-01-01T02:18:41.000Z</time>
      </trkpt>
      <trkpt lat="44.9397" lon="5.80537">
        <ele>937</ele>
        <time>2000-01-01T02:18:51.000Z</time>
      </trkpt>
      <trkpt lat="44.93964" lon="5.80546">
        <ele>938</ele>
        <time>2000-01-01T02:19:01.000Z</time>
      </trkpt>
      <trkpt lat="44.93938" lon="5.806">
        <ele>941</ele>
        <time>2000-01-01T02:19:11.000Z</time>
      </trkpt>
      <trkpt lat="44.93922" lon="5.80625">
        <ele>942</ele>
        <time>2000-01-01T02:19:21.000Z</time>
      </trkpt>
      <trkpt lat="44.93916" lon="5.80637">
        <ele>944</ele>
        <time>2000-01-01T02:19:31.000Z</time>
      </trkpt>
      <trkpt lat="44.93908" lon="5.80664">
        <ele>945</ele>
        <time>2000-01-01T02:19:41.000Z</time>
      </trkpt>
      <trkpt lat="44.9389" lon="5.80699">
        <ele>948</ele>
        <time>2000-01-01T02:19:51.000Z</time>
      </trkpt>
      <trkpt lat="44.93883" lon="5.80711">
        <ele>949</ele>
        <time>2000-01-01T02:20:01.000Z</time>
      </trkpt>
      <trkpt lat="44.93874" lon="5.8072">
        <ele>949</ele>
        <time>2000-01-01T02:20:11.000Z</time>
      </trkpt>
      <trkpt lat="44.93864" lon="5.80727">
        <ele>950.8</ele>
        <time>2000-01-01T02:20:21.000Z</time>
      </trkpt>
      <trkpt lat="44.93854" lon="5.8073">
        <ele>951</ele>
        <time>2000-01-01T02:20:31.000Z</time>
      </trkpt>
      <trkpt lat="44.93844" lon="5.80737">
        <ele>951.9</ele>
        <time>2000-01-01T02:20:41.000Z</time>
      </trkpt>
      <trkpt lat="44.93829" lon="5.80758">
        <ele>953</ele>
        <time>2000-01-01T02:20:51.000Z</time>
      </trkpt>
      <trkpt lat="44.9382" lon="5.80768">
        <ele>954.6</ele>
        <time>2000-01-01T02:21:01.000Z</time>
      </trkpt>
      <trkpt lat="44.93813" lon="5.8078">
        <ele>955</ele>
        <time>2000-01-01T02:21:11.000Z</time>
      </trkpt>
      <trkpt lat="44.93798" lon="5.80801">
        <ele>957</ele>
        <time>2000-01-01T02:21:21.000Z</time>
      </trkpt>
      <trkpt lat="44.93791" lon="5.80815">
        <ele>957.4</ele>
        <time>2000-01-01T02:21:31.000Z</time>
      </trkpt>
      <trkpt lat="44.93784" lon="5.80826">
        <ele>958</ele>
        <time>2000-01-01T02:21:41.000Z</time>
      </trkpt>
      <trkpt lat="44.93776" lon="5.80837">
        <ele>959.2</ele>
        <time>2000-01-01T02:21:51.000Z</time>
      </trkpt>
      <trkpt lat="44.93769" lon="5.80849">
        <ele>960</ele>
        <time>2000-01-01T02:22:01.000Z</time>
      </trkpt>
      <trkpt lat="44.93762" lon="5.80859">
        <ele>960.5</ele>
        <time>2000-01-01T02:22:11.000Z</time>
      </trkpt>
      <trkpt lat="44.93743" lon="5.80881">
        <ele>962</ele>
        <time>2000-01-01T02:22:21.000Z</time>
      </trkpt>
      <trkpt lat="44.93736" lon="5.80893">
        <ele>962.7</ele>
        <time>2000-01-01T02:22:31.000Z</time>
      </trkpt>
      <trkpt lat="44.93726" lon="5.8092">
        <ele>964</ele>
        <time>2000-01-01T02:22:41.000Z</time>
      </trkpt>
      <trkpt lat="44.93724" lon="5.80935">
        <ele>964.6</ele>
        <time>2000-01-01T02:22:51.000Z</time>
      </trkpt>
      <trkpt lat="44.93726" lon="5.80952">
        <ele>965</ele>
        <time>2000-01-01T02:23:01.000Z</time>
      </trkpt>
      <trkpt lat="44.93726" lon="5.80965">
        <ele>965.6</ele>
        <time>2000-01-01T02:23:11.000Z</time>
      </trkpt>
      <trkpt lat="44.93727" lon="5.80981">
        <ele>966</ele>
        <time>2000-01-01T02:23:21.000Z</time>
      </trkpt>
      <trkpt lat="44.93729" lon="5.80995">
        <ele>966.6</ele>
        <time>2000-01-01T02:23:31.000Z</time>
      </trkpt>
      <trkpt lat="44.93735" lon="5.81019">
        <ele>966</ele>
        <time>2000-01-01T02:23:41.000Z</time>
      </trkpt>
      <trkpt lat="44.93738" lon="5.8103">
        <ele>967.1</ele>
        <time>2000-01-01T02:23:51.000Z</time>
      </trkpt>
      <trkpt lat="44.93743" lon="5.81045">
        <ele>967</ele>
        <time>2000-01-01T02:24:01.000Z</time>
      </trkpt>
      <trkpt lat="44.93749" lon="5.81055">
        <ele>968</ele>
        <time>2000-01-01T02:24:11.000Z</time>
      </trkpt>
      <trkpt lat="44.9376" lon="5.81063">
        <ele>967</ele>
        <time>2000-01-01T02:24:21.000Z</time>
      </trkpt>
      <trkpt lat="44.93771" lon="5.81068">
        <ele>968.3</ele>
        <time>2000-01-01T02:24:31.000Z</time>
      </trkpt>
      <trkpt lat="44.93793" lon="5.81073">
        <ele>968</ele>
        <time>2000-01-01T02:24:41.000Z</time>
      </trkpt>
      <trkpt lat="44.93817" lon="5.81073">
        <ele>969</ele>
        <time>2000-01-01T02:24:51.000Z</time>
      </trkpt>
      <trkpt lat="44.93842" lon="5.81073">
        <ele>971</ele>
        <time>2000-01-01T02:25:01.000Z</time>
      </trkpt>
      <trkpt lat="44.93851" lon="5.81077">
        <ele>972.3</ele>
        <time>2000-01-01T02:25:11.000Z</time>
      </trkpt>
      <trkpt lat="44.93859" lon="5.81083">
        <ele>972.8</ele>
        <time>2000-01-01T02:25:21.000Z</time>
      </trkpt>
      <trkpt lat="44.93881" lon="5.81114">
        <ele>973</ele>
        <time>2000-01-01T02:25:31.000Z</time>
      </trkpt>
      <trkpt lat="44.93889" lon="5.8112">
        <ele>974.7</ele>
        <time>2000-01-01T02:25:41.000Z</time>
      </trkpt>
      <trkpt lat="44.93907" lon="5.8113">
        <ele>975</ele>
        <time>2000-01-01T02:25:51.000Z</time>
      </trkpt>
      <trkpt lat="44.93916" lon="5.81136">
        <ele>976.1</ele>
        <time>2000-01-01T02:26:01.000Z</time>
      </trkpt>
      <trkpt lat="44.93926" lon="5.81144">
        <ele>976</ele>
        <time>2000-01-01T02:26:11.000Z</time>
      </trkpt>
      <trkpt lat="44.93937" lon="5.81151">
        <ele>977</ele>
        <time>2000-01-01T02:26:21.000Z</time>
      </trkpt>
      <trkpt lat="44.93953" lon="5.81166">
        <ele>977</ele>
        <time>2000-01-01T02:26:31.000Z</time>
      </trkpt>
      <trkpt lat="44.93969" lon="5.81188">
        <ele>977</ele>
        <time>2000-01-01T02:26:41.000Z</time>
      </trkpt>
      <trkpt lat="44.93977" lon="5.812">
        <ele>978</ele>
        <time>2000-01-01T02:26:51.000Z</time>
      </trkpt>
      <trkpt lat="44.93986" lon="5.81211">
        <ele>977</ele>
        <time>2000-01-01T02:27:01.000Z</time>
      </trkpt>
      <trkpt lat="44.93997" lon="5.81219">
        <ele>978.8</ele>
        <time>2000-01-01T02:27:11.000Z</time>
      </trkpt>
      <trkpt lat="44.94008" lon="5.81221">
        <ele>978</ele>
        <time>2000-01-01T02:27:21.000Z</time>
      </trkpt>
      <trkpt lat="44.9402" lon="5.81221">
        <ele>979.8</ele>
        <time>2000-01-01T02:27:31.000Z</time>
      </trkpt>
      <trkpt lat="44.94053" lon="5.81224">
        <ele>981</ele>
        <time>2000-01-01T02:27:41.000Z</time>
      </trkpt>
      <trkpt lat="44.94074" lon="5.81227">
        <ele>983</ele>
        <time>2000-01-01T02:27:51.000Z</time>
      </trkpt>
      <trkpt lat="44.94093" lon="5.81235">
        <ele>984</ele>
        <time>2000-01-01T02:28:01.000Z</time>
      </trkpt>
      <trkpt lat="44.94109" lon="5.81246">
        <ele>985.8</ele>
        <time>2000-01-01T02:28:11.000Z</time>
      </trkpt>
      <trkpt lat="44.94118" lon="5.81254">
        <ele>985</ele>
        <time>2000-01-01T02:28:21.000Z</time>
      </trkpt>
      <trkpt lat="44.94125" lon="5.81261">
        <ele>987</ele>
        <time>2000-01-01T02:28:31.000Z</time>
      </trkpt>
      <trkpt lat="44.94139" lon="5.81279">
        <ele>987</ele>
        <time>2000-01-01T02:28:41.000Z</time>
      </trkpt>
      <trkpt lat="44.94157" lon="5.81297">
        <ele>988</ele>
        <time>2000-01-01T02:28:51.000Z</time>
      </trkpt>
      <trkpt lat="44.94169" lon="5.81303">
        <ele>990.2</ele>
        <time>2000-01-01T02:29:01.000Z</time>
      </trkpt>
      <trkpt lat="44.94201" lon="5.81314">
        <ele>992</ele>
        <time>2000-01-01T02:29:11.000Z</time>
      </trkpt>
      <trkpt lat="44.94211" lon="5.8132">
        <ele>993.4</ele>
        <time>2000-01-01T02:29:21.000Z</time>
      </trkpt>
      <trkpt lat="44.94221" lon="5.81327">
        <ele>994</ele>
        <time>2000-01-01T02:29:31.000Z</time>
      </trkpt>
      <trkpt lat="44.94232" lon="5.81331">
        <ele>994.7</ele>
        <time>2000-01-01T02:29:41.000Z</time>
      </trkpt>
      <trkpt lat="44.94253" lon="5.81342">
        <ele>996</ele>
        <time>2000-01-01T02:29:51.000Z</time>
      </trkpt>
      <trkpt lat="44.94263" lon="5.81352">
        <ele>997.6</ele>
        <time>2000-01-01T02:30:01.000Z</time>
      </trkpt>
      <trkpt lat="44.9427" lon="5.81364">
        <ele>997</ele>
        <time>2000-01-01T02:30:11.000Z</time>
      </trkpt>
      <trkpt lat="44.94288" lon="5.81391">
        <ele>1001</ele>
        <time>2000-01-01T02:30:21.000Z</time>
      </trkpt>
      <trkpt lat="44.94295" lon="5.81396">
        <ele>1003.4</ele>
        <time>2000-01-01T02:30:31.000Z</time>
      </trkpt>
      <trkpt lat="44.94304" lon="5.81395">
        <ele>1004.3</ele>
        <time>2000-01-01T02:30:41.000Z</time>
      </trkpt>
      <trkpt lat="44.94312" lon="5.81389">
        <ele>1003</ele>
        <time>2000-01-01T02:30:51.000Z</time>
      </trkpt>
      <trkpt lat="44.9432" lon="5.81386">
        <ele>1005.3</ele>
        <time>2000-01-01T02:31:01.000Z</time>
      </trkpt>
      <trkpt lat="44.94328" lon="5.81394">
        <ele>1006.9</ele>
        <time>2000-01-01T02:31:11.000Z</time>
      </trkpt>
      <trkpt lat="44.94328" lon="5.81409">
        <ele>1006</ele>
        <time>2000-01-01T02:31:21.000Z</time>
      </trkpt>
      <trkpt lat="44.94323" lon="5.81436">
        <ele>1009</ele>
        <time>2000-01-01T02:31:31.000Z</time>
      </trkpt>
      <trkpt lat="44.9432" lon="5.81464">
        <ele>1011</ele>
        <time>2000-01-01T02:31:41.000Z</time>
      </trkpt>
      <trkpt lat="44.94317" lon="5.81483">
        <ele>1013.8</ele>
        <time>2000-01-01T02:31:51.000Z</time>
      </trkpt>
      <trkpt lat="44.94315" lon="5.81515">
        <ele>1016</ele>
        <time>2000-01-01T02:32:01.000Z</time>
      </trkpt>
      <trkpt lat="44.94311" lon="5.81549">
        <ele>1018</ele>
        <time>2000-01-01T02:32:11.000Z</time>
      </trkpt>
      <trkpt lat="44.9431" lon="5.81578">
        <ele>1018</ele>
        <time>2000-01-01T02:32:21.000Z</time>
      </trkpt>
      <trkpt lat="44.94308" lon="5.81592">
        <ele>1021</ele>
        <time>2000-01-01T02:32:31.000Z</time>
      </trkpt>
      <trkpt lat="44.94308" lon="5.81605">
        <ele>1019</ele>
        <time>2000-01-01T02:32:41.000Z</time>
      </trkpt>
      <trkpt lat="44.94311" lon="5.81621">
        <ele>1023.2</ele>
        <time>2000-01-01T02:32:51.000Z</time>
      </trkpt>
      <trkpt lat="44.94317" lon="5.81636">
        <ele>1023</ele>
        <time>2000-01-01T02:33:01.000Z</time>
      </trkpt>
      <trkpt lat="44.94324" lon="5.81647">
        <ele>1026.9</ele>
        <time>2000-01-01T02:33:11.000Z</time>
      </trkpt>
      <trkpt lat="44.94335" lon="5.81645">
        <ele>1026</ele>
        <time>2000-01-01T02:33:21.000Z</time>
      </trkpt>
      <trkpt lat="44.94345" lon="5.81638">
        <ele>1029.6</ele>
        <time>2000-01-01T02:33:31.000Z</time>
      </trkpt>
      <trkpt lat="44.94373" lon="5.8163">
        <ele>1031</ele>
        <time>2000-01-01T02:33:41.000Z</time>
      </trkpt>
      <trkpt lat="44.94381" lon="5.81624">
        <ele>1033.4</ele>
        <time>2000-01-01T02:33:51.000Z</time>
      </trkpt>
      <trkpt lat="44.94391" lon="5.81618">
        <ele>1032</ele>
        <time>2000-01-01T02:34:01.000Z</time>
      </trkpt>
      <trkpt lat="44.944" lon="5.81611">
        <ele>1034.6</ele>
        <time>2000-01-01T02:34:11.000Z</time>
      </trkpt>
      <trkpt lat="44.94438" lon="5.81575">
        <ele>1032</ele>
        <time>2000-01-01T02:34:21.000Z</time>
      </trkpt>
      <trkpt lat="44.94467" lon="5.8155">
        <ele>1032</ele>
        <time>2000-01-01T02:34:31.000Z</time>
      </trkpt>
      <trkpt lat="44.94476" lon="5.81545">
        <ele>1035.6</ele>
        <time>2000-01-01T02:34:41.000Z</time>
      </trkpt>
      <trkpt lat="44.94487" lon="5.81541">
        <ele>1035</ele>
        <time>2000-01-01T02:34:51.000Z</time>
      </trkpt>
      <trkpt lat="44.94507" lon="5.81543">
        <ele>1038</ele>
        <time>2000-01-01T02:35:01.000Z</time>
      </trkpt>
      <trkpt lat="44.94519" lon="5.81541">
        <ele>1041.1</ele>
        <time>2000-01-01T02:35:11.000Z</time>
      </trkpt>
      <trkpt lat="44.94529" lon="5.81538">
        <ele>1039</ele>
        <time>2000-01-01T02:35:21.000Z</time>
      </trkpt>
      <trkpt lat="44.94538" lon="5.81534">
        <ele>1042.1</ele>
        <time>2000-01-01T02:35:31.000Z</time>
      </trkpt>
      <trkpt lat="44.94549" lon="5.81532">
        <ele>1041</ele>
        <time>2000-01-01T02:35:41.000Z</time>
      </trkpt>
      <trkpt lat="44.9456" lon="5.81527">
        <ele>1043.6</ele>
        <time>2000-01-01T02:35:51.000Z</time>
      </trkpt>
      <trkpt lat="44.94571" lon="5.81523">
        <ele>1041</ele>
        <time>2000-01-01T02:36:01.000Z</time>
      </trkpt>
      <trkpt lat="44.94593" lon="5.81519">
        <ele>1042</ele>
        <time>2000-01-01T02:36:11.000Z</time>
      </trkpt>
      <trkpt lat="44.94603" lon="5.81515">
        <ele>1046.4</ele>
        <time>2000-01-01T02:36:21.000Z</time>
      </trkpt>
      <trkpt lat="44.94614" lon="5.81515">
        <ele>1045</ele>
        <time>2000-01-01T02:36:31.000Z</time>
      </trkpt>
      <trkpt lat="44.94626" lon="5.81514">
        <ele>1048.9</ele>
        <time>2000-01-01T02:36:41.000Z</time>
      </trkpt>
      <trkpt lat="44.94649" lon="5.81508">
        <ele>1046</ele>
        <time>2000-01-01T02:36:51.000Z</time>
      </trkpt>
      <trkpt lat="44.94661" lon="5.81507">
        <ele>1049.9</ele>
        <time>2000-01-01T02:37:01.000Z</time>
      </trkpt>
      <trkpt lat="44.94673" lon="5.81505">
        <ele>1045</ele>
        <time>2000-01-01T02:37:11.000Z</time>
      </trkpt>
      <trkpt lat="44.94685" lon="5.81497">
        <ele>1049.2</ele>
        <time>2000-01-01T02:37:21.000Z</time>
      </trkpt>
      <trkpt lat="44.94693" lon="5.81489">
        <ele>1045</ele>
        <time>2000-01-01T02:37:31.000Z</time>
      </trkpt>
      <trkpt lat="44.94713" lon="5.81479">
        <ele>1045</ele>
        <time>2000-01-01T02:37:41.000Z</time>
      </trkpt>
      <trkpt lat="44.94725" lon="5.81474">
        <ele>1046.7</ele>
        <time>2000-01-01T02:37:51.000Z</time>
      </trkpt>
      <trkpt lat="44.94735" lon="5.81471">
        <ele>1044</ele>
        <time>2000-01-01T02:38:01.000Z</time>
      </trkpt>
      <trkpt lat="44.94747" lon="5.81471">
        <ele>1047.4</ele>
        <time>2000-01-01T02:38:11.000Z</time>
      </trkpt>
      <trkpt lat="44.94759" lon="5.81469">
        <ele>1044</ele>
        <time>2000-01-01T02:38:21.000Z</time>
      </trkpt>
      <trkpt lat="44.94771" lon="5.81466">
        <ele>1047.9</ele>
        <time>2000-01-01T02:38:31.000Z</time>
      </trkpt>
      <trkpt lat="44.94784" lon="5.81466">
        <ele>1047</ele>
        <time>2000-01-01T02:38:41.000Z</time>
      </trkpt>
      <trkpt lat="44.94795" lon="5.81467">
        <ele>1049.9</ele>
        <time>2000-01-01T02:38:51.000Z</time>
      </trkpt>
      <trkpt lat="44.94806" lon="5.81471">
        <ele>1051</ele>
        <time>2000-01-01T02:39:01.000Z</time>
      </trkpt>
      <trkpt lat="44.94817" lon="5.81471">
        <ele>1052.5</ele>
        <time>2000-01-01T02:39:11.000Z</time>
      </trkpt>
      <trkpt lat="44.94838" lon="5.81476">
        <ele>1052</ele>
        <time>2000-01-01T02:39:21.000Z</time>
      </trkpt>
      <trkpt lat="44.9486" lon="5.81479">
        <ele>1053</ele>
        <time>2000-01-01T02:39:31.000Z</time>
      </trkpt>
      <trkpt lat="44.94893" lon="5.81479">
        <ele>1055</ele>
        <time>2000-01-01T02:39:41.000Z</time>
      </trkpt>
      <trkpt lat="44.9493" lon="5.81488">
        <ele>1058</ele>
        <time>2000-01-01T02:39:51.000Z</time>
      </trkpt>
      <trkpt lat="44.94953" lon="5.81503">
        <ele>1064</ele>
        <time>2000-01-01T02:40:01.000Z</time>
      </trkpt>
      <trkpt lat="44.94958" lon="5.81507">
        <ele>1066.9</ele>
        <time>2000-01-01T02:40:11.000Z</time>
      </trkpt>
      <trkpt lat="44.9498" lon="5.81509">
        <ele>1064</ele>
        <time>2000-01-01T02:40:21.000Z</time>
      </trkpt>
      <trkpt lat="44.94991" lon="5.81514">
        <ele>1068.5</ele>
        <time>2000-01-01T02:40:31.000Z</time>
      </trkpt>
      <trkpt lat="44.9501" lon="5.81531">
        <ele>1072</ele>
        <time>2000-01-01T02:40:41.000Z</time>
      </trkpt>
      <trkpt lat="44.95021" lon="5.81536">
        <ele>1076</ele>
        <time>2000-01-01T02:40:51.000Z</time>
      </trkpt>
      <trkpt lat="44.95032" lon="5.81538">
        <ele>1074</ele>
        <time>2000-01-01T02:41:01.000Z</time>
      </trkpt>
      <trkpt lat="44.95042" lon="5.81536">
        <ele>1077.9</ele>
        <time>2000-01-01T02:41:11.000Z</time>
      </trkpt>
      <trkpt lat="44.95051" lon="5.81527">
        <ele>1074</ele>
        <time>2000-01-01T02:41:21.000Z</time>
      </trkpt>
      <trkpt lat="44.9506" lon="5.81523">
        <ele>1076.8</ele>
        <time>2000-01-01T02:41:31.000Z</time>
      </trkpt>
      <trkpt lat="44.95081" lon="5.81521">
        <ele>1078</ele>
        <time>2000-01-01T02:41:41.000Z</time>
      </trkpt>
      <trkpt lat="44.95092" lon="5.81524">
        <ele>1082.7</ele>
        <time>2000-01-01T02:41:51.000Z</time>
      </trkpt>
      <trkpt lat="44.95101" lon="5.81524">
        <ele>1082</ele>
        <time>2000-01-01T02:42:01.000Z</time>
      </trkpt>
      <trkpt lat="44.95122" lon="5.81531">
        <ele>1089</ele>
        <time>2000-01-01T02:42:11.000Z</time>
      </trkpt>
      <trkpt lat="44.95141" lon="5.81542">
        <ele>1094</ele>
        <time>2000-01-01T02:42:21.000Z</time>
      </trkpt>
      <trkpt lat="44.95147" lon="5.81542">
        <ele>1096.6</ele>
        <time>2000-01-01T02:42:31.000Z</time>
      </trkpt>
      <trkpt lat="44.95157" lon="5.81548">
        <ele>1099.7</ele>
        <time>2000-01-01T02:42:41.000Z</time>
      </trkpt>
      <trkpt lat="44.95166" lon="5.81555">
        <ele>1099</ele>
        <time>2000-01-01T02:42:51.000Z</time>
      </trkpt>
      <trkpt lat="44.95173" lon="5.81564">
        <ele>1106.1</ele>
        <time>2000-01-01T02:43:01.000Z</time>
      </trkpt>
      <trkpt lat="44.95178" lon="5.81569">
        <ele>1107.8</ele>
        <time>2000-01-01T02:43:11.000Z</time>
      </trkpt>
      <trkpt lat="44.95189" lon="5.81573">
        <ele>1107</ele>
        <time>2000-01-01T02:43:21.000Z</time>
      </trkpt>
      <trkpt lat="44.95201" lon="5.816">
        <ele>1113</ele>
        <time>2000-01-01T02:43:31.000Z</time>
      </trkpt>
      <trkpt lat="44.95209" lon="5.81608">
        <ele>1120.3</ele>
        <time>2000-01-01T02:43:41.000Z</time>
      </trkpt>
      <trkpt lat="44.95218" lon="5.81614">
        <ele>1119</ele>
        <time>2000-01-01T02:43:51.000Z</time>
      </trkpt>
      <trkpt lat="44.95228" lon="5.81618">
        <ele>1126</ele>
        <time>2000-01-01T02:44:01.000Z</time>
      </trkpt>
      <trkpt lat="44.95239" lon="5.8162">
        <ele>1123</ele>
        <time>2000-01-01T02:44:11.000Z</time>
      </trkpt>
      <trkpt lat="44.95248" lon="5.8161">
        <ele>1131.1</ele>
        <time>2000-01-01T02:44:21.000Z</time>
      </trkpt>
      <trkpt lat="44.95256" lon="5.81598">
        <ele>1129</ele>
        <time>2000-01-01T02:44:31.000Z</time>
      </trkpt>
      <trkpt lat="44.95261" lon="5.81586">
        <ele>1133.5</ele>
        <time>2000-01-01T02:44:41.000Z</time>
      </trkpt>
      <trkpt lat="44.95267" lon="5.81574">
        <ele>1129</ele>
        <time>2000-01-01T02:44:51.000Z</time>
      </trkpt>
      <trkpt lat="44.95274" lon="5.81563">
        <ele>1135.8</ele>
        <time>2000-01-01T02:45:01.000Z</time>
      </trkpt>
      <trkpt lat="44.95281" lon="5.81554">
        <ele>1136</ele>
        <time>2000-01-01T02:45:11.000Z</time>
      </trkpt>
      <trkpt lat="44.95292" lon="5.8155">
        <ele>1141.2</ele>
        <time>2000-01-01T02:45:21.000Z</time>
      </trkpt>
      <trkpt lat="44.953" lon="5.8155">
        <ele>1137</ele>
        <time>2000-01-01T02:45:31.000Z</time>
      </trkpt>
      <trkpt lat="44.95318" lon="5.81544">
        <ele>1149.8</ele>
        <time>2000-01-01T02:45:41.000Z</time>
      </trkpt>
      <trkpt lat="44.95328" lon="5.81543">
        <ele>1149</ele>
        <time>2000-01-01T02:45:51.000Z</time>
      </trkpt>
      <trkpt lat="44.95337" lon="5.81541">
        <ele>1154.7</ele>
        <time>2000-01-01T02:46:01.000Z</time>
      </trkpt>
      <trkpt lat="44.95346" lon="5.81541">
        <ele>1157</ele>
        <time>2000-01-01T02:46:11.000Z</time>
      </trkpt>
      <trkpt lat="44.95355" lon="5.81538">
        <ele>1154</ele>
        <time>2000-01-01T02:46:21.000Z</time>
      </trkpt>
      <trkpt lat="44.95366" lon="5.81538">
        <ele>1160.7</ele>
        <time>2000-01-01T02:46:31.000Z</time>
      </trkpt>
      <trkpt lat="44.95376" lon="5.81539">
        <ele>1159</ele>
        <time>2000-01-01T02:46:41.000Z</time>
      </trkpt>
      <trkpt lat="44.95387" lon="5.81538">
        <ele>1164.9</ele>
        <time>2000-01-01T02:46:51.000Z</time>
      </trkpt>
      <trkpt lat="44.95398" lon="5.81534">
        <ele>1163</ele>
        <time>2000-01-01T02:47:01.000Z</time>
      </trkpt>
      <trkpt lat="44.95408" lon="5.81532">
        <ele>1166.7</ele>
        <time>2000-01-01T02:47:11.000Z</time>
      </trkpt>
      <trkpt lat="44.95429" lon="5.81524">
        <ele>1164</ele>
        <time>2000-01-01T02:47:21.000Z</time>
      </trkpt>
      <trkpt lat="44.95437" lon="5.81522">
        <ele>1168.8</ele>
        <time>2000-01-01T02:47:31.000Z</time>
      </trkpt>
      <trkpt lat="44.95449" lon="5.81522">
        <ele>1168</ele>
        <time>2000-01-01T02:47:41.000Z</time>
      </trkpt>
      <trkpt lat="44.9546" lon="5.81523">
        <ele>1172.2</ele>
        <time>2000-01-01T02:47:51.000Z</time>
      </trkpt>
      <trkpt lat="44.95468" lon="5.81534">
        <ele>1174</ele>
        <time>2000-01-01T02:48:01.000Z</time>
      </trkpt>
      <trkpt lat="44.95484" lon="5.81554">
        <ele>1180</ele>
        <time>2000-01-01T02:48:11.000Z</time>
      </trkpt>
      <trkpt lat="44.95491" lon="5.81567">
        <ele>1184</ele>
        <time>2000-01-01T02:48:21.000Z</time>
      </trkpt>
      <trkpt lat="44.95496" lon="5.8158">
        <ele>1185</ele>
        <time>2000-01-01T02:48:31.000Z</time>
      </trkpt>
      <trkpt lat="44.95504" lon="5.81593">
        <ele>1188.1</ele>
        <time>2000-01-01T02:48:41.000Z</time>
      </trkpt>
      <trkpt lat="44.9551" lon="5.81604">
        <ele>1189</ele>
        <time>2000-01-01T02:48:51.000Z</time>
      </trkpt>
      <trkpt lat="44.95517" lon="5.81619">
        <ele>1190.7</ele>
        <time>2000-01-01T02:49:01.000Z</time>
      </trkpt>
      <trkpt lat="44.95522" lon="5.81632">
        <ele>1191</ele>
        <time>2000-01-01T02:49:11.000Z</time>
      </trkpt>
      <trkpt lat="44.95532" lon="5.81649">
        <ele>1192.8</ele>
        <time>2000-01-01T02:49:21.000Z</time>
      </trkpt>
      <trkpt lat="44.95538" lon="5.81658">
        <ele>1193</ele>
        <time>2000-01-01T02:49:31.000Z</time>
      </trkpt>
      <trkpt lat="44.95543" lon="5.81668">
        <ele>1193.5</ele>
        <time>2000-01-01T02:49:41.000Z</time>
      </trkpt>
      <trkpt lat="44.95548" lon="5.81681">
        <ele>1194</ele>
        <time>2000-01-01T02:49:51.000Z</time>
      </trkpt>
      <trkpt lat="44.95554" lon="5.81693">
        <ele>1196</ele>
        <time>2000-01-01T02:50:01.000Z</time>
      </trkpt>
      <trkpt lat="44.95562" lon="5.81702">
        <ele>1195</ele>
        <time>2000-01-01T02:50:11.000Z</time>
      </trkpt>
      <trkpt lat="44.95569" lon="5.81715">
        <ele>1195.8</ele>
        <time>2000-01-01T02:50:21.000Z</time>
      </trkpt>
      <trkpt lat="44.95574" lon="5.81728">
        <ele>1197</ele>
        <time>2000-01-01T02:50:31.000Z</time>
      </trkpt>
      <trkpt lat="44.95576" lon="5.81744">
        <ele>1199.8</ele>
        <time>2000-01-01T02:50:41.000Z</time>
      </trkpt>
      <trkpt lat="44.95575" lon="5.81759">
        <ele>1203</ele>
        <time>2000-01-01T02:50:51.000Z</time>
      </trkpt>
      <trkpt lat="44.95575" lon="5.81773">
        <ele>1205.8</ele>
        <time>2000-01-01T02:51:01.000Z</time>
      </trkpt>
      <trkpt lat="44.95572" lon="5.81787">
        <ele>1209</ele>
        <time>2000-01-01T02:51:11.000Z</time>
      </trkpt>
      <trkpt lat="44.95568" lon="5.81815">
        <ele>1218</ele>
        <time>2000-01-01T02:51:21.000Z</time>
      </trkpt>
      <trkpt lat="44.95567" lon="5.81831">
        <ele>1220.2</ele>
        <time>2000-01-01T02:51:31.000Z</time>
      </trkpt>
      <trkpt lat="44.95569" lon="5.81845">
        <ele>1223</ele>
        <time>2000-01-01T02:51:41.000Z</time>
      </trkpt>
      <trkpt lat="44.95567" lon="5.81861">
        <ele>1225.7</ele>
        <time>2000-01-01T02:51:51.000Z</time>
      </trkpt>
      <trkpt lat="44.95568" lon="5.81876">
        <ele>1229</ele>
        <time>2000-01-01T02:52:01.000Z</time>
      </trkpt>
      <trkpt lat="44.95571" lon="5.81891">
        <ele>1229.9</ele>
        <time>2000-01-01T02:52:11.000Z</time>
      </trkpt>
      <trkpt lat="44.95571" lon="5.81906">
        <ele>1232</ele>
        <time>2000-01-01T02:52:21.000Z</time>
      </trkpt>
      <trkpt lat="44.95577" lon="5.81935">
        <ele>1237</ele>
        <time>2000-01-01T02:52:31.000Z</time>
      </trkpt>
      <trkpt lat="44.95578" lon="5.8195">
        <ele>1237.9</ele>
        <time>2000-01-01T02:52:41.000Z</time>
      </trkpt>
      <trkpt lat="44.95583" lon="5.81964">
        <ele>1238</ele>
        <time>2000-01-01T02:52:51.000Z</time>
      </trkpt>
      <trkpt lat="44.95586" lon="5.81979">
        <ele>1239.7</ele>
        <time>2000-01-01T02:53:01.000Z</time>
      </trkpt>
      <trkpt lat="44.9559" lon="5.81994">
        <ele>1242</ele>
        <time>2000-01-01T02:53:11.000Z</time>
      </trkpt>
      <trkpt lat="44.9559" lon="5.82009">
        <ele>1242.3</ele>
        <time>2000-01-01T02:53:21.000Z</time>
      </trkpt>
      <trkpt lat="44.95588" lon="5.82023">
        <ele>1247</ele>
        <time>2000-01-01T02:53:31.000Z</time>
      </trkpt>
      <trkpt lat="44.95587" lon="5.82054">
        <ele>1252</ele>
        <time>2000-01-01T02:53:41.000Z</time>
      </trkpt>
      <trkpt lat="44.95587" lon="5.8207">
        <ele>1254.9</ele>
        <time>2000-01-01T02:53:51.000Z</time>
      </trkpt>
      <trkpt lat="44.9559" lon="5.82085">
        <ele>1258</ele>
        <time>2000-01-01T02:54:01.000Z</time>
      </trkpt>
      <trkpt lat="44.95594" lon="5.82098">
        <ele>1258.9</ele>
        <time>2000-01-01T02:54:11.000Z</time>
      </trkpt>
      <trkpt lat="44.956" lon="5.82112">
        <ele>1263</ele>
        <time>2000-01-01T02:54:21.000Z</time>
      </trkpt>
      <trkpt lat="44.95613" lon="5.82151">
        <ele>1265</ele>
        <time>2000-01-01T02:54:31.000Z</time>
      </trkpt>
      <trkpt lat="44.95616" lon="5.82167">
        <ele>1268.3</ele>
        <time>2000-01-01T02:54:41.000Z</time>
      </trkpt>
      <trkpt lat="44.9562" lon="5.8218">
        <ele>1270</ele>
        <time>2000-01-01T02:54:51.000Z</time>
      </trkpt>
      <trkpt lat="44.95621" lon="5.82195">
        <ele>1272.9</ele>
        <time>2000-01-01T02:55:01.000Z</time>
      </trkpt>
      <trkpt lat="44.95623" lon="5.82208">
        <ele>1274</ele>
        <time>2000-01-01T02:55:11.000Z</time>
      </trkpt>
      <trkpt lat="44.95627" lon="5.82222">
        <ele>1276.2</ele>
        <time>2000-01-01T02:55:21.000Z</time>
      </trkpt>
      <trkpt lat="44.95628" lon="5.82237">
        <ele>1279</ele>
        <time>2000-01-01T02:55:31.000Z</time>
      </trkpt>
      <trkpt lat="44.95632" lon="5.82251">
        <ele>1278.6</ele>
        <time>2000-01-01T02:55:41.000Z</time>
      </trkpt>
      <trkpt lat="44.95637" lon="5.82279">
        <ele>1282</ele>
        <time>2000-01-01T02:55:51.000Z</time>
      </trkpt>
      <trkpt lat="44.95638" lon="5.82293">
        <ele>1282.5</ele>
        <time>2000-01-01T02:56:01.000Z</time>
      </trkpt>
      <trkpt lat="44.95638" lon="5.82325">
        <ele>1289</ele>
        <time>2000-01-01T02:56:11.000Z</time>
      </trkpt>
      <trkpt lat="44.95635" lon="5.82338">
        <ele>1289.2</ele>
        <time>2000-01-01T02:56:21.000Z</time>
      </trkpt>
      <trkpt lat="44.95629" lon="5.82384">
        <ele>1299</ele>
        <time>2000-01-01T02:56:31.000Z</time>
      </trkpt>
      <trkpt lat="44.95629" lon="5.82398">
        <ele>1298.3</ele>
        <time>2000-01-01T02:56:41.000Z</time>
      </trkpt>
      <trkpt lat="44.95628" lon="5.82414">
        <ele>1302</ele>
        <time>2000-01-01T02:56:51.000Z</time>
      </trkpt>
      <trkpt lat="44.95626" lon="5.8243">
        <ele>1302.8</ele>
        <time>2000-01-01T02:57:01.000Z</time>
      </trkpt>
      <trkpt lat="44.95624" lon="5.8246">
        <ele>1306</ele>
        <time>2000-01-01T02:57:11.000Z</time>
      </trkpt>
      <trkpt lat="44.95627" lon="5.82477">
        <ele>1307.4</ele>
        <time>2000-01-01T02:57:21.000Z</time>
      </trkpt>
      <trkpt lat="44.95628" lon="5.82493">
        <ele>1311</ele>
        <time>2000-01-01T02:57:31.000Z</time>
      </trkpt>
      <trkpt lat="44.95635" lon="5.8254">
        <ele>1310</ele>
        <time>2000-01-01T02:57:41.000Z</time>
      </trkpt>
      <trkpt lat="44.95644" lon="5.82549">
        <ele>1314.4</ele>
        <time>2000-01-01T02:57:51.000Z</time>
      </trkpt>
      <trkpt lat="44.95666" lon="5.82548">
        <ele>1310</ele>
        <time>2000-01-01T02:58:01.000Z</time>
      </trkpt>
      <trkpt lat="44.95676" lon="5.8255">
        <ele>1314.1</ele>
        <time>2000-01-01T02:58:11.000Z</time>
      </trkpt>
      <trkpt lat="44.95698" lon="5.82545">
        <ele>1313</ele>
        <time>2000-01-01T02:58:21.000Z</time>
      </trkpt>
      <trkpt lat="44.95708" lon="5.8254">
        <ele>1317.5</ele>
        <time>2000-01-01T02:58:31.000Z</time>
      </trkpt>
      <trkpt lat="44.95719" lon="5.82537">
        <ele>1315</ele>
        <time>2000-01-01T02:58:41.000Z</time>
      </trkpt>
      <trkpt lat="44.95728" lon="5.82531">
        <ele>1319.2</ele>
        <time>2000-01-01T02:58:51.000Z</time>
      </trkpt>
      <trkpt lat="44.9574" lon="5.82528">
        <ele>1317</ele>
        <time>2000-01-01T02:59:01.000Z</time>
      </trkpt>
      <trkpt lat="44.9576" lon="5.82526">
        <ele>1321</ele>
        <time>2000-01-01T02:59:11.000Z</time>
      </trkpt>
      <trkpt lat="44.95792" lon="5.82513">
        <ele>1324</ele>
        <time>2000-01-01T02:59:21.000Z</time>
      </trkpt>
      <trkpt lat="44.95803" lon="5.82512">
        <ele>1328.9</ele>
        <time>2000-01-01T02:59:31.000Z</time>
      </trkpt>
      <trkpt lat="44.95813" lon="5.82507">
        <ele>1326</ele>
        <time>2000-01-01T02:59:41.000Z</time>
      </trkpt>
      <trkpt lat="44.95835" lon="5.82501">
        <ele>1331</ele>
        <time>2000-01-01T02:59:51.000Z</time>
      </trkpt>
      <trkpt lat="44.95857" lon="5.82492">
        <ele>1333</ele>
        <time>2000-01-01T03:00:01.000Z</time>
      </trkpt>
      <trkpt lat="44.95877" lon="5.82482">
        <ele>1334</ele>
        <time>2000-01-01T03:00:11.000Z</time>
      </trkpt>
      <trkpt lat="44.95887" lon="5.82475">
        <ele>1338.2</ele>
        <time>2000-01-01T03:00:21.000Z</time>
      </trkpt>
      <trkpt lat="44.95906" lon="5.8246">
        <ele>1335</ele>
        <time>2000-01-01T03:00:31.000Z</time>
      </trkpt>
      <trkpt lat="44.95926" lon="5.82446">
        <ele>1340</ele>
        <time>2000-01-01T03:00:41.000Z</time>
      </trkpt>
      <trkpt lat="44.95934" lon="5.82438">
        <ele>1346.9</ele>
        <time>2000-01-01T03:00:51.000Z</time>
      </trkpt>
      <trkpt lat="44.9594" lon="5.82425">
        <ele>1340</ele>
        <time>2000-01-01T03:01:01.000Z</time>
      </trkpt>
      <trkpt lat="44.95962" lon="5.8237">
        <ele>1345</ele>
        <time>2000-01-01T03:01:11.000Z</time>
      </trkpt>
      <trkpt lat="44.95967" lon="5.82354">
        <ele>1348.2</ele>
        <time>2000-01-01T03:01:21.000Z</time>
      </trkpt>
      <trkpt lat="44.95972" lon="5.82341">
        <ele>1347</ele>
        <time>2000-01-01T03:01:31.000Z</time>
      </trkpt>
      <trkpt lat="44.95979" lon="5.82328">
        <ele>1348.4</ele>
        <time>2000-01-01T03:01:41.000Z</time>
      </trkpt>
      <trkpt lat="44.95991" lon="5.82321">
        <ele>1348</ele>
        <time>2000-01-01T03:01:51.000Z</time>
      </trkpt>
      <trkpt lat="44.96002" lon="5.82318">
        <ele>1350.2</ele>
        <time>2000-01-01T03:02:01.000Z</time>
      </trkpt>
      <trkpt lat="44.96013" lon="5.82318">
        <ele>1349</ele>
        <time>2000-01-01T03:02:11.000Z</time>
      </trkpt>
      <trkpt lat="44.96049" lon="5.82324">
        <ele>1348</ele>
        <time>2000-01-01T03:02:21.000Z</time>
      </trkpt>
      <trkpt lat="44.96073" lon="5.8233">
        <ele>1348</ele>
        <time>2000-01-01T03:02:31.000Z</time>
      </trkpt>
      <trkpt lat="44.96085" lon="5.82339">
        <ele>1348.8</ele>
        <time>2000-01-01T03:02:41.000Z</time>
      </trkpt>
      <trkpt lat="44.96092" lon="5.82351">
        <ele>1349</ele>
        <time>2000-01-01T03:02:51.000Z</time>
      </trkpt>
      <trkpt lat="44.96109" lon="5.82375">
        <ele>1349</ele>
        <time>2000-01-01T03:03:01.000Z</time>
      </trkpt>
      <trkpt lat="44.96119" lon="5.82377">
        <ele>1351.7</ele>
        <time>2000-01-01T03:03:11.000Z</time>
      </trkpt>
      <trkpt lat="44.96129" lon="5.82374">
        <ele>1349</ele>
        <time>2000-01-01T03:03:21.000Z</time>
      </trkpt>
      <trkpt lat="44.96139" lon="5.82369">
        <ele>1351.2</ele>
        <time>2000-01-01T03:03:31.000Z</time>
      </trkpt>
      <trkpt lat="44.9615" lon="5.82361">
        <ele>1349</ele>
        <time>2000-01-01T03:03:41.000Z</time>
      </trkpt>
      <trkpt lat="44.96169" lon="5.82345">
        <ele>1350</ele>
        <time>2000-01-01T03:03:51.000Z</time>
      </trkpt>
      <trkpt lat="44.96211" lon="5.82322">
        <ele>1356</ele>
        <time>2000-01-01T03:04:01.000Z</time>
      </trkpt>
      <trkpt lat="44.96221" lon="5.82313">
        <ele>1358.5</ele>
        <time>2000-01-01T03:04:11.000Z</time>
      </trkpt>
      <trkpt lat="44.96232" lon="5.82307">
        <ele>1358</ele>
        <time>2000-01-01T03:04:21.000Z</time>
      </trkpt>
      <trkpt lat="44.96242" lon="5.82304">
        <ele>1362.1</ele>
        <time>2000-01-01T03:04:31.000Z</time>
      </trkpt>
      <trkpt lat="44.96251" lon="5.82292">
        <ele>1362</ele>
        <time>2000-01-01T03:04:41.000Z</time>
      </trkpt>
      <trkpt lat="44.96261" lon="5.8229">
        <ele>1364.1</ele>
        <time>2000-01-01T03:04:51.000Z</time>
      </trkpt>
      <trkpt lat="44.9627" lon="5.82296">
        <ele>1364</ele>
        <time>2000-01-01T03:05:01.000Z</time>
      </trkpt>
      <trkpt lat="44.9628" lon="5.823">
        <ele>1367.9</ele>
        <time>2000-01-01T03:05:11.000Z</time>
      </trkpt>
      <trkpt lat="44.9629" lon="5.82303">
        <ele>1368</ele>
        <time>2000-01-01T03:05:21.000Z</time>
      </trkpt>
      <trkpt lat="44.9632" lon="5.82317">
        <ele>1373</ele>
        <time>2000-01-01T03:05:31.000Z</time>
      </trkpt>
      <trkpt lat="44.96331" lon="5.82319">
        <ele>1375.7</ele>
        <time>2000-01-01T03:05:41.000Z</time>
      </trkpt>
      <trkpt lat="44.96343" lon="5.82319">
        <ele>1375</ele>
        <time>2000-01-01T03:05:51.000Z</time>
      </trkpt>
      <trkpt lat="44.96353" lon="5.82317">
        <ele>1376.4</ele>
        <time>2000-01-01T03:06:01.000Z</time>
      </trkpt>
      <trkpt lat="44.96363" lon="5.82313">
        <ele>1375</ele>
        <time>2000-01-01T03:06:11.000Z</time>
      </trkpt>
      <trkpt lat="44.96373" lon="5.82311">
        <ele>1375.9</ele>
        <time>2000-01-01T03:06:21.000Z</time>
      </trkpt>
      <trkpt lat="44.96383" lon="5.82316">
        <ele>1376</ele>
        <time>2000-01-01T03:06:31.000Z</time>
      </trkpt>
      <trkpt lat="44.96399" lon="5.82336">
        <ele>1379</ele>
        <time>2000-01-01T03:06:41.000Z</time>
      </trkpt>
      <trkpt lat="44.96412" lon="5.82358">
        <ele>1384</ele>
        <time>2000-01-01T03:06:51.000Z</time>
      </trkpt>
      <trkpt lat="44.96421" lon="5.82367">
        <ele>1388.5</ele>
        <time>2000-01-01T03:07:01.000Z</time>
      </trkpt>
      <trkpt lat="44.96431" lon="5.8237">
        <ele>1388</ele>
        <time>2000-01-01T03:07:11.000Z</time>
      </trkpt>
      <trkpt lat="44.96473" lon="5.82373">
        <ele>1396</ele>
        <time>2000-01-01T03:07:21.000Z</time>
      </trkpt>
      <trkpt lat="44.96484" lon="5.82375">
        <ele>1398.1</ele>
        <time>2000-01-01T03:07:31.000Z</time>
      </trkpt>
      <trkpt lat="44.96495" lon="5.82378">
        <ele>1398</ele>
        <time>2000-01-01T03:07:41.000Z</time>
      </trkpt>
      <trkpt lat="44.96514" lon="5.8239">
        <ele>1400</ele>
        <time>2000-01-01T03:07:51.000Z</time>
      </trkpt>
      <trkpt lat="44.96523" lon="5.82398">
        <ele>1404.7</ele>
        <time>2000-01-01T03:08:01.000Z</time>
      </trkpt>
      <trkpt lat="44.96539" lon="5.82416">
        <ele>1407</ele>
        <time>2000-01-01T03:08:11.000Z</time>
      </trkpt>
      <trkpt lat="44.96555" lon="5.82436">
        <ele>1410</ele>
        <time>2000-01-01T03:08:21.000Z</time>
      </trkpt>
      <trkpt lat="44.96573" lon="5.82465">
        <ele>1414</ele>
        <time>2000-01-01T03:08:31.000Z</time>
      </trkpt>
      <trkpt lat="44.96598" lon="5.82503">
        <ele>1416</ele>
        <time>2000-01-01T03:08:41.000Z</time>
      </trkpt>
      <trkpt lat="44.96607" lon="5.82514">
        <ele>1417.3</ele>
        <time>2000-01-01T03:08:51.000Z</time>
      </trkpt>
      <trkpt lat="44.96616" lon="5.82528">
        <ele>1418</ele>
        <time>2000-01-01T03:09:01.000Z</time>
      </trkpt>
      <trkpt lat="44.96625" lon="5.82539">
        <ele>1419.4</ele>
        <time>2000-01-01T03:09:11.000Z</time>
      </trkpt>
      <trkpt lat="44.96644" lon="5.82558">
        <ele>1419</ele>
        <time>2000-01-01T03:09:21.000Z</time>
      </trkpt>
      <trkpt lat="44.96654" lon="5.82565">
        <ele>1421.9</ele>
        <time>2000-01-01T03:09:31.000Z</time>
      </trkpt>
      <trkpt lat="44.96677" lon="5.82571">
        <ele>1421</ele>
        <time>2000-01-01T03:09:41.000Z</time>
      </trkpt>
      <trkpt lat="44.96688" lon="5.82571">
        <ele>1421.9</ele>
        <time>2000-01-01T03:09:51.000Z</time>
      </trkpt>
      <trkpt lat="44.96731" lon="5.82575">
        <ele>1422</ele>
        <time>2000-01-01T03:10:01.000Z</time>
      </trkpt>
      <trkpt lat="44.96741" lon="5.82575">
        <ele>1423.4</ele>
        <time>2000-01-01T03:10:11.000Z</time>
      </trkpt>
      <trkpt lat="44.96751" lon="5.82577">
        <ele>1422</ele>
        <time>2000-01-01T03:10:21.000Z</time>
      </trkpt>
      <trkpt lat="44.96761" lon="5.82582">
        <ele>1424.7</ele>
        <time>2000-01-01T03:10:31.000Z</time>
      </trkpt>
      <trkpt lat="44.96772" lon="5.82584">
        <ele>1423</ele>
        <time>2000-01-01T03:10:41.000Z</time>
      </trkpt>
      <trkpt lat="44.96783" lon="5.82587">
        <ele>1426.5</ele>
        <time>2000-01-01T03:10:51.000Z</time>
      </trkpt>
      <trkpt lat="44.96794" lon="5.82585">
        <ele>1425</ele>
        <time>2000-01-01T03:11:01.000Z</time>
      </trkpt>
      <trkpt lat="44.96804" lon="5.82578">
        <ele>1426.9</ele>
        <time>2000-01-01T03:11:11.000Z</time>
      </trkpt>
      <trkpt lat="44.96822" lon="5.82559">
        <ele>1426</ele>
        <time>2000-01-01T03:11:21.000Z</time>
      </trkpt>
      <trkpt lat="44.96841" lon="5.82545">
        <ele>1430</ele>
        <time>2000-01-01T03:11:31.000Z</time>
      </trkpt>
      <trkpt lat="44.96851" lon="5.82541">
        <ele>1434.1</ele>
        <time>2000-01-01T03:11:41.000Z</time>
      </trkpt>
      <trkpt lat="44.96862" lon="5.82539">
        <ele>1435</ele>
        <time>2000-01-01T03:11:51.000Z</time>
      </trkpt>
      <trkpt lat="44.96894" lon="5.82539">
        <ele>1440</ele>
        <time>2000-01-01T03:12:01.000Z</time>
      </trkpt>
      <trkpt lat="44.96905" lon="5.82541">
        <ele>1443.9</ele>
        <time>2000-01-01T03:12:11.000Z</time>
      </trkpt>
      <trkpt lat="44.96926" lon="5.82547">
        <ele>1445</ele>
        <time>2000-01-01T03:12:21.000Z</time>
      </trkpt>
      <trkpt lat="44.96938" lon="5.82548">
        <ele>1448.6</ele>
        <time>2000-01-01T03:12:31.000Z</time>
      </trkpt>
      <trkpt lat="44.96949" lon="5.8255">
        <ele>1447</ele>
        <time>2000-01-01T03:12:41.000Z</time>
      </trkpt>
      <trkpt lat="44.96959" lon="5.82553">
        <ele>1451.9</ele>
        <time>2000-01-01T03:12:51.000Z</time>
      </trkpt>
      <trkpt lat="44.9698" lon="5.82543">
        <ele>1451</ele>
        <time>2000-01-01T03:13:01.000Z</time>
      </trkpt>
      <trkpt lat="44.97001" lon="5.82536">
        <ele>1457</ele>
        <time>2000-01-01T03:13:11.000Z</time>
      </trkpt>
      <trkpt lat="44.97012" lon="5.82534">
        <ele>1460.6</ele>
        <time>2000-01-01T03:13:21.000Z</time>
      </trkpt>
      <trkpt lat="44.97022" lon="5.82534">
        <ele>1461</ele>
        <time>2000-01-01T03:13:31.000Z</time>
      </trkpt>
      <trkpt lat="44.97043" lon="5.82531">
        <ele>1465</ele>
        <time>2000-01-01T03:13:41.000Z</time>
      </trkpt>
      <trkpt lat="44.97081" lon="5.8253">
        <ele>1472</ele>
        <time>2000-01-01T03:13:51.000Z</time>
      </trkpt>
      <trkpt lat="44.97099" lon="5.82533">
        <ele>1477</ele>
        <time>2000-01-01T03:14:01.000Z</time>
      </trkpt>
      <trkpt lat="44.97107" lon="5.82536">
        <ele>1477</ele>
        <time>2000-01-01T03:14:11.000Z</time>
      </trkpt>
      <trkpt lat="44.97118" lon="5.82539">
        <ele>1480.8</ele>
        <time>2000-01-01T03:14:21.000Z</time>
      </trkpt>
      <trkpt lat="44.97138" lon="5.82548">
        <ele>1483</ele>
        <time>2000-01-01T03:14:31.000Z</time>
      </trkpt>
      <trkpt lat="44.97179" lon="5.82562">
        <ele>1490</ele>
        <time>2000-01-01T03:14:41.000Z</time>
      </trkpt>
      <trkpt lat="44.972" lon="5.8257">
        <ele>1494</ele>
        <time>2000-01-01T03:14:51.000Z</time>
      </trkpt>
      <trkpt lat="44.9721" lon="5.82573">
        <ele>1496.3</ele>
        <time>2000-01-01T03:15:01.000Z</time>
      </trkpt>
      <trkpt lat="44.97235" lon="5.82571">
        <ele>1497</ele>
        <time>2000-01-01T03:15:11.000Z</time>
      </trkpt>
      <trkpt lat="44.97252" lon="5.82578">
        <ele>1497.9</ele>
        <time>2000-01-01T03:15:21.000Z</time>
      </trkpt>
      <trkpt lat="44.97264" lon="5.82576">
        <ele>1497</ele>
        <time>2000-01-01T03:15:31.000Z</time>
      </trkpt>
      <trkpt lat="44.97283" lon="5.8258">
        <ele>1495</ele>
        <time>2000-01-01T03:15:41.000Z</time>
      </trkpt>
      <trkpt lat="44.97296" lon="5.82586">
        <ele>1492.7</ele>
        <time>2000-01-01T03:15:51.000Z</time>
      </trkpt>
      <trkpt lat="44.97316" lon="5.82599">
        <ele>1489</ele>
        <time>2000-01-01T03:16:01.000Z</time>
      </trkpt>
      <trkpt lat="44.97326" lon="5.82613">
        <ele>1486.7</ele>
        <time>2000-01-01T03:16:11.000Z</time>
      </trkpt>
      <trkpt lat="44.97335" lon="5.82628">
        <ele>1487</ele>
        <time>2000-01-01T03:16:21.000Z</time>
      </trkpt>
      <trkpt lat="44.97352" lon="5.82649">
        <ele>1482</ele>
        <time>2000-01-01T03:16:31.000Z</time>
      </trkpt>
      <trkpt lat="44.9737" lon="5.82669">
        <ele>1482</ele>
        <time>2000-01-01T03:16:41.000Z</time>
      </trkpt>
      <trkpt lat="44.9738" lon="5.82679">
        <ele>1479.8</ele>
        <time>2000-01-01T03:16:51.000Z</time>
      </trkpt>
      <trkpt lat="44.97388" lon="5.8269">
        <ele>1479</ele>
        <time>2000-01-01T03:17:01.000Z</time>
      </trkpt>
      <trkpt lat="44.97413" lon="5.82717">
        <ele>1478</ele>
        <time>2000-01-01T03:17:11.000Z</time>
      </trkpt>
      <trkpt lat="44.97421" lon="5.82727">
        <ele>1477.2</ele>
        <time>2000-01-01T03:17:21.000Z</time>
      </trkpt>
      <trkpt lat="44.9743" lon="5.82734">
        <ele>1478</ele>
        <time>2000-01-01T03:17:31.000Z</time>
      </trkpt>
      <trkpt lat="44.97438" lon="5.82743">
        <ele>1477.4</ele>
        <time>2000-01-01T03:17:41.000Z</time>
      </trkpt>
      <trkpt lat="44.97455" lon="5.82757">
        <ele>1477</ele>
        <time>2000-01-01T03:17:51.000Z</time>
      </trkpt>
      <trkpt lat="44.97472" lon="5.82774">
        <ele>1476</ele>
        <time>2000-01-01T03:18:01.000Z</time>
      </trkpt>
      <trkpt lat="44.97481" lon="5.82782">
        <ele>1473.8</ele>
        <time>2000-01-01T03:18:11.000Z</time>
      </trkpt>
      <trkpt lat="44.97499" lon="5.82796">
        <ele>1470</ele>
        <time>2000-01-01T03:18:21.000Z</time>
      </trkpt>
      <trkpt lat="44.97507" lon="5.82804">
        <ele>1467.4</ele>
        <time>2000-01-01T03:18:31.000Z</time>
      </trkpt>
      <trkpt lat="44.97514" lon="5.82809">
        <ele>1465.2</ele>
        <time>2000-01-01T03:18:41.000Z</time>
      </trkpt>
      <trkpt lat="44.97528" lon="5.82822">
        <ele>1467</ele>
        <time>2000-01-01T03:18:51.000Z</time>
      </trkpt>
      <trkpt lat="44.97536" lon="5.82831">
        <ele>1460.8</ele>
        <time>2000-01-01T03:19:01.000Z</time>
      </trkpt>
      <trkpt lat="44.9755" lon="5.82851">
        <ele>1465</ele>
        <time>2000-01-01T03:19:11.000Z</time>
      </trkpt>
      <trkpt lat="44.97574" lon="5.82882">
        <ele>1456</ele>
        <time>2000-01-01T03:19:21.000Z</time>
      </trkpt>
      <trkpt lat="44.97597" lon="5.82928">
        <ele>1457</ele>
        <time>2000-01-01T03:19:31.000Z</time>
      </trkpt>
      <trkpt lat="44.97603" lon="5.82939">
        <ele>1453.7</ele>
        <time>2000-01-01T03:19:41.000Z</time>
      </trkpt>
      <trkpt lat="44.97608" lon="5.82952">
        <ele>1459</ele>
        <time>2000-01-01T03:19:51.000Z</time>
      </trkpt>
      <trkpt lat="44.97616" lon="5.82976">
        <ele>1457.7</ele>
        <time>2000-01-01T03:20:01.000Z</time>
      </trkpt>
      <trkpt lat="44.97631" lon="5.83026">
        <ele>1463</ele>
        <time>2000-01-01T03:20:11.000Z</time>
      </trkpt>
      <trkpt lat="44.97637" lon="5.83039">
        <ele>1464.6</ele>
        <time>2000-01-01T03:20:21.000Z</time>
      </trkpt>
      <trkpt lat="44.97645" lon="5.83051">
        <ele>1461</ele>
        <time>2000-01-01T03:20:31.000Z</time>
      </trkpt>
      <trkpt lat="44.97653" lon="5.83061">
        <ele>1464</ele>
        <time>2000-01-01T03:20:41.000Z</time>
      </trkpt>
      <trkpt lat="44.97672" lon="5.83075">
        <ele>1460</ele>
        <time>2000-01-01T03:20:51.000Z</time>
      </trkpt>
      <trkpt lat="44.97681" lon="5.83083">
        <ele>1458.7</ele>
        <time>2000-01-01T03:21:01.000Z</time>
      </trkpt>
      <trkpt lat="44.97689" lon="5.83094">
        <ele>1460</ele>
        <time>2000-01-01T03:21:11.000Z</time>
      </trkpt>
      <trkpt lat="44.97695" lon="5.83105">
        <ele>1459</ele>
        <time>2000-01-01T03:21:21.000Z</time>
      </trkpt>
      <trkpt lat="44.977" lon="5.83118">
        <ele>1462</ele>
        <time>2000-01-01T03:21:31.000Z</time>
      </trkpt>
      <trkpt lat="44.97706" lon="5.8313">
        <ele>1461.4</ele>
        <time>2000-01-01T03:21:41.000Z</time>
      </trkpt>
      <trkpt lat="44.97711" lon="5.83143">
        <ele>1462</ele>
        <time>2000-01-01T03:21:51.000Z</time>
      </trkpt>
      <trkpt lat="44.97718" lon="5.83155">
        <ele>1464</ele>
        <time>2000-01-01T03:22:01.000Z</time>
      </trkpt>
      <trkpt lat="44.9773" lon="5.83182">
        <ele>1470</ele>
        <time>2000-01-01T03:22:11.000Z</time>
      </trkpt>
      <trkpt lat="44.97737" lon="5.83194">
        <ele>1468.6</ele>
        <time>2000-01-01T03:22:21.000Z</time>
      </trkpt>
      <trkpt lat="44.9774" lon="5.83209">
        <ele>1471</ele>
        <time>2000-01-01T03:22:31.000Z</time>
      </trkpt>
      <trkpt lat="44.97742" lon="5.83223">
        <ele>1474</ele>
        <time>2000-01-01T03:22:41.000Z</time>
      </trkpt>
      <trkpt lat="44.97741" lon="5.83254">
        <ele>1480</ele>
        <time>2000-01-01T03:22:51.000Z</time>
      </trkpt>
      <trkpt lat="44.97743" lon="5.83269">
        <ele>1484.3</ele>
        <time>2000-01-01T03:23:01.000Z</time>
      </trkpt>
      <trkpt lat="44.9776" lon="5.83306">
        <ele>1490</ele>
        <time>2000-01-01T03:23:11.000Z</time>
      </trkpt>
      <trkpt lat="44.97777" lon="5.83322">
        <ele>1490</ele>
        <time>2000-01-01T03:23:21.000Z</time>
      </trkpt>
      <trkpt lat="44.97794" lon="5.8334">
        <ele>1491</ele>
        <time>2000-01-01T03:23:31.000Z</time>
      </trkpt>
      <trkpt lat="44.97814" lon="5.83353">
        <ele>1492</ele>
        <time>2000-01-01T03:23:41.000Z</time>
      </trkpt>
      <trkpt lat="44.97825" lon="5.83356">
        <ele>1494.7</ele>
        <time>2000-01-01T03:23:51.000Z</time>
      </trkpt>
      <trkpt lat="44.97847" lon="5.83354">
        <ele>1492</ele>
        <time>2000-01-01T03:24:01.000Z</time>
      </trkpt>
      <trkpt lat="44.97857" lon="5.83352">
        <ele>1499.6</ele>
        <time>2000-01-01T03:24:11.000Z</time>
      </trkpt>
      <trkpt lat="44.97866" lon="5.83348">
        <ele>1497</ele>
        <time>2000-01-01T03:24:21.000Z</time>
      </trkpt>
      <trkpt lat="44.97902" lon="5.83321">
        <ele>1503</ele>
        <time>2000-01-01T03:24:31.000Z</time>
      </trkpt>
      <trkpt lat="44.97913" lon="5.83318">
        <ele>1505.4</ele>
        <time>2000-01-01T03:24:41.000Z</time>
      </trkpt>
      <trkpt lat="44.97935" lon="5.83314">
        <ele>1505</ele>
        <time>2000-01-01T03:24:51.000Z</time>
      </trkpt>
      <trkpt lat="44.97957" lon="5.83313">
        <ele>1508</ele>
        <time>2000-01-01T03:25:01.000Z</time>
      </trkpt>
      <trkpt lat="44.97969" lon="5.83314">
        <ele>1512.4</ele>
        <time>2000-01-01T03:25:11.000Z</time>
      </trkpt>
      <trkpt lat="44.97986" lon="5.83317">
        <ele>1512</ele>
        <time>2000-01-01T03:25:21.000Z</time>
      </trkpt>
      <trkpt lat="44.97993" lon="5.83319">
        <ele>1518.4</ele>
        <time>2000-01-01T03:25:31.000Z</time>
      </trkpt>
      <trkpt lat="44.98002" lon="5.83323">
        <ele>1521.9</ele>
        <time>2000-01-01T03:25:41.000Z</time>
      </trkpt>
      <trkpt lat="44.98012" lon="5.83324">
        <ele>1521</ele>
        <time>2000-01-01T03:25:51.000Z</time>
      </trkpt>
      <trkpt lat="44.98033" lon="5.83323">
        <ele>1521</ele>
        <time>2000-01-01T03:26:01.000Z</time>
      </trkpt>
      <trkpt lat="44.98044" lon="5.83324">
        <ele>1528.1</ele>
        <time>2000-01-01T03:26:11.000Z</time>
      </trkpt>
      <trkpt lat="44.98053" lon="5.8332">
        <ele>1521</ele>
        <time>2000-01-01T03:26:21.000Z</time>
      </trkpt>
      <trkpt lat="44.98064" lon="5.83317">
        <ele>1527.2</ele>
        <time>2000-01-01T03:26:31.000Z</time>
      </trkpt>
      <trkpt lat="44.98074" lon="5.83311">
        <ele>1521</ele>
        <time>2000-01-01T03:26:41.000Z</time>
      </trkpt>
      <trkpt lat="44.98084" lon="5.83307">
        <ele>1525.8</ele>
        <time>2000-01-01T03:26:51.000Z</time>
      </trkpt>
      <trkpt lat="44.98094" lon="5.83301">
        <ele>1522</ele>
        <time>2000-01-01T03:27:01.000Z</time>
      </trkpt>
      <trkpt lat="44.98105" lon="5.83299">
        <ele>1525.1</ele>
        <time>2000-01-01T03:27:11.000Z</time>
      </trkpt>
      <trkpt lat="44.98116" lon="5.833">
        <ele>1522</ele>
        <time>2000-01-01T03:27:21.000Z</time>
      </trkpt>
      <trkpt lat="44.98127" lon="5.83305">
        <ele>1531.1</ele>
        <time>2000-01-01T03:27:31.000Z</time>
      </trkpt>
      <trkpt lat="44.98138" lon="5.83307">
        <ele>1529</ele>
        <time>2000-01-01T03:27:41.000Z</time>
      </trkpt>
      <trkpt lat="44.98159" lon="5.83307">
        <ele>1531</ele>
        <time>2000-01-01T03:27:51.000Z</time>
      </trkpt>
      <trkpt lat="44.98169" lon="5.83308">
        <ele>1537</ele>
        <time>2000-01-01T03:28:01.000Z</time>
      </trkpt>
      <trkpt lat="44.9818" lon="5.83307">
        <ele>1533</ele>
        <time>2000-01-01T03:28:11.000Z</time>
      </trkpt>
      <trkpt lat="44.98192" lon="5.83308">
        <ele>1538.7</ele>
        <time>2000-01-01T03:28:21.000Z</time>
      </trkpt>
      <trkpt lat="44.98204" lon="5.83311">
        <ele>1540</ele>
        <time>2000-01-01T03:28:31.000Z</time>
      </trkpt>
      <trkpt lat="44.98213" lon="5.83315">
        <ele>1543.2</ele>
        <time>2000-01-01T03:28:41.000Z</time>
      </trkpt>
      <trkpt lat="44.98236" lon="5.83319">
        <ele>1543</ele>
        <time>2000-01-01T03:28:51.000Z</time>
      </trkpt>
      <trkpt lat="44.98256" lon="5.83315">
        <ele>1543</ele>
        <time>2000-01-01T03:29:01.000Z</time>
      </trkpt>
      <trkpt lat="44.98275" lon="5.83297">
        <ele>1543</ele>
        <time>2000-01-01T03:29:11.000Z</time>
      </trkpt>
      <trkpt lat="44.98284" lon="5.8329">
        <ele>1545.1</ele>
        <time>2000-01-01T03:29:21.000Z</time>
      </trkpt>
      <trkpt lat="44.98293" lon="5.83293">
        <ele>1544</ele>
        <time>2000-01-01T03:29:31.000Z</time>
      </trkpt>
      <trkpt lat="44.983" lon="5.83299">
        <ele>1548.6</ele>
        <time>2000-01-01T03:29:41.000Z</time>
      </trkpt>
      <trkpt lat="44.98311" lon="5.83305">
        <ele>1551</ele>
        <time>2000-01-01T03:29:51.000Z</time>
      </trkpt>
      <trkpt lat="44.98316" lon="5.83317">
        <ele>1556.9</ele>
        <time>2000-01-01T03:30:01.000Z</time>
      </trkpt>
      <trkpt lat="44.9832" lon="5.83308">
        <ele>1558.5</ele>
        <time>2000-01-01T03:30:11.000Z</time>
      </trkpt>
      <trkpt lat="44.98321" lon="5.83283">
        <ele>1558</ele>
        <time>2000-01-01T03:30:21.000Z</time>
      </trkpt>
      <trkpt lat="44.98318" lon="5.83274">
        <ele>1558.6</ele>
        <time>2000-01-01T03:30:31.000Z</time>
      </trkpt>
      <trkpt lat="44.98322" lon="5.8326">
        <ele>1563.7</ele>
        <time>2000-01-01T03:30:41.000Z</time>
      </trkpt>
      <trkpt lat="44.98331" lon="5.83265">
        <ele>1567</ele>
        <time>2000-01-01T03:30:51.000Z</time>
      </trkpt>
      <trkpt lat="44.9834" lon="5.83275">
        <ele>1574.4</ele>
        <time>2000-01-01T03:31:01.000Z</time>
      </trkpt>
      <trkpt lat="44.98347" lon="5.83287">
        <ele>1574</ele>
        <time>2000-01-01T03:31:11.000Z</time>
      </trkpt>
      <trkpt lat="44.98352" lon="5.83299">
        <ele>1581.6</ele>
        <time>2000-01-01T03:31:21.000Z</time>
      </trkpt>
      <trkpt lat="44.98357" lon="5.83309">
        <ele>1584.8</ele>
        <time>2000-01-01T03:31:31.000Z</time>
      </trkpt>
      <trkpt lat="44.9836" lon="5.83296">
        <ele>1580</ele>
        <time>2000-01-01T03:31:41.000Z</time>
      </trkpt>
      <trkpt lat="44.98361" lon="5.83281">
        <ele>1589.7</ele>
        <time>2000-01-01T03:31:51.000Z</time>
      </trkpt>
      <trkpt lat="44.98359" lon="5.83265">
        <ele>1583</ele>
        <time>2000-01-01T03:32:01.000Z</time>
      </trkpt>
      <trkpt lat="44.98377" lon="5.83302">
        <ele>1596</ele>
        <time>2000-01-01T03:32:11.000Z</time>
      </trkpt>
      <trkpt lat="44.98382" lon="5.83316">
        <ele>1602.4</ele>
        <time>2000-01-01T03:32:21.000Z</time>
      </trkpt>
      <trkpt lat="44.98389" lon="5.83307">
        <ele>1602</ele>
        <time>2000-01-01T03:32:31.000Z</time>
      </trkpt>
      <trkpt lat="44.98388" lon="5.83295">
        <ele>1608.1</ele>
        <time>2000-01-01T03:32:41.000Z</time>
      </trkpt>
      <trkpt lat="44.98398" lon="5.83298">
        <ele>1614.8</ele>
        <time>2000-01-01T03:32:51.000Z</time>
      </trkpt>
      <trkpt lat="44.98404" lon="5.83308">
        <ele>1616</ele>
        <time>2000-01-01T03:33:01.000Z</time>
      </trkpt>
      <trkpt lat="44.9841" lon="5.83322">
        <ele>1621.3</ele>
        <time>2000-01-01T03:33:11.000Z</time>
      </trkpt>
      <trkpt lat="44.98423" lon="5.83342">
        <ele>1625</ele>
        <time>2000-01-01T03:33:21.000Z</time>
      </trkpt>
      <trkpt lat="44.98432" lon="5.83349">
        <ele>1633.3</ele>
        <time>2000-01-01T03:33:31.000Z</time>
      </trkpt>
      <trkpt lat="44.98424" lon="5.8334">
        <ele>1626</ele>
        <time>2000-01-01T03:33:41.000Z</time>
      </trkpt>
      <trkpt lat="44.98424" lon="5.83324">
        <ele>1630.2</ele>
        <time>2000-01-01T03:33:51.000Z</time>
      </trkpt>
      <trkpt lat="44.98433" lon="5.83317">
        <ele>1635</ele>
        <time>2000-01-01T03:34:01.000Z</time>
      </trkpt>
      <trkpt lat="44.98449" lon="5.83336">
        <ele>1639</ele>
        <time>2000-01-01T03:34:11.000Z</time>
      </trkpt>
      <trkpt lat="44.98457" lon="5.83343">
        <ele>1649</ele>
        <time>2000-01-01T03:34:21.000Z</time>
      </trkpt>
      <trkpt lat="44.98465" lon="5.83352">
        <ele>1643</ele>
        <time>2000-01-01T03:34:31.000Z</time>
      </trkpt>
      <trkpt lat="44.98465" lon="5.83367">
        <ele>1652</ele>
        <time>2000-01-01T03:34:41.000Z</time>
      </trkpt>
      <trkpt lat="44.98461" lon="5.83382">
        <ele>1648</ele>
        <time>2000-01-01T03:34:51.000Z</time>
      </trkpt>
      <trkpt lat="44.98462" lon="5.83397">
        <ele>1646.5</ele>
        <time>2000-01-01T03:35:01.000Z</time>
      </trkpt>
      <trkpt lat="44.9848" lon="5.83408">
        <ele>1650</ele>
        <time>2000-01-01T03:35:11.000Z</time>
      </trkpt>
      <trkpt lat="44.98499" lon="5.83414">
        <ele>1659</ele>
        <time>2000-01-01T03:35:21.000Z</time>
      </trkpt>
      <trkpt lat="44.98521" lon="5.8344">
        <ele>1663</ele>
        <time>2000-01-01T03:35:31.000Z</time>
      </trkpt>
      <trkpt lat="44.98522" lon="5.83455">
        <ele>1668.8</ele>
        <time>2000-01-01T03:35:41.000Z</time>
      </trkpt>
      <trkpt lat="44.98521" lon="5.8347">
        <ele>1667</ele>
        <time>2000-01-01T03:35:51.000Z</time>
      </trkpt>
      <trkpt lat="44.98521" lon="5.83481">
        <ele>1669</ele>
        <time>2000-01-01T03:36:01.000Z</time>
      </trkpt>
      <trkpt lat="44.98525" lon="5.83494">
        <ele>1670.7</ele>
        <time>2000-01-01T03:36:11.000Z</time>
      </trkpt>
      <trkpt lat="44.98531" lon="5.83503">
        <ele>1673</ele>
        <time>2000-01-01T03:36:21.000Z</time>
      </trkpt>
      <trkpt lat="44.98529" lon="5.83517">
        <ele>1675.7</ele>
        <time>2000-01-01T03:36:31.000Z</time>
      </trkpt>
      <trkpt lat="44.98526" lon="5.83532">
        <ele>1673</ele>
        <time>2000-01-01T03:36:41.000Z</time>
      </trkpt>
      <trkpt lat="44.98525" lon="5.83546">
        <ele>1678.4</ele>
        <time>2000-01-01T03:36:51.000Z</time>
      </trkpt>
      <trkpt lat="44.98525" lon="5.83561">
        <ele>1677</ele>
        <time>2000-01-01T03:37:01.000Z</time>
      </trkpt>
      <trkpt lat="44.98529" lon="5.83575">
        <ele>1682.7</ele>
        <time>2000-01-01T03:37:11.000Z</time>
      </trkpt>
      <trkpt lat="44.9853" lon="5.8359">
        <ele>1677</ele>
        <time>2000-01-01T03:37:21.000Z</time>
      </trkpt>
      <trkpt lat="44.98533" lon="5.83605">
        <ele>1686</ele>
        <time>2000-01-01T03:37:31.000Z</time>
      </trkpt>
      <trkpt lat="44.98537" lon="5.83618">
        <ele>1684</ele>
        <time>2000-01-01T03:37:41.000Z</time>
      </trkpt>
      <trkpt lat="44.98544" lon="5.8363">
        <ele>1693.6</ele>
        <time>2000-01-01T03:37:51.000Z</time>
      </trkpt>
      <trkpt lat="44.98546" lon="5.83644">
        <ele>1689</ele>
        <time>2000-01-01T03:38:01.000Z</time>
      </trkpt>
      <trkpt lat="44.98546" lon="5.83657">
        <ele>1695.4</ele>
        <time>2000-01-01T03:38:11.000Z</time>
      </trkpt>
      <trkpt lat="44.98554" lon="5.83677">
        <ele>1699</ele>
        <time>2000-01-01T03:38:21.000Z</time>
      </trkpt>
      <trkpt lat="44.98559" lon="5.83688">
        <ele>1702.3</ele>
        <time>2000-01-01T03:38:31.000Z</time>
      </trkpt>
      <trkpt lat="44.98565" lon="5.83679">
        <ele>1706.3</ele>
        <time>2000-01-01T03:38:41.000Z</time>
      </trkpt>
      <trkpt lat="44.98569" lon="5.83664">
        <ele>1704</ele>
        <time>2000-01-01T03:38:51.000Z</time>
      </trkpt>
      <trkpt lat="44.98575" lon="5.83672">
        <ele>1712.7</ele>
        <time>2000-01-01T03:39:01.000Z</time>
      </trkpt>
      <trkpt lat="44.98578" lon="5.83688">
        <ele>1709</ele>
        <time>2000-01-01T03:39:11.000Z</time>
      </trkpt>
      <trkpt lat="44.98582" lon="5.837">
        <ele>1715</ele>
        <time>2000-01-01T03:39:21.000Z</time>
      </trkpt>
      <trkpt lat="44.98587" lon="5.83688">
        <ele>1717</ele>
        <time>2000-01-01T03:39:31.000Z</time>
      </trkpt>
      <trkpt lat="44.98591" lon="5.83673">
        <ele>1722.7</ele>
        <time>2000-01-01T03:39:41.000Z</time>
      </trkpt>
      <trkpt lat="44.98594" lon="5.83688">
        <ele>1722</ele>
        <time>2000-01-01T03:39:51.000Z</time>
      </trkpt>
      <trkpt lat="44.98601" lon="5.83699">
        <ele>1726.8</ele>
        <time>2000-01-01T03:40:01.000Z</time>
      </trkpt>
      <trkpt lat="44.98608" lon="5.83706">
        <ele>1729.6</ele>
        <time>2000-01-01T03:40:11.000Z</time>
      </trkpt>
      <trkpt lat="44.98614" lon="5.83709">
        <ele>1733</ele>
        <time>2000-01-01T03:40:21.000Z</time>
      </trkpt>
      <trkpt lat="44.98619" lon="5.83715">
        <ele>1734.5</ele>
        <time>2000-01-01T03:40:31.000Z</time>
      </trkpt>
      <trkpt lat="44.98618" lon="5.83731">
        <ele>1732.1</ele>
        <time>2000-01-01T03:40:41.000Z</time>
      </trkpt>
      <trkpt lat="44.98629" lon="5.83745">
        <ele>1734</ele>
        <time>2000-01-01T03:40:51.000Z</time>
      </trkpt>
      <trkpt lat="44.98639" lon="5.8375">
        <ele>1744.1</ele>
        <time>2000-01-01T03:41:01.000Z</time>
      </trkpt>
      <trkpt lat="44.98648" lon="5.83758">
        <ele>1745</ele>
        <time>2000-01-01T03:41:11.000Z</time>
      </trkpt>
      <trkpt lat="44.98655" lon="5.83771">
        <ele>1747.5</ele>
        <time>2000-01-01T03:41:21.000Z</time>
      </trkpt>
      <trkpt lat="44.98669" lon="5.83791">
        <ele>1744</ele>
        <time>2000-01-01T03:41:31.000Z</time>
      </trkpt>
      <trkpt lat="44.98673" lon="5.83795">
        <ele>1750.9</ele>
        <time>2000-01-01T03:41:41.000Z</time>
      </trkpt>
      <trkpt lat="44.98678" lon="5.83811">
        <ele>1749.8</ele>
        <time>2000-01-01T03:41:51.000Z</time>
      </trkpt>
      <trkpt lat="44.9868" lon="5.83825">
        <ele>1744</ele>
        <time>2000-01-01T03:42:01.000Z</time>
      </trkpt>
      <trkpt lat="44.98684" lon="5.83838">
        <ele>1749.8</ele>
        <time>2000-01-01T03:42:11.000Z</time>
      </trkpt>
      <trkpt lat="44.98685" lon="5.8385">
        <ele>1750.8</ele>
        <time>2000-01-01T03:42:21.000Z</time>
      </trkpt>
      <trkpt lat="44.98688" lon="5.83856">
        <ele>1746</ele>
        <time>2000-01-01T03:42:31.000Z</time>
      </trkpt>
      <trkpt lat="44.98683" lon="5.8387">
        <ele>1753.5</ele>
        <time>2000-01-01T03:42:41.000Z</time>
      </trkpt>
      <trkpt lat="44.98676" lon="5.83882">
        <ele>1751</ele>
        <time>2000-01-01T03:42:51.000Z</time>
      </trkpt>
      <trkpt lat="44.98673" lon="5.83895">
        <ele>1757.2</ele>
        <time>2000-01-01T03:43:01.000Z</time>
      </trkpt>
      <trkpt lat="44.98676" lon="5.83909">
        <ele>1754</ele>
        <time>2000-01-01T03:43:11.000Z</time>
      </trkpt>
      <trkpt lat="44.9868" lon="5.8394">
        <ele>1758</ele>
        <time>2000-01-01T03:43:21.000Z</time>
      </trkpt>
      <trkpt lat="44.98681" lon="5.83955">
        <ele>1767.6</ele>
        <time>2000-01-01T03:43:31.000Z</time>
      </trkpt>
      <trkpt lat="44.98683" lon="5.83971">
        <ele>1768</ele>
        <time>2000-01-01T03:43:41.000Z</time>
      </trkpt>
      <trkpt lat="44.98684" lon="5.83987">
        <ele>1774.8</ele>
        <time>2000-01-01T03:43:51.000Z</time>
      </trkpt>
      <trkpt lat="44.98678" lon="5.84015">
        <ele>1770</ele>
        <time>2000-01-01T03:44:01.000Z</time>
      </trkpt>
      <trkpt lat="44.98694" lon="5.83995">
        <ele>1778</ele>
        <time>2000-01-01T03:44:11.000Z</time>
      </trkpt>
      <trkpt lat="44.98696" lon="5.8398">
        <ele>1781.7</ele>
        <time>2000-01-01T03:44:21.000Z</time>
      </trkpt>
      <trkpt lat="44.98702" lon="5.83968">
        <ele>1781</ele>
        <time>2000-01-01T03:44:31.000Z</time>
      </trkpt>
      <trkpt lat="44.98711" lon="5.83941">
        <ele>1784</ele>
        <time>2000-01-01T03:44:41.000Z</time>
      </trkpt>
      <trkpt lat="44.98715" lon="5.83926">
        <ele>1785.3</ele>
        <time>2000-01-01T03:44:51.000Z</time>
      </trkpt>
      <trkpt lat="44.98721" lon="5.83915">
        <ele>1784</ele>
        <time>2000-01-01T03:45:01.000Z</time>
      </trkpt>
      <trkpt lat="44.98729" lon="5.83905">
        <ele>1789.4</ele>
        <time>2000-01-01T03:45:11.000Z</time>
      </trkpt>
      <trkpt lat="44.98732" lon="5.83919">
        <ele>1792</ele>
        <time>2000-01-01T03:45:21.000Z</time>
      </trkpt>
      <trkpt lat="44.9873" lon="5.83934">
        <ele>1796.2</ele>
        <time>2000-01-01T03:45:31.000Z</time>
      </trkpt>
      <trkpt lat="44.98734" lon="5.83947">
        <ele>1798</ele>
        <time>2000-01-01T03:45:41.000Z</time>
      </trkpt>
      <trkpt lat="44.98735" lon="5.83961">
        <ele>1803.9</ele>
        <time>2000-01-01T03:45:51.000Z</time>
      </trkpt>
      <trkpt lat="44.98734" lon="5.83972">
        <ele>1805</ele>
        <time>2000-01-01T03:46:01.000Z</time>
      </trkpt>
      <trkpt lat="44.98735" lon="5.83988">
        <ele>1804</ele>
        <time>2000-01-01T03:46:11.000Z</time>
      </trkpt>
      <trkpt lat="44.98734" lon="5.84">
        <ele>1810.2</ele>
        <time>2000-01-01T03:46:21.000Z</time>
      </trkpt>
      <trkpt lat="44.9873" lon="5.84014">
        <ele>1805</ele>
        <time>2000-01-01T03:46:31.000Z</time>
      </trkpt>
      <trkpt lat="44.9873" lon="5.84058">
        <ele>1809</ele>
        <time>2000-01-01T03:46:41.000Z</time>
      </trkpt>
      <trkpt lat="44.98732" lon="5.84073">
        <ele>1823.9</ele>
        <time>2000-01-01T03:46:51.000Z</time>
      </trkpt>
      <trkpt lat="44.98725" lon="5.84085">
        <ele>1818</ele>
        <time>2000-01-01T03:47:01.000Z</time>
      </trkpt>
      <trkpt lat="44.98718" lon="5.84095">
        <ele>1822.6</ele>
        <time>2000-01-01T03:47:11.000Z</time>
      </trkpt>
      <trkpt lat="44.98713" lon="5.84109">
        <ele>1822</ele>
        <time>2000-01-01T03:47:21.000Z</time>
      </trkpt>
      <trkpt lat="44.98718" lon="5.8412">
        <ele>1826.9</ele>
        <time>2000-01-01T03:47:31.000Z</time>
      </trkpt>
      <trkpt lat="44.98737" lon="5.84139">
        <ele>1835</ele>
        <time>2000-01-01T03:47:41.000Z</time>
      </trkpt>
      <trkpt lat="44.98736" lon="5.84126">
        <ele>1837.5</ele>
        <time>2000-01-01T03:47:51.000Z</time>
      </trkpt>
      <trkpt lat="44.98742" lon="5.84113">
        <ele>1835</ele>
        <time>2000-01-01T03:48:01.000Z</time>
      </trkpt>
      <trkpt lat="44.98751" lon="5.84108">
        <ele>1843.6</ele>
        <time>2000-01-01T03:48:11.000Z</time>
      </trkpt>
      <trkpt lat="44.9876" lon="5.841">
        <ele>1835</ele>
        <time>2000-01-01T03:48:21.000Z</time>
      </trkpt>
      <trkpt lat="44.98758" lon="5.84114">
        <ele>1849.2</ele>
        <time>2000-01-01T03:48:31.000Z</time>
      </trkpt>
      <trkpt lat="44.98768" lon="5.84112">
        <ele>1850</ele>
        <time>2000-01-01T03:48:41.000Z</time>
      </trkpt>
      <trkpt lat="44.9877" lon="5.84127">
        <ele>1860.3</ele>
        <time>2000-01-01T03:48:51.000Z</time>
      </trkpt>
      <trkpt lat="44.98783" lon="5.84121">
        <ele>1864</ele>
        <time>2000-01-01T03:49:01.000Z</time>
      </trkpt>
      <trkpt lat="44.98779" lon="5.84134">
        <ele>1869.2</ele>
        <time>2000-01-01T03:49:11.000Z</time>
      </trkpt>
      <trkpt lat="44.98788" lon="5.84133">
        <ele>1875.9</ele>
        <time>2000-01-01T03:49:21.000Z</time>
      </trkpt>
      <trkpt lat="44.98791" lon="5.8413">
        <ele>1873</ele>
        <time>2000-01-01T03:49:31.000Z</time>
      </trkpt>
      <trkpt lat="44.98789" lon="5.84145">
        <ele>1879.4</ele>
        <time>2000-01-01T03:49:41.000Z</time>
      </trkpt>
      <trkpt lat="44.98797" lon="5.84141">
        <ele>1881</ele>
        <time>2000-01-01T03:49:51.000Z</time>
      </trkpt>
      <trkpt lat="44.98801" lon="5.8414">
        <ele>1888.5</ele>
        <time>2000-01-01T03:50:01.000Z</time>
      </trkpt>
      <trkpt lat="44.98801" lon="5.84155">
        <ele>1890.4</ele>
        <time>2000-01-01T03:50:11.000Z</time>
      </trkpt>
      <trkpt lat="44.98809" lon="5.84145">
        <ele>1888</ele>
        <time>2000-01-01T03:50:21.000Z</time>
      </trkpt>
      <trkpt lat="44.98811" lon="5.84159">
        <ele>1899.4</ele>
        <time>2000-01-01T03:50:31.000Z</time>
      </trkpt>
      <trkpt lat="44.98816" lon="5.84146">
        <ele>1895</ele>
        <time>2000-01-01T03:50:41.000Z</time>
      </trkpt>
      <trkpt lat="44.98819" lon="5.84159">
        <ele>1906</ele>
        <time>2000-01-01T03:50:51.000Z</time>
      </trkpt>
      <trkpt lat="44.98824" lon="5.84171">
        <ele>1909</ele>
        <time>2000-01-01T03:51:01.000Z</time>
      </trkpt>
      <trkpt lat="44.9883" lon="5.84183">
        <ele>1918.1</ele>
        <time>2000-01-01T03:51:11.000Z</time>
      </trkpt>
      <trkpt lat="44.98826" lon="5.84197">
        <ele>1912</ele>
        <time>2000-01-01T03:51:21.000Z</time>
      </trkpt>
      <trkpt lat="44.98828" lon="5.84211">
        <ele>1919.3</ele>
        <time>2000-01-01T03:51:31.000Z</time>
      </trkpt>
      <trkpt lat="44.98835" lon="5.842">
        <ele>1918</ele>
        <time>2000-01-01T03:51:41.000Z</time>
      </trkpt>
      <trkpt lat="44.9884" lon="5.84211">
        <ele>1929.2</ele>
        <time>2000-01-01T03:51:51.000Z</time>
      </trkpt>
      <trkpt lat="44.98849" lon="5.84209">
        <ele>1936</ele>
        <time>2000-01-01T03:52:01.000Z</time>
      </trkpt>
      <trkpt lat="44.98847" lon="5.84222">
        <ele>1930</ele>
        <time>2000-01-01T03:52:11.000Z</time>
      </trkpt>
      <trkpt lat="44.98847" lon="5.84236">
        <ele>1938.3</ele>
        <time>2000-01-01T03:52:21.000Z</time>
      </trkpt>
      <trkpt lat="44.98851" lon="5.84263">
        <ele>1945</ele>
        <time>2000-01-01T03:52:31.000Z</time>
      </trkpt>
      <trkpt lat="44.98852" lon="5.84278">
        <ele>1947.1</ele>
        <time>2000-01-01T03:52:41.000Z</time>
      </trkpt>
      <trkpt lat="44.98854" lon="5.84291">
        <ele>1947</ele>
        <time>2000-01-01T03:52:51.000Z</time>
      </trkpt>
      <trkpt lat="44.98866" lon="5.84264">
        <ele>1953</ele>
        <time>2000-01-01T03:53:01.000Z</time>
      </trkpt>
      <trkpt lat="44.98878" lon="5.84226">
        <ele>1955</ele>
        <time>2000-01-01T03:53:11.000Z</time>
      </trkpt>
      <trkpt lat="44.98882" lon="5.84218">
        <ele>1964.3</ele>
        <time>2000-01-01T03:53:21.000Z</time>
      </trkpt>
      <trkpt lat="44.98887" lon="5.8423">
        <ele>1970.6</ele>
        <time>2000-01-01T03:53:31.000Z</time>
      </trkpt>
      <trkpt lat="44.98889" lon="5.84244">
        <ele>1968</ele>
        <time>2000-01-01T03:53:41.000Z</time>
      </trkpt>
      <trkpt lat="44.98889" lon="5.8426">
        <ele>1976.2</ele>
        <time>2000-01-01T03:53:51.000Z</time>
      </trkpt>
      <trkpt lat="44.98891" lon="5.84271">
        <ele>1978</ele>
        <time>2000-01-01T03:54:01.000Z</time>
      </trkpt>
      <trkpt lat="44.98892" lon="5.84284">
        <ele>1980.7</ele>
        <time>2000-01-01T03:54:11.000Z</time>
      </trkpt>
      <trkpt lat="44.98899" lon="5.84276">
        <ele>1986.5</ele>
        <time>2000-01-01T03:54:21.000Z</time>
      </trkpt>
      <trkpt lat="44.98908" lon="5.84249">
        <ele>1982</ele>
        <time>2000-01-01T03:54:31.000Z</time>
      </trkpt>
      <trkpt lat="44.98913" lon="5.84236">
        <ele>1992.9</ele>
        <time>2000-01-01T03:54:41.000Z</time>
      </trkpt>
      <trkpt lat="44.9892" lon="5.84244">
        <ele>1992</ele>
        <time>2000-01-01T03:54:51.000Z</time>
      </trkpt>
      <trkpt lat="44.98921" lon="5.84274">
        <ele>2004</ele>
        <time>2000-01-01T03:55:01.000Z</time>
      </trkpt>
      <trkpt lat="44.98923" lon="5.84288">
        <ele>2007.7</ele>
        <time>2000-01-01T03:55:11.000Z</time>
      </trkpt>
      <trkpt lat="44.98929" lon="5.84277">
        <ele>2004</ele>
        <time>2000-01-01T03:55:21.000Z</time>
      </trkpt>
      <trkpt lat="44.98933" lon="5.84263">
        <ele>2014.8</ele>
        <time>2000-01-01T03:55:31.000Z</time>
      </trkpt>
      <trkpt lat="44.98939" lon="5.84252">
        <ele>2009</ele>
        <time>2000-01-01T03:55:41.000Z</time>
      </trkpt>
      <trkpt lat="44.98946" lon="5.84257">
        <ele>2025.2</ele>
        <time>2000-01-01T03:55:51.000Z</time>
      </trkpt>
      <trkpt lat="44.98946" lon="5.8427">
        <ele>2027.2</ele>
        <time>2000-01-01T03:56:01.000Z</time>
      </trkpt>
      <trkpt lat="44.98948" lon="5.84285">
        <ele>2021</ele>
        <time>2000-01-01T03:56:11.000Z</time>
      </trkpt>
      <trkpt lat="44.98948" lon="5.84298">
        <ele>2030.3</ele>
        <time>2000-01-01T03:56:21.000Z</time>
      </trkpt>
      <trkpt lat="44.98965" lon="5.84263">
        <ele>2037</ele>
        <time>2000-01-01T03:56:31.000Z</time>
      </trkpt>
      <trkpt lat="44.98971" lon="5.84288">
        <ele>2051.3</ele>
        <time>2000-01-01T03:56:41.000Z</time>
      </trkpt>
      <trkpt lat="44.98972" lon="5.84297">
        <ele>2049</ele>
        <time>2000-01-01T03:56:51.000Z</time>
      </trkpt>
      <trkpt lat="44.98983" lon="5.84286">
        <ele>2061.7</ele>
        <time>2000-01-01T03:57:01.000Z</time>
      </trkpt>
      <trkpt lat="44.98987" lon="5.84279">
        <ele>2056</ele>
        <time>2000-01-01T03:57:11.000Z</time>
      </trkpt>
      <trkpt lat="44.98995" lon="5.84271">
        <ele>2068.5</ele>
        <time>2000-01-01T03:57:21.000Z</time>
      </trkpt>
      <trkpt lat="44.98995" lon="5.84289">
        <ele>2067</ele>
        <time>2000-01-01T03:57:31.000Z</time>
      </trkpt>
      <trkpt lat="44.98997" lon="5.84306">
        <ele>2077</ele>
        <time>2000-01-01T03:57:41.000Z</time>
      </trkpt>
      <trkpt lat="44.98999" lon="5.84315">
        <ele>2077.7</ele>
        <time>2000-01-01T03:57:51.000Z</time>
      </trkpt>
      <trkpt lat="44.99003" lon="5.8432">
        <ele>2077</ele>
        <time>2000-01-01T03:58:01.000Z</time>
      </trkpt>
      <trkpt lat="44.99006" lon="5.84306">
        <ele>2084.9</ele>
        <time>2000-01-01T03:58:11.000Z</time>
      </trkpt>
      <trkpt lat="44.9901" lon="5.84296">
        <ele>2086.2</ele>
        <time>2000-01-01T03:58:21.000Z</time>
      </trkpt>
      <trkpt lat="44.99025" lon="5.84273">
        <ele>2086</ele>
        <time>2000-01-01T03:58:31.000Z</time>
      </trkpt>
      <trkpt lat="44.99034" lon="5.84262">
        <ele>2093.1</ele>
        <time>2000-01-01T03:58:41.000Z</time>
      </trkpt>
      <trkpt lat="44.99041" lon="5.84273">
        <ele>2099</ele>
        <time>2000-01-01T03:58:51.000Z</time>
      </trkpt>
      <trkpt lat="44.99047" lon="5.8428">
        <ele>2106.1</ele>
        <time>2000-01-01T03:59:01.000Z</time>
      </trkpt>
      <trkpt lat="44.99067" lon="5.84298">
        <ele>2115</ele>
        <time>2000-01-01T03:59:11.000Z</time>
      </trkpt>
      <trkpt lat="44.99066" lon="5.84316">
        <ele>2121.9</ele>
        <time>2000-01-01T03:59:21.000Z</time>
      </trkpt>
      <trkpt lat="44.99068" lon="5.8434">
        <ele>2124</ele>
        <time>2000-01-01T03:59:31.000Z</time>
      </trkpt>
      <trkpt lat="44.99073" lon="5.84354">
        <ele>2130</ele>
        <time>2000-01-01T03:59:41.000Z</time>
      </trkpt>
      <trkpt lat="44.99078" lon="5.84373">
        <ele>2133</ele>
        <time>2000-01-01T03:59:51.000Z</time>
      </trkpt>
      <trkpt lat="44.99083" lon="5.84386">
        <ele>2141.2</ele>
        <time>2000-01-01T04:00:01.000Z</time>
      </trkpt>
      <trkpt lat="44.99084" lon="5.84402">
        <ele>2143</ele>
        <time>2000-01-01T04:00:11.000Z</time>
      </trkpt>
      <trkpt lat="44.99087" lon="5.84419">
        <ele>2149.8</ele>
        <time>2000-01-01T04:00:21.000Z</time>
      </trkpt>
      <trkpt lat="44.9909" lon="5.84432">
        <ele>2151</ele>
        <time>2000-01-01T04:00:31.000Z</time>
      </trkpt>
      <trkpt lat="44.99092" lon="5.84458">
        <ele>2160.2</ele>
        <time>2000-01-01T04:00:41.000Z</time>
      </trkpt>
      <trkpt lat="44.99097" lon="5.845">
        <ele>2167</ele>
        <time>2000-01-01T04:00:51.000Z</time>
      </trkpt>
      <trkpt lat="44.99096" lon="5.84524">
        <ele>2172.6</ele>
        <time>2000-01-01T04:01:01.000Z</time>
      </trkpt>
      <trkpt lat="44.99094" lon="5.8454">
        <ele>2174</ele>
        <time>2000-01-01T04:01:11.000Z</time>
      </trkpt>
      <trkpt lat="44.99094" lon="5.84548">
        <ele>2176.2</ele>
        <time>2000-01-01T04:01:21.000Z</time>
      </trkpt>
      <trkpt lat="44.99093" lon="5.84558">
        <ele>2177</ele>
        <time>2000-01-01T04:01:31.000Z</time>
      </trkpt>
      <trkpt lat="44.99086" lon="5.84567">
        <ele>2171</ele>
        <time>2000-01-01T04:01:41.000Z</time>
      </trkpt>
      <trkpt lat="44.99069" lon="5.84586">
        <ele>2169</ele>
        <time>2000-01-01T04:01:51.000Z</time>
      </trkpt>
      <trkpt lat="44.99061" lon="5.84598">
        <ele>2167.1</ele>
        <time>2000-01-01T04:02:01.000Z</time>
      </trkpt>
      <trkpt lat="44.99039" lon="5.84627">
        <ele>2150</ele>
        <time>2000-01-01T04:02:11.000Z</time>
      </trkpt>
      <trkpt lat="44.99035" lon="5.84637">
        <ele>2151</ele>
        <time>2000-01-01T04:02:21.000Z</time>
      </trkpt>
      <trkpt lat="44.99028" lon="5.84649">
        <ele>2144</ele>
        <time>2000-01-01T04:02:31.000Z</time>
      </trkpt>
      <trkpt lat="44.99008" lon="5.84678">
        <ele>2128</ele>
        <time>2000-01-01T04:02:41.000Z</time>
      </trkpt>
      <trkpt lat="44.99002" lon="5.84692">
        <ele>2129.2</ele>
        <time>2000-01-01T04:02:51.000Z</time>
      </trkpt>
      <trkpt lat="44.98989" lon="5.84713">
        <ele>2117</ele>
        <time>2000-01-01T04:03:01.000Z</time>
      </trkpt>
      <trkpt lat="44.98981" lon="5.84722">
        <ele>2113.5</ele>
        <time>2000-01-01T04:03:11.000Z</time>
      </trkpt>
      <trkpt lat="44.98967" lon="5.84745">
        <ele>2101</ele>
        <time>2000-01-01T04:03:21.000Z</time>
      </trkpt>
      <trkpt lat="44.98962" lon="5.84758">
        <ele>2097.2</ele>
        <time>2000-01-01T04:03:31.000Z</time>
      </trkpt>
      <trkpt lat="44.98956" lon="5.84768">
        <ele>2094</ele>
        <time>2000-01-01T04:03:41.000Z</time>
      </trkpt>
      <trkpt lat="44.98952" lon="5.84781">
        <ele>2088</ele>
        <time>2000-01-01T04:03:51.000Z</time>
      </trkpt>
      <trkpt lat="44.98949" lon="5.84794">
        <ele>2081</ele>
        <time>2000-01-01T04:04:01.000Z</time>
      </trkpt>
      <trkpt lat="44.98942" lon="5.84807">
        <ele>2080.2</ele>
        <time>2000-01-01T04:04:11.000Z</time>
      </trkpt>
      <trkpt lat="44.98935" lon="5.84817">
        <ele>2075</ele>
        <time>2000-01-01T04:04:21.000Z</time>
      </trkpt>
      <trkpt lat="44.98917" lon="5.84847">
        <ele>2063</ele>
        <time>2000-01-01T04:04:31.000Z</time>
      </trkpt>
      <trkpt lat="44.98911" lon="5.84855">
        <ele>2059</ele>
        <time>2000-01-01T04:04:41.000Z</time>
      </trkpt>
      <trkpt lat="44.98903" lon="5.84874">
        <ele>2052</ele>
        <time>2000-01-01T04:04:51.000Z</time>
      </trkpt>
      <trkpt lat="44.98891" lon="5.84897">
        <ele>2043</ele>
        <time>2000-01-01T04:05:01.000Z</time>
      </trkpt>
      <trkpt lat="44.98887" lon="5.84916">
        <ele>2034.4</ele>
        <time>2000-01-01T04:05:11.000Z</time>
      </trkpt>
      <trkpt lat="44.9888" lon="5.84925">
        <ele>2027</ele>
        <time>2000-01-01T04:05:21.000Z</time>
      </trkpt>
      <trkpt lat="44.98882" lon="5.84939">
        <ele>2026</ele>
        <time>2000-01-01T04:05:31.000Z</time>
      </trkpt>
      <trkpt lat="44.98877" lon="5.84949">
        <ele>2023.5</ele>
        <time>2000-01-01T04:05:41.000Z</time>
      </trkpt>
      <trkpt lat="44.98867" lon="5.84954">
        <ele>2028</ele>
        <time>2000-01-01T04:05:51.000Z</time>
      </trkpt>
      <trkpt lat="44.98854" lon="5.84957">
        <ele>2023.1</ele>
        <time>2000-01-01T04:06:01.000Z</time>
      </trkpt>
      <trkpt lat="44.9884" lon="5.84986">
        <ele>2029</ele>
        <time>2000-01-01T04:06:11.000Z</time>
      </trkpt>
      <trkpt lat="44.98833" lon="5.85007">
        <ele>2029.8</ele>
        <time>2000-01-01T04:06:21.000Z</time>
      </trkpt>
      <trkpt lat="44.98825" lon="5.85025">
        <ele>2030</ele>
        <time>2000-01-01T04:06:31.000Z</time>
      </trkpt>
      <trkpt lat="44.98807" lon="5.8506">
        <ele>2032</ele>
        <time>2000-01-01T04:06:41.000Z</time>
      </trkpt>
      <trkpt lat="44.98796" lon="5.85072">
        <ele>2029.8</ele>
        <time>2000-01-01T04:06:51.000Z</time>
      </trkpt>
      <trkpt lat="44.9879" lon="5.85085">
        <ele>2034</ele>
        <time>2000-01-01T04:07:01.000Z</time>
      </trkpt>
      <trkpt lat="44.98779" lon="5.85103">
        <ele>2035.3</ele>
        <time>2000-01-01T04:07:11.000Z</time>
      </trkpt>
      <trkpt lat="44.98759" lon="5.85141">
        <ele>2048</ele>
        <time>2000-01-01T04:07:21.000Z</time>
      </trkpt>
      <trkpt lat="44.98748" lon="5.85154">
        <ele>2055.5</ele>
        <time>2000-01-01T04:07:31.000Z</time>
      </trkpt>
      <trkpt lat="44.98734" lon="5.8518">
        <ele>2066</ele>
        <time>2000-01-01T04:07:41.000Z</time>
      </trkpt>
      <trkpt lat="44.98721" lon="5.85211">
        <ele>2085</ele>
        <time>2000-01-01T04:07:51.000Z</time>
      </trkpt>
      <trkpt lat="44.98707" lon="5.85245">
        <ele>2098</ele>
        <time>2000-01-01T04:08:01.000Z</time>
      </trkpt>
      <trkpt lat="44.98699" lon="5.85271">
        <ele>2113</ele>
        <time>2000-01-01T04:08:11.000Z</time>
      </trkpt>
      <trkpt lat="44.98693" lon="5.85297">
        <ele>2123</ele>
        <time>2000-01-01T04:08:21.000Z</time>
      </trkpt>
      <trkpt lat="44.98683" lon="5.85331">
        <ele>2136</ele>
        <time>2000-01-01T04:08:31.000Z</time>
      </trkpt>
      <trkpt lat="44.98671" lon="5.85372">
        <ele>2156</ele>
        <time>2000-01-01T04:08:41.000Z</time>
      </trkpt>
      <trkpt lat="44.98663" lon="5.85406">
        <ele>2174</ele>
        <time>2000-01-01T04:08:51.000Z</time>
      </trkpt>
      <trkpt lat="44.98654" lon="5.85444">
        <ele>2205</ele>
        <time>2000-01-01T04:09:01.000Z</time>
      </trkpt>
      <trkpt lat="44.9865" lon="5.85468">
        <ele>2208.2</ele>
        <time>2000-01-01T04:09:11.000Z</time>
      </trkpt>
      <trkpt lat="44.98631" lon="5.85528">
        <ele>2213</ele>
        <time>2000-01-01T04:09:21.000Z</time>
      </trkpt>
      <trkpt lat="44.98615" lon="5.8557">
        <ele>2221</ele>
        <time>2000-01-01T04:09:31.000Z</time>
      </trkpt>
      <trkpt lat="44.98608" lon="5.85581">
        <ele>2235</ele>
        <time>2000-01-01T04:09:41.000Z</time>
      </trkpt>
      <trkpt lat="44.98597" lon="5.85584">
        <ele>2235</ele>
        <time>2000-01-01T04:09:51.000Z</time>
      </trkpt>
      <trkpt lat="44.98573" lon="5.85598">
        <ele>2249</ele>
        <time>2000-01-01T04:10:01.000Z</time>
      </trkpt>
      <trkpt lat="44.9856" lon="5.85602">
        <ele>2257.6</ele>
        <time>2000-01-01T04:10:11.000Z</time>
      </trkpt>
      <trkpt lat="44.9854" lon="5.85617">
        <ele>2272</ele>
        <time>2000-01-01T04:10:21.000Z</time>
      </trkpt>
      <trkpt lat="44.98527" lon="5.85623">
        <ele>2275.6</ele>
        <time>2000-01-01T04:10:31.000Z</time>
      </trkpt>
      <trkpt lat="44.98511" lon="5.85628">
        <ele>2272</ele>
        <time>2000-01-01T04:10:41.000Z</time>
      </trkpt>
      <trkpt lat="44.98501" lon="5.85647">
        <ele>2278.1</ele>
        <time>2000-01-01T04:10:51.000Z</time>
      </trkpt>
      <trkpt lat="44.98486" lon="5.85644">
        <ele>2244</ele>
        <time>2000-01-01T04:11:01.000Z</time>
      </trkpt>
      <trkpt lat="44.98471" lon="5.85638">
        <ele>2269.2</ele>
        <time>2000-01-01T04:11:11.000Z</time>
      </trkpt>
      <trkpt lat="44.98449" lon="5.85684">
        <ele>2217</ele>
        <time>2000-01-01T04:11:21.000Z</time>
      </trkpt>
      <trkpt lat="44.98424" lon="5.85697">
        <ele>2201</ele>
        <time>2000-01-01T04:11:31.000Z</time>
      </trkpt>
      <trkpt lat="44.98394" lon="5.85698">
        <ele>2189</ele>
        <time>2000-01-01T04:11:41.000Z</time>
      </trkpt>
      <trkpt lat="44.98367" lon="5.85704">
        <ele>2182</ele>
        <time>2000-01-01T04:11:51.000Z</time>
      </trkpt>
      <trkpt lat="44.98347" lon="5.85697">
        <ele>2182</ele>
        <time>2000-01-01T04:12:01.000Z</time>
      </trkpt>
      <trkpt lat="44.98327" lon="5.857">
        <ele>2182</ele>
        <time>2000-01-01T04:12:11.000Z</time>
      </trkpt>
      <trkpt lat="44.983" lon="5.85711">
        <ele>2182</ele>
        <time>2000-01-01T04:12:21.000Z</time>
      </trkpt>
      <trkpt lat="44.98265" lon="5.85719">
        <ele>2196</ele>
        <time>2000-01-01T04:12:31.000Z</time>
      </trkpt>
      <trkpt lat="44.98245" lon="5.85704">
        <ele>2215</ele>
        <time>2000-01-01T04:12:41.000Z</time>
      </trkpt>
      <trkpt lat="44.98212" lon="5.85665">
        <ele>2255</ele>
        <time>2000-01-01T04:12:51.000Z</time>
      </trkpt>
      <trkpt lat="44.98196" lon="5.85628">
        <ele>2273</ele>
        <time>2000-01-01T04:13:01.000Z</time>
      </trkpt>
      <trkpt lat="44.98183" lon="5.85609">
        <ele>2276.9</ele>
        <time>2000-01-01T04:13:11.000Z</time>
      </trkpt>
      <trkpt lat="44.98172" lon="5.85579">
        <ele>2285</ele>
        <time>2000-01-01T04:13:21.000Z</time>
      </trkpt>
      <trkpt lat="44.98159" lon="5.85559">
        <ele>2287</ele>
        <time>2000-01-01T04:13:31.000Z</time>
      </trkpt>
      <trkpt lat="44.98137" lon="5.85535">
        <ele>2287</ele>
        <time>2000-01-01T04:13:41.000Z</time>
      </trkpt>
      <trkpt lat="44.98117" lon="5.85532">
        <ele>2287</ele>
        <time>2000-01-01T04:13:51.000Z</time>
      </trkpt>
      <trkpt lat="44.98093" lon="5.85525">
        <ele>2281</ele>
        <time>2000-01-01T04:14:01.000Z</time>
      </trkpt>
      <trkpt lat="44.98074" lon="5.85524">
        <ele>2280.7</ele>
        <time>2000-01-01T04:14:11.000Z</time>
      </trkpt>
      <trkpt lat="44.9805" lon="5.85512">
        <ele>2282</ele>
        <time>2000-01-01T04:14:21.000Z</time>
      </trkpt>
      <trkpt lat="44.98036" lon="5.85508">
        <ele>2278.9</ele>
        <time>2000-01-01T04:14:31.000Z</time>
      </trkpt>
      <trkpt lat="44.98025" lon="5.85509">
        <ele>2283</ele>
        <time>2000-01-01T04:14:41.000Z</time>
      </trkpt>
      <trkpt lat="44.98012" lon="5.85504">
        <ele>2285</ele>
        <time>2000-01-01T04:14:51.000Z</time>
      </trkpt>
      <trkpt lat="44.97994" lon="5.855">
        <ele>2293</ele>
        <time>2000-01-01T04:15:01.000Z</time>
      </trkpt>
      <trkpt lat="44.97983" lon="5.85493">
        <ele>2294.5</ele>
        <time>2000-01-01T04:15:11.000Z</time>
      </trkpt>
      <trkpt lat="44.97969" lon="5.85493">
        <ele>2306</ele>
        <time>2000-01-01T04:15:21.000Z</time>
      </trkpt>
      <trkpt lat="44.97937" lon="5.85497">
        <ele>2318</ele>
        <time>2000-01-01T04:15:31.000Z</time>
      </trkpt>
      <trkpt lat="44.9792" lon="5.855">
        <ele>2320.9</ele>
        <time>2000-01-01T04:15:41.000Z</time>
      </trkpt>
      <trkpt lat="44.97905" lon="5.85501">
        <ele>2325</ele>
        <time>2000-01-01T04:15:51.000Z</time>
      </trkpt>
      <trkpt lat="44.97888" lon="5.85504">
        <ele>2325.6</ele>
        <time>2000-01-01T04:16:01.000Z</time>
      </trkpt>
      <trkpt lat="44.97871" lon="5.85503">
        <ele>2330</ele>
        <time>2000-01-01T04:16:11.000Z</time>
      </trkpt>
      <trkpt lat="44.9785" lon="5.855">
        <ele>2334</ele>
        <time>2000-01-01T04:16:21.000Z</time>
      </trkpt>
      <trkpt lat="44.97832" lon="5.85501">
        <ele>2337.2</ele>
        <time>2000-01-01T04:16:31.000Z</time>
      </trkpt>
      <trkpt lat="44.97798" lon="5.85498">
        <ele>2347</ele>
        <time>2000-01-01T04:16:41.000Z</time>
      </trkpt>
      <trkpt lat="44.97782" lon="5.85519">
        <ele>2354</ele>
        <time>2000-01-01T04:16:51.000Z</time>
      </trkpt>
      <trkpt lat="44.97765" lon="5.85521">
        <ele>2359.5</ele>
        <time>2000-01-01T04:17:01.000Z</time>
      </trkpt>
      <trkpt lat="44.97749" lon="5.85527">
        <ele>2369</ele>
        <time>2000-01-01T04:17:11.000Z</time>
      </trkpt>
      <trkpt lat="44.9773" lon="5.8553">
        <ele>2374</ele>
        <time>2000-01-01T04:17:21.000Z</time>
      </trkpt>
      <trkpt lat="44.97711" lon="5.85539">
        <ele>2376</ele>
        <time>2000-01-01T04:17:31.000Z</time>
      </trkpt>
      <trkpt lat="44.97701" lon="5.85547">
        <ele>2380</ele>
        <time>2000-01-01T04:17:41.000Z</time>
      </trkpt>
      <trkpt lat="44.97691" lon="5.85546">
        <ele>2374</ele>
        <time>2000-01-01T04:17:51.000Z</time>
      </trkpt>
      <trkpt lat="44.97693" lon="5.85539">
        <ele>2378.2</ele>
        <time>2000-01-01T04:18:01.000Z</time>
      </trkpt>
      <trkpt lat="44.97697" lon="5.85536">
        <ele>2377.6</ele>
        <time>2000-01-01T04:18:11.000Z</time>
      </trkpt>
      <trkpt lat="44.97705" lon="5.85522">
        <ele>2373</ele>
        <time>2000-01-01T04:18:21.000Z</time>
      </trkpt>
      <trkpt lat="44.97713" lon="5.85513">
        <ele>2369.5</ele>
        <time>2000-01-01T04:18:31.000Z</time>
      </trkpt>
      <trkpt lat="44.97718" lon="5.85504">
        <ele>2367.7</ele>
        <time>2000-01-01T04:18:41.000Z</time>
      </trkpt>
      <trkpt lat="44.97724" lon="5.85496">
        <ele>2364</ele>
        <time>2000-01-01T04:18:51.000Z</time>
      </trkpt>
      <trkpt lat="44.97729" lon="5.85488">
        <ele>2363.1</ele>
        <time>2000-01-01T04:19:01.000Z</time>
      </trkpt>
      <trkpt lat="44.97737" lon="5.85483">
        <ele>2360.5</ele>
        <time>2000-01-01T04:19:11.000Z</time>
      </trkpt>
      <trkpt lat="44.97741" lon="5.85476">
        <ele>2358</ele>
        <time>2000-01-01T04:19:21.000Z</time>
      </trkpt>
      <trkpt lat="44.97747" lon="5.85472">
        <ele>2356.2</ele>
        <time>2000-01-01T04:19:31.000Z</time>
      </trkpt>
      <trkpt lat="44.97753" lon="5.85463">
        <ele>2351.7</ele>
        <time>2000-01-01T04:19:41.000Z</time>
      </trkpt>
      <trkpt lat="44.97756" lon="5.85455">
        <ele>2347</ele>
        <time>2000-01-01T04:19:51.000Z</time>
      </trkpt>
      <trkpt lat="44.97741" lon="5.8542">
        <ele>2337</ele>
        <time>2000-01-01T04:20:01.000Z</time>
      </trkpt>
      <trkpt lat="44.97733" lon="5.85405">
        <ele>2335.2</ele>
        <time>2000-01-01T04:20:11.000Z</time>
      </trkpt>
      <trkpt lat="44.97727" lon="5.85399">
        <ele>2330</ele>
        <time>2000-01-01T04:20:21.000Z</time>
      </trkpt>
      <trkpt lat="44.97719" lon="5.85382">
        <ele>2326.8</ele>
        <time>2000-01-01T04:20:31.000Z</time>
      </trkpt>
      <trkpt lat="44.97711" lon="5.85375">
        <ele>2323</ele>
        <time>2000-01-01T04:20:41.000Z</time>
      </trkpt>
      <trkpt lat="44.97701" lon="5.85364">
        <ele>2317.2</ele>
        <time>2000-01-01T04:20:51.000Z</time>
      </trkpt>
      <trkpt lat="44.97691" lon="5.85357">
        <ele>2315</ele>
        <time>2000-01-01T04:21:01.000Z</time>
      </trkpt>
      <trkpt lat="44.97686" lon="5.85345">
        <ele>2310.5</ele>
        <time>2000-01-01T04:21:11.000Z</time>
      </trkpt>
      <trkpt lat="44.9768" lon="5.85325">
        <ele>2307</ele>
        <time>2000-01-01T04:21:21.000Z</time>
      </trkpt>
      <trkpt lat="44.97678" lon="5.85312">
        <ele>2303.9</ele>
        <time>2000-01-01T04:21:31.000Z</time>
      </trkpt>
      <trkpt lat="44.97668" lon="5.85279">
        <ele>2304</ele>
        <time>2000-01-01T04:21:41.000Z</time>
      </trkpt>
      <trkpt lat="44.9766" lon="5.85259">
        <ele>2297.6</ele>
        <time>2000-01-01T04:21:51.000Z</time>
      </trkpt>
      <trkpt lat="44.97646" lon="5.85239">
        <ele>2304</ele>
        <time>2000-01-01T04:22:01.000Z</time>
      </trkpt>
      <trkpt lat="44.97635" lon="5.85233">
        <ele>2301</ele>
        <time>2000-01-01T04:22:11.000Z</time>
      </trkpt>
      <trkpt lat="44.97626" lon="5.85225">
        <ele>2305</ele>
        <time>2000-01-01T04:22:21.000Z</time>
      </trkpt>
      <trkpt lat="44.97614" lon="5.85213">
        <ele>2304.7</ele>
        <time>2000-01-01T04:22:31.000Z</time>
      </trkpt>
      <trkpt lat="44.97606" lon="5.85201">
        <ele>2305</ele>
        <time>2000-01-01T04:22:41.000Z</time>
      </trkpt>
      <trkpt lat="44.97601" lon="5.85188">
        <ele>2305</ele>
        <time>2000-01-01T04:22:51.000Z</time>
      </trkpt>
      <trkpt lat="44.9758" lon="5.85167">
        <ele>2303</ele>
        <time>2000-01-01T04:23:01.000Z</time>
      </trkpt>
      <trkpt lat="44.97538" lon="5.85139">
        <ele>2302</ele>
        <time>2000-01-01T04:23:11.000Z</time>
      </trkpt>
      <trkpt lat="44.97529" lon="5.85136">
        <ele>2302.9</ele>
        <time>2000-01-01T04:23:21.000Z</time>
      </trkpt>
      <trkpt lat="44.97498" lon="5.85114">
        <ele>2299</ele>
        <time>2000-01-01T04:23:31.000Z</time>
      </trkpt>
      <trkpt lat="44.97494" lon="5.85109">
        <ele>2298.6</ele>
        <time>2000-01-01T04:23:41.000Z</time>
      </trkpt>
      <trkpt lat="44.97487" lon="5.85103">
        <ele>2297</ele>
        <time>2000-01-01T04:23:51.000Z</time>
      </trkpt>
      <trkpt lat="44.9748" lon="5.85101">
        <ele>2298</ele>
        <time>2000-01-01T04:24:01.000Z</time>
      </trkpt>
      <trkpt lat="44.97475" lon="5.85092">
        <ele>2294.5</ele>
        <time>2000-01-01T04:24:11.000Z</time>
      </trkpt>
      <trkpt lat="44.97452" lon="5.85078">
        <ele>2291</ele>
        <time>2000-01-01T04:24:21.000Z</time>
      </trkpt>
      <trkpt lat="44.97444" lon="5.85072">
        <ele>2290.8</ele>
        <time>2000-01-01T04:24:31.000Z</time>
      </trkpt>
      <trkpt lat="44.97438" lon="5.85061">
        <ele>2286.7</ele>
        <time>2000-01-01T04:24:41.000Z</time>
      </trkpt>
      <trkpt lat="44.9743" lon="5.85055">
        <ele>2284</ele>
        <time>2000-01-01T04:24:51.000Z</time>
      </trkpt>
      <trkpt lat="44.97426" lon="5.85046">
        <ele>2282.9</ele>
        <time>2000-01-01T04:25:01.000Z</time>
      </trkpt>
      <trkpt lat="44.9742" lon="5.85037">
        <ele>2281</ele>
        <time>2000-01-01T04:25:11.000Z</time>
      </trkpt>
      <trkpt lat="44.97412" lon="5.85028">
        <ele>2277</ele>
        <time>2000-01-01T04:25:21.000Z</time>
      </trkpt>
      <trkpt lat="44.97408" lon="5.85018">
        <ele>2277.4</ele>
        <time>2000-01-01T04:25:31.000Z</time>
      </trkpt>
      <trkpt lat="44.9739" lon="5.84993">
        <ele>2273</ele>
        <time>2000-01-01T04:25:41.000Z</time>
      </trkpt>
      <trkpt lat="44.97387" lon="5.84986">
        <ele>2270.4</ele>
        <time>2000-01-01T04:25:51.000Z</time>
      </trkpt>
      <trkpt lat="44.97378" lon="5.84978">
        <ele>2269.7</ele>
        <time>2000-01-01T04:26:01.000Z</time>
      </trkpt>
      <trkpt lat="44.97372" lon="5.84966">
        <ele>2265</ele>
        <time>2000-01-01T04:26:11.000Z</time>
      </trkpt>
      <trkpt lat="44.97362" lon="5.84957">
        <ele>2266.9</ele>
        <time>2000-01-01T04:26:21.000Z</time>
      </trkpt>
      <trkpt lat="44.9735" lon="5.84942">
        <ele>2263</ele>
        <time>2000-01-01T04:26:31.000Z</time>
      </trkpt>
      <trkpt lat="44.97345" lon="5.84932">
        <ele>2260.6</ele>
        <time>2000-01-01T04:26:41.000Z</time>
      </trkpt>
      <trkpt lat="44.97337" lon="5.84927">
        <ele>2260.2</ele>
        <time>2000-01-01T04:26:51.000Z</time>
      </trkpt>
      <trkpt lat="44.97331" lon="5.84917">
        <ele>2255</ele>
        <time>2000-01-01T04:27:01.000Z</time>
      </trkpt>
      <trkpt lat="44.97322" lon="5.84909">
        <ele>2254.3</ele>
        <time>2000-01-01T04:27:11.000Z</time>
      </trkpt>
      <trkpt lat="44.97311" lon="5.84886">
        <ele>2248</ele>
        <time>2000-01-01T04:27:21.000Z</time>
      </trkpt>
      <trkpt lat="44.97303" lon="5.84877">
        <ele>2247</ele>
        <time>2000-01-01T04:27:31.000Z</time>
      </trkpt>
      <trkpt lat="44.97288" lon="5.84863">
        <ele>2242</ele>
        <time>2000-01-01T04:27:41.000Z</time>
      </trkpt>
      <trkpt lat="44.97284" lon="5.84849">
        <ele>2240.9</ele>
        <time>2000-01-01T04:27:51.000Z</time>
      </trkpt>
      <trkpt lat="44.97269" lon="5.84821">
        <ele>2235</ele>
        <time>2000-01-01T04:28:01.000Z</time>
      </trkpt>
      <trkpt lat="44.97253" lon="5.84794">
        <ele>2230</ele>
        <time>2000-01-01T04:28:11.000Z</time>
      </trkpt>
      <trkpt lat="44.97246" lon="5.84775">
        <ele>2227.2</ele>
        <time>2000-01-01T04:28:21.000Z</time>
      </trkpt>
      <trkpt lat="44.97238" lon="5.84757">
        <ele>2224</ele>
        <time>2000-01-01T04:28:31.000Z</time>
      </trkpt>
      <trkpt lat="44.97231" lon="5.84747">
        <ele>2223.3</ele>
        <time>2000-01-01T04:28:41.000Z</time>
      </trkpt>
      <trkpt lat="44.97224" lon="5.84725">
        <ele>2224</ele>
        <time>2000-01-01T04:28:51.000Z</time>
      </trkpt>
      <trkpt lat="44.97216" lon="5.84716">
        <ele>2224.9</ele>
        <time>2000-01-01T04:29:01.000Z</time>
      </trkpt>
      <trkpt lat="44.97207" lon="5.84714">
        <ele>2228</ele>
        <time>2000-01-01T04:29:11.000Z</time>
      </trkpt>
      <trkpt lat="44.97198" lon="5.84707">
        <ele>2227.9</ele>
        <time>2000-01-01T04:29:21.000Z</time>
      </trkpt>
      <trkpt lat="44.97189" lon="5.84709">
        <ele>2232</ele>
        <time>2000-01-01T04:29:31.000Z</time>
      </trkpt>
      <trkpt lat="44.97181" lon="5.84708">
        <ele>2228.8</ele>
        <time>2000-01-01T04:29:41.000Z</time>
      </trkpt>
      <trkpt lat="44.97175" lon="5.84703">
        <ele>2230.3</ele>
        <time>2000-01-01T04:29:51.000Z</time>
      </trkpt>
      <trkpt lat="44.97166" lon="5.84686">
        <ele>2234</ele>
        <time>2000-01-01T04:30:01.000Z</time>
      </trkpt>
      <trkpt lat="44.97159" lon="5.84676">
        <ele>2234.5</ele>
        <time>2000-01-01T04:30:11.000Z</time>
      </trkpt>
      <trkpt lat="44.97157" lon="5.84668">
        <ele>2235.5</ele>
        <time>2000-01-01T04:30:21.000Z</time>
      </trkpt>
      <trkpt lat="44.9715" lon="5.84659">
        <ele>2234</ele>
        <time>2000-01-01T04:30:31.000Z</time>
      </trkpt>
      <trkpt lat="44.97141" lon="5.84658">
        <ele>2235.6</ele>
        <time>2000-01-01T04:30:41.000Z</time>
      </trkpt>
      <trkpt lat="44.97134" lon="5.84652">
        <ele>2235.5</ele>
        <time>2000-01-01T04:30:51.000Z</time>
      </trkpt>
      <trkpt lat="44.97125" lon="5.84648">
        <ele>2234</ele>
        <time>2000-01-01T04:31:01.000Z</time>
      </trkpt>
      <trkpt lat="44.97118" lon="5.84642">
        <ele>2235.1</ele>
        <time>2000-01-01T04:31:11.000Z</time>
      </trkpt>
      <trkpt lat="44.97112" lon="5.84639">
        <ele>2235</ele>
        <time>2000-01-01T04:31:21.000Z</time>
      </trkpt>
      <trkpt lat="44.97099" lon="5.84623">
        <ele>2234</ele>
        <time>2000-01-01T04:31:31.000Z</time>
      </trkpt>
      <trkpt lat="44.9708" lon="5.84607">
        <ele>2234</ele>
        <time>2000-01-01T04:31:41.000Z</time>
      </trkpt>
      <trkpt lat="44.97069" lon="5.846">
        <ele>2233</ele>
        <time>2000-01-01T04:31:51.000Z</time>
      </trkpt>
      <trkpt lat="44.97062" lon="5.84598">
        <ele>2233</ele>
        <time>2000-01-01T04:32:01.000Z</time>
      </trkpt>
      <trkpt lat="44.97052" lon="5.84594">
        <ele>2231.6</ele>
        <time>2000-01-01T04:32:11.000Z</time>
      </trkpt>
      <trkpt lat="44.97045" lon="5.8459">
        <ele>2230.7</ele>
        <time>2000-01-01T04:32:21.000Z</time>
      </trkpt>
      <trkpt lat="44.9703" lon="5.84576">
        <ele>2229</ele>
        <time>2000-01-01T04:32:31.000Z</time>
      </trkpt>
      <trkpt lat="44.97011" lon="5.84566">
        <ele>2229</ele>
        <time>2000-01-01T04:32:41.000Z</time>
      </trkpt>
      <trkpt lat="44.97005" lon="5.84571">
        <ele>2227.2</ele>
        <time>2000-01-01T04:32:51.000Z</time>
      </trkpt>
      <trkpt lat="44.96999" lon="5.84566">
        <ele>2227.4</ele>
        <time>2000-01-01T04:33:01.000Z</time>
      </trkpt>
      <trkpt lat="44.96992" lon="5.84568">
        <ele>2228</ele>
        <time>2000-01-01T04:33:11.000Z</time>
      </trkpt>
      <trkpt lat="44.96985" lon="5.84564">
        <ele>2226.4</ele>
        <time>2000-01-01T04:33:21.000Z</time>
      </trkpt>
      <trkpt lat="44.96978" lon="5.84566">
        <ele>2225.3</ele>
        <time>2000-01-01T04:33:31.000Z</time>
      </trkpt>
      <trkpt lat="44.96949" lon="5.84555">
        <ele>2221</ele>
        <time>2000-01-01T04:33:41.000Z</time>
      </trkpt>
      <trkpt lat="44.96942" lon="5.84553">
        <ele>2222.1</ele>
        <time>2000-01-01T04:33:51.000Z</time>
      </trkpt>
      <trkpt lat="44.96934" lon="5.84552">
        <ele>2220</ele>
        <time>2000-01-01T04:34:01.000Z</time>
      </trkpt>
      <trkpt lat="44.96891" lon="5.84539">
        <ele>2205</ele>
        <time>2000-01-01T04:34:11.000Z</time>
      </trkpt>
      <trkpt lat="44.96875" lon="5.84539">
        <ele>2200.7</ele>
        <time>2000-01-01T04:34:21.000Z</time>
      </trkpt>
      <trkpt lat="44.96868" lon="5.8454">
        <ele>2196</ele>
        <time>2000-01-01T04:34:31.000Z</time>
      </trkpt>
      <trkpt lat="44.96861" lon="5.84538">
        <ele>2196.6</ele>
        <time>2000-01-01T04:34:41.000Z</time>
      </trkpt>
      <trkpt lat="44.96853" lon="5.84532">
        <ele>2194.8</ele>
        <time>2000-01-01T04:34:51.000Z</time>
      </trkpt>
      <trkpt lat="44.9685" lon="5.84534">
        <ele>2191</ele>
        <time>2000-01-01T04:35:01.000Z</time>
      </trkpt>
      <trkpt lat="44.96844" lon="5.84533">
        <ele>2192.4</ele>
        <time>2000-01-01T04:35:11.000Z</time>
      </trkpt>
      <trkpt lat="44.96835" lon="5.84529">
        <ele>2190.3</ele>
        <time>2000-01-01T04:35:21.000Z</time>
      </trkpt>
      <trkpt lat="44.9681" lon="5.84525">
        <ele>2181</ele>
        <time>2000-01-01T04:35:31.000Z</time>
      </trkpt>
      <trkpt lat="44.96802" lon="5.84528">
        <ele>2182</ele>
        <time>2000-01-01T04:35:41.000Z</time>
      </trkpt>
      <trkpt lat="44.96798" lon="5.84525">
        <ele>2180.7</ele>
        <time>2000-01-01T04:35:51.000Z</time>
      </trkpt>
      <trkpt lat="44.9679" lon="5.84524">
        <ele>2175</ele>
        <time>2000-01-01T04:36:01.000Z</time>
      </trkpt>
      <trkpt lat="44.96783" lon="5.8452">
        <ele>2176.2</ele>
        <time>2000-01-01T04:36:11.000Z</time>
      </trkpt>
      <trkpt lat="44.96775" lon="5.84506">
        <ele>2172</ele>
        <time>2000-01-01T04:36:21.000Z</time>
      </trkpt>
      <trkpt lat="44.96771" lon="5.84496">
        <ele>2172.4</ele>
        <time>2000-01-01T04:36:31.000Z</time>
      </trkpt>
      <trkpt lat="44.96763" lon="5.84493">
        <ele>2170.7</ele>
        <time>2000-01-01T04:36:41.000Z</time>
      </trkpt>
      <trkpt lat="44.96758" lon="5.84486">
        <ele>2167</ele>
        <time>2000-01-01T04:36:51.000Z</time>
      </trkpt>
      <trkpt lat="44.96755" lon="5.84475">
        <ele>2167.9</ele>
        <time>2000-01-01T04:37:01.000Z</time>
      </trkpt>
      <trkpt lat="44.96751" lon="5.84466">
        <ele>2166.4</ele>
        <time>2000-01-01T04:37:11.000Z</time>
      </trkpt>
      <trkpt lat="44.96752" lon="5.84452">
        <ele>2164</ele>
        <time>2000-01-01T04:37:21.000Z</time>
      </trkpt>
      <trkpt lat="44.96739" lon="5.84452">
        <ele>2164.7</ele>
        <time>2000-01-01T04:37:31.000Z</time>
      </trkpt>
      <trkpt lat="44.9672" lon="5.84448">
        <ele>2164</ele>
        <time>2000-01-01T04:37:41.000Z</time>
      </trkpt>
      <trkpt lat="44.96687" lon="5.84445">
        <ele>2169</ele>
        <time>2000-01-01T04:37:51.000Z</time>
      </trkpt>
      <trkpt lat="44.96656" lon="5.84433">
        <ele>2171</ele>
        <time>2000-01-01T04:38:01.000Z</time>
      </trkpt>
      <trkpt lat="44.96641" lon="5.84434">
        <ele>2172.1</ele>
        <time>2000-01-01T04:38:11.000Z</time>
      </trkpt>
      <trkpt lat="44.96623" lon="5.84428">
        <ele>2173</ele>
        <time>2000-01-01T04:38:21.000Z</time>
      </trkpt>
      <trkpt lat="44.96616" lon="5.84428">
        <ele>2174.8</ele>
        <time>2000-01-01T04:38:31.000Z</time>
      </trkpt>
      <trkpt lat="44.96597" lon="5.8442">
        <ele>2177</ele>
        <time>2000-01-01T04:38:41.000Z</time>
      </trkpt>
      <trkpt lat="44.9659" lon="5.84413">
        <ele>2177.8</ele>
        <time>2000-01-01T04:38:51.000Z</time>
      </trkpt>
      <trkpt lat="44.96576" lon="5.84413">
        <ele>2180</ele>
        <time>2000-01-01T04:39:01.000Z</time>
      </trkpt>
      <trkpt lat="44.96555" lon="5.84415">
        <ele>2179</ele>
        <time>2000-01-01T04:39:11.000Z</time>
      </trkpt>
      <trkpt lat="44.96541" lon="5.84415">
        <ele>2180.7</ele>
        <time>2000-01-01T04:39:21.000Z</time>
      </trkpt>
      <trkpt lat="44.96529" lon="5.84413">
        <ele>2179</ele>
        <time>2000-01-01T04:39:31.000Z</time>
      </trkpt>
      <trkpt lat="44.96522" lon="5.84414">
        <ele>2179.2</ele>
        <time>2000-01-01T04:39:41.000Z</time>
      </trkpt>
      <trkpt lat="44.96503" lon="5.84411">
        <ele>2177</ele>
        <time>2000-01-01T04:39:51.000Z</time>
      </trkpt>
      <trkpt lat="44.96483" lon="5.84406">
        <ele>2173</ele>
        <time>2000-01-01T04:40:01.000Z</time>
      </trkpt>
      <trkpt lat="44.96471" lon="5.84408">
        <ele>2171.3</ele>
        <time>2000-01-01T04:40:11.000Z</time>
      </trkpt>
      <trkpt lat="44.96464" lon="5.84411">
        <ele>2171</ele>
        <time>2000-01-01T04:40:21.000Z</time>
      </trkpt>
      <trkpt lat="44.96427" lon="5.844">
        <ele>2171</ele>
        <time>2000-01-01T04:40:31.000Z</time>
      </trkpt>
      <trkpt lat="44.96382" lon="5.84395">
        <ele>2172</ele>
        <time>2000-01-01T04:40:41.000Z</time>
      </trkpt>
      <trkpt lat="44.96362" lon="5.84385">
        <ele>2175</ele>
        <time>2000-01-01T04:40:51.000Z</time>
      </trkpt>
      <trkpt lat="44.9635" lon="5.84377">
        <ele>2176.5</ele>
        <time>2000-01-01T04:41:01.000Z</time>
      </trkpt>
      <trkpt lat="44.96338" lon="5.84372">
        <ele>2182</ele>
        <time>2000-01-01T04:41:11.000Z</time>
      </trkpt>
      <trkpt lat="44.96315" lon="5.84366">
        <ele>2185</ele>
        <time>2000-01-01T04:41:21.000Z</time>
      </trkpt>
      <trkpt lat="44.96309" lon="5.84363">
        <ele>2186</ele>
        <time>2000-01-01T04:41:31.000Z</time>
      </trkpt>
      <trkpt lat="44.96297" lon="5.84363">
        <ele>2187.9</ele>
        <time>2000-01-01T04:41:41.000Z</time>
      </trkpt>
      <trkpt lat="44.96284" lon="5.84366">
        <ele>2190</ele>
        <time>2000-01-01T04:41:51.000Z</time>
      </trkpt>
      <trkpt lat="44.96278" lon="5.84366">
        <ele>2190.4</ele>
        <time>2000-01-01T04:42:01.000Z</time>
      </trkpt>
      <trkpt lat="44.96267" lon="5.84368">
        <ele>2192.1</ele>
        <time>2000-01-01T04:42:11.000Z</time>
      </trkpt>
      <trkpt lat="44.96255" lon="5.84369">
        <ele>2194</ele>
        <time>2000-01-01T04:42:21.000Z</time>
      </trkpt>
      <trkpt lat="44.96242" lon="5.84369">
        <ele>2196.5</ele>
        <time>2000-01-01T04:42:31.000Z</time>
      </trkpt>
      <trkpt lat="44.9623" lon="5.84373">
        <ele>2202</ele>
        <time>2000-01-01T04:42:41.000Z</time>
      </trkpt>
      <trkpt lat="44.96197" lon="5.84388">
        <ele>2207</ele>
        <time>2000-01-01T04:42:51.000Z</time>
      </trkpt>
      <trkpt lat="44.96177" lon="5.84392">
        <ele>2206</ele>
        <time>2000-01-01T04:43:01.000Z</time>
      </trkpt>
      <trkpt lat="44.96166" lon="5.84398">
        <ele>2208.2</ele>
        <time>2000-01-01T04:43:11.000Z</time>
      </trkpt>
      <trkpt lat="44.96151" lon="5.84408">
        <ele>2206</ele>
        <time>2000-01-01T04:43:21.000Z</time>
      </trkpt>
      <trkpt lat="44.96142" lon="5.84416">
        <ele>2205.1</ele>
        <time>2000-01-01T04:43:31.000Z</time>
      </trkpt>
      <trkpt lat="44.96128" lon="5.84412">
        <ele>2197</ele>
        <time>2000-01-01T04:43:41.000Z</time>
      </trkpt>
      <trkpt lat="44.96114" lon="5.84406">
        <ele>2196</ele>
        <time>2000-01-01T04:43:51.000Z</time>
      </trkpt>
      <trkpt lat="44.96104" lon="5.84404">
        <ele>2193</ele>
        <time>2000-01-01T04:44:01.000Z</time>
      </trkpt>
      <trkpt lat="44.96096" lon="5.84404">
        <ele>2192.5</ele>
        <time>2000-01-01T04:44:11.000Z</time>
      </trkpt>
      <trkpt lat="44.96087" lon="5.84401">
        <ele>2190.8</ele>
        <time>2000-01-01T04:44:21.000Z</time>
      </trkpt>
      <trkpt lat="44.9608" lon="5.84404">
        <ele>2188</ele>
        <time>2000-01-01T04:44:31.000Z</time>
      </trkpt>
      <trkpt lat="44.96072" lon="5.84403">
        <ele>2187.2</ele>
        <time>2000-01-01T04:44:41.000Z</time>
      </trkpt>
      <trkpt lat="44.96045" lon="5.8439">
        <ele>2176</ele>
        <time>2000-01-01T04:44:51.000Z</time>
      </trkpt>
      <trkpt lat="44.96039" lon="5.84383">
        <ele>2174</ele>
        <time>2000-01-01T04:45:01.000Z</time>
      </trkpt>
      <trkpt lat="44.9603" lon="5.84377">
        <ele>2169.5</ele>
        <time>2000-01-01T04:45:11.000Z</time>
      </trkpt>
      <trkpt lat="44.96013" lon="5.84377">
        <ele>2161</ele>
        <time>2000-01-01T04:45:21.000Z</time>
      </trkpt>
      <trkpt lat="44.95998" lon="5.84356">
        <ele>2147</ele>
        <time>2000-01-01T04:45:31.000Z</time>
      </trkpt>
      <trkpt lat="44.95988" lon="5.84357">
        <ele>2146.4</ele>
        <time>2000-01-01T04:45:41.000Z</time>
      </trkpt>
      <trkpt lat="44.95978" lon="5.84351">
        <ele>2135</ele>
        <time>2000-01-01T04:45:51.000Z</time>
      </trkpt>
      <trkpt lat="44.95967" lon="5.84354">
        <ele>2134.2</ele>
        <time>2000-01-01T04:46:01.000Z</time>
      </trkpt>
      <trkpt lat="44.95946" lon="5.8435">
        <ele>2118</ele>
        <time>2000-01-01T04:46:11.000Z</time>
      </trkpt>
      <trkpt lat="44.95936" lon="5.84346">
        <ele>2115.9</ele>
        <time>2000-01-01T04:46:21.000Z</time>
      </trkpt>
      <trkpt lat="44.95927" lon="5.84338">
        <ele>2107</ele>
        <time>2000-01-01T04:46:31.000Z</time>
      </trkpt>
      <trkpt lat="44.95897" lon="5.84317">
        <ele>2091</ele>
        <time>2000-01-01T04:46:41.000Z</time>
      </trkpt>
      <trkpt lat="44.95885" lon="5.84316">
        <ele>2087</ele>
        <time>2000-01-01T04:46:51.000Z</time>
      </trkpt>
      <trkpt lat="44.95877" lon="5.84308">
        <ele>2079</ele>
        <time>2000-01-01T04:47:01.000Z</time>
      </trkpt>
      <trkpt lat="44.95866" lon="5.84303">
        <ele>2077.2</ele>
        <time>2000-01-01T04:47:11.000Z</time>
      </trkpt>
      <trkpt lat="44.95853" lon="5.84289">
        <ele>2064</ele>
        <time>2000-01-01T04:47:21.000Z</time>
      </trkpt>
      <trkpt lat="44.95845" lon="5.84273">
        <ele>2060.7</ele>
        <time>2000-01-01T04:47:31.000Z</time>
      </trkpt>
      <trkpt lat="44.95841" lon="5.84268">
        <ele>2056</ele>
        <time>2000-01-01T04:47:41.000Z</time>
      </trkpt>
      <trkpt lat="44.9582" lon="5.84256">
        <ele>2039</ele>
        <time>2000-01-01T04:47:51.000Z</time>
      </trkpt>
      <trkpt lat="44.9581" lon="5.84253">
        <ele>2039.2</ele>
        <time>2000-01-01T04:48:01.000Z</time>
      </trkpt>
      <trkpt lat="44.95799" lon="5.84252">
        <ele>2027</ele>
        <time>2000-01-01T04:48:11.000Z</time>
      </trkpt>
      <trkpt lat="44.95791" lon="5.8425">
        <ele>2029.7</ele>
        <time>2000-01-01T04:48:21.000Z</time>
      </trkpt>
      <trkpt lat="44.95782" lon="5.84244">
        <ele>2024.6</ele>
        <time>2000-01-01T04:48:31.000Z</time>
      </trkpt>
      <trkpt lat="44.95761" lon="5.84244">
        <ele>2016</ele>
        <time>2000-01-01T04:48:41.000Z</time>
      </trkpt>
      <trkpt lat="44.9574" lon="5.84241">
        <ele>2003</ele>
        <time>2000-01-01T04:48:51.000Z</time>
      </trkpt>
      <trkpt lat="44.9573" lon="5.84233">
        <ele>2001.9</ele>
        <time>2000-01-01T04:49:01.000Z</time>
      </trkpt>
      <trkpt lat="44.95726" lon="5.8422">
        <ele>1998</ele>
        <time>2000-01-01T04:49:11.000Z</time>
      </trkpt>
      <trkpt lat="44.95714" lon="5.84217">
        <ele>1997</ele>
        <time>2000-01-01T04:49:21.000Z</time>
      </trkpt>
      <trkpt lat="44.95689" lon="5.84225">
        <ele>1991</ele>
        <time>2000-01-01T04:49:31.000Z</time>
      </trkpt>
      <trkpt lat="44.957" lon="5.84244">
        <ele>1990</ele>
        <time>2000-01-01T04:49:41.000Z</time>
      </trkpt>
      <trkpt lat="44.95693" lon="5.84251">
        <ele>1985</ele>
        <time>2000-01-01T04:49:51.000Z</time>
      </trkpt>
      <trkpt lat="44.95673" lon="5.84242">
        <ele>1985</ele>
        <time>2000-01-01T04:50:01.000Z</time>
      </trkpt>
      <trkpt lat="44.95693" lon="5.84274">
        <ele>1981</ele>
        <time>2000-01-01T04:50:11.000Z</time>
      </trkpt>
      <trkpt lat="44.95663" lon="5.8426">
        <ele>1975</ele>
        <time>2000-01-01T04:50:21.000Z</time>
      </trkpt>
      <trkpt lat="44.95675" lon="5.84288">
        <ele>1971</ele>
        <time>2000-01-01T04:50:31.000Z</time>
      </trkpt>
      <trkpt lat="44.95682" lon="5.843">
        <ele>1967.1</ele>
        <time>2000-01-01T04:50:41.000Z</time>
      </trkpt>
      <trkpt lat="44.95711" lon="5.84333">
        <ele>1967</ele>
        <time>2000-01-01T04:50:51.000Z</time>
      </trkpt>
      <trkpt lat="44.95719" lon="5.84347">
        <ele>1961.9</ele>
        <time>2000-01-01T04:51:01.000Z</time>
      </trkpt>
      <trkpt lat="44.95725" lon="5.84361">
        <ele>1956</ele>
        <time>2000-01-01T04:51:11.000Z</time>
      </trkpt>
      <trkpt lat="44.9573" lon="5.84375">
        <ele>1957.7</ele>
        <time>2000-01-01T04:51:21.000Z</time>
      </trkpt>
      <trkpt lat="44.95723" lon="5.84386">
        <ele>1948</ele>
        <time>2000-01-01T04:51:31.000Z</time>
      </trkpt>
      <trkpt lat="44.95715" lon="5.84367">
        <ele>1951.7</ele>
        <time>2000-01-01T04:51:41.000Z</time>
      </trkpt>
      <trkpt lat="44.95698" lon="5.84353">
        <ele>1948</ele>
        <time>2000-01-01T04:51:51.000Z</time>
      </trkpt>
      <trkpt lat="44.95689" lon="5.84352">
        <ele>1947.9</ele>
        <time>2000-01-01T04:52:01.000Z</time>
      </trkpt>
      <trkpt lat="44.95681" lon="5.8436">
        <ele>1940.7</ele>
        <time>2000-01-01T04:52:11.000Z</time>
      </trkpt>
      <trkpt lat="44.95681" lon="5.8437">
        <ele>1940</ele>
        <time>2000-01-01T04:52:21.000Z</time>
      </trkpt>
      <trkpt lat="44.95684" lon="5.8438">
        <ele>1931.2</ele>
        <time>2000-01-01T04:52:31.000Z</time>
      </trkpt>
      <trkpt lat="44.95691" lon="5.84391">
        <ele>1928.7</ele>
        <time>2000-01-01T04:52:41.000Z</time>
      </trkpt>
      <trkpt lat="44.95703" lon="5.84416">
        <ele>1928</ele>
        <time>2000-01-01T04:52:51.000Z</time>
      </trkpt>
      <trkpt lat="44.95716" lon="5.84448">
        <ele>1926</ele>
        <time>2000-01-01T04:53:01.000Z</time>
      </trkpt>
      <trkpt lat="44.95734" lon="5.84473">
        <ele>1923</ele>
        <time>2000-01-01T04:53:11.000Z</time>
      </trkpt>
      <trkpt lat="44.9574" lon="5.84494">
        <ele>1918.2</ele>
        <time>2000-01-01T04:53:21.000Z</time>
      </trkpt>
      <trkpt lat="44.95727" lon="5.84511">
        <ele>1899</ele>
        <time>2000-01-01T04:53:31.000Z</time>
      </trkpt>
      <trkpt lat="44.95709" lon="5.84492">
        <ele>1902</ele>
        <time>2000-01-01T04:53:41.000Z</time>
      </trkpt>
      <trkpt lat="44.95703" lon="5.84483">
        <ele>1901.7</ele>
        <time>2000-01-01T04:53:51.000Z</time>
      </trkpt>
      <trkpt lat="44.95695" lon="5.84468">
        <ele>1900</ele>
        <time>2000-01-01T04:54:01.000Z</time>
      </trkpt>
      <trkpt lat="44.95679" lon="5.84448">
        <ele>1899</ele>
        <time>2000-01-01T04:54:11.000Z</time>
      </trkpt>
      <trkpt lat="44.95667" lon="5.84452">
        <ele>1893.3</ele>
        <time>2000-01-01T04:54:21.000Z</time>
      </trkpt>
      <trkpt lat="44.95649" lon="5.84434">
        <ele>1885</ele>
        <time>2000-01-01T04:54:31.000Z</time>
      </trkpt>
      <trkpt lat="44.95641" lon="5.84428">
        <ele>1887.9</ele>
        <time>2000-01-01T04:54:41.000Z</time>
      </trkpt>
      <trkpt lat="44.9563" lon="5.84423">
        <ele>1881</ele>
        <time>2000-01-01T04:54:51.000Z</time>
      </trkpt>
      <trkpt lat="44.9562" lon="5.84416">
        <ele>1881</ele>
        <time>2000-01-01T04:55:01.000Z</time>
      </trkpt>
      <trkpt lat="44.9561" lon="5.8441">
        <ele>1878</ele>
        <time>2000-01-01T04:55:11.000Z</time>
      </trkpt>
      <trkpt lat="44.95599" lon="5.84396">
        <ele>1876.2</ele>
        <time>2000-01-01T04:55:21.000Z</time>
      </trkpt>
      <trkpt lat="44.9559" lon="5.84386">
        <ele>1876</ele>
        <time>2000-01-01T04:55:31.000Z</time>
      </trkpt>
      <trkpt lat="44.95578" lon="5.84384">
        <ele>1872.4</ele>
        <time>2000-01-01T04:55:41.000Z</time>
      </trkpt>
      <trkpt lat="44.95567" lon="5.84386">
        <ele>1868</ele>
        <time>2000-01-01T04:55:51.000Z</time>
      </trkpt>
      <trkpt lat="44.95557" lon="5.84377">
        <ele>1866.3</ele>
        <time>2000-01-01T04:56:01.000Z</time>
      </trkpt>
      <trkpt lat="44.9555" lon="5.84367">
        <ele>1868</ele>
        <time>2000-01-01T04:56:11.000Z</time>
      </trkpt>
      <trkpt lat="44.95538" lon="5.84358">
        <ele>1868.5</ele>
        <time>2000-01-01T04:56:21.000Z</time>
      </trkpt>
      <trkpt lat="44.95526" lon="5.84356">
        <ele>1868</ele>
        <time>2000-01-01T04:56:31.000Z</time>
      </trkpt>
      <trkpt lat="44.95516" lon="5.84358">
        <ele>1864</ele>
        <time>2000-01-01T04:56:41.000Z</time>
      </trkpt>
      <trkpt lat="44.95526" lon="5.84364">
        <ele>1862</ele>
        <time>2000-01-01T04:56:51.000Z</time>
      </trkpt>
      <trkpt lat="44.95513" lon="5.84366">
        <ele>1858.9</ele>
        <time>2000-01-01T04:57:01.000Z</time>
      </trkpt>
      <trkpt lat="44.95499" lon="5.8437">
        <ele>1862</ele>
        <time>2000-01-01T04:57:11.000Z</time>
      </trkpt>
      <trkpt lat="44.95486" lon="5.84375">
        <ele>1853.5</ele>
        <time>2000-01-01T04:57:21.000Z</time>
      </trkpt>
      <trkpt lat="44.95474" lon="5.84378">
        <ele>1855</ele>
        <time>2000-01-01T04:57:31.000Z</time>
      </trkpt>
      <trkpt lat="44.95464" lon="5.84386">
        <ele>1848.3</ele>
        <time>2000-01-01T04:57:41.000Z</time>
      </trkpt>
      <trkpt lat="44.95455" lon="5.84391">
        <ele>1845</ele>
        <time>2000-01-01T04:57:51.000Z</time>
      </trkpt>
      <trkpt lat="44.95444" lon="5.84391">
        <ele>1841.8</ele>
        <time>2000-01-01T04:58:01.000Z</time>
      </trkpt>
      <trkpt lat="44.95457" lon="5.84392">
        <ele>1845</ele>
        <time>2000-01-01T04:58:11.000Z</time>
      </trkpt>
      <trkpt lat="44.9547" lon="5.84391">
        <ele>1847.5</ele>
        <time>2000-01-01T04:58:21.000Z</time>
      </trkpt>
      <trkpt lat="44.95482" lon="5.84393">
        <ele>1841</ele>
        <time>2000-01-01T04:58:31.000Z</time>
      </trkpt>
      <trkpt lat="44.95507" lon="5.84401">
        <ele>1837</ele>
        <time>2000-01-01T04:58:41.000Z</time>
      </trkpt>
      <trkpt lat="44.95518" lon="5.84408">
        <ele>1834.5</ele>
        <time>2000-01-01T04:58:51.000Z</time>
      </trkpt>
      <trkpt lat="44.95508" lon="5.84412">
        <ele>1835</ele>
        <time>2000-01-01T04:59:01.000Z</time>
      </trkpt>
      <trkpt lat="44.95497" lon="5.84419">
        <ele>1828.1</ele>
        <time>2000-01-01T04:59:11.000Z</time>
      </trkpt>
      <trkpt lat="44.95476" lon="5.84427">
        <ele>1834</ele>
        <time>2000-01-01T04:59:21.000Z</time>
      </trkpt>
      <trkpt lat="44.95487" lon="5.84429">
        <ele>1824.2</ele>
        <time>2000-01-01T04:59:31.000Z</time>
      </trkpt>
      <trkpt lat="44.95501" lon="5.8443">
        <ele>1826</ele>
        <time>2000-01-01T04:59:41.000Z</time>
      </trkpt>
      <trkpt lat="44.95512" lon="5.84436">
        <ele>1817.3</ele>
        <time>2000-01-01T04:59:51.000Z</time>
      </trkpt>
      <trkpt lat="44.95522" lon="5.84444">
        <ele>1815</ele>
        <time>2000-01-01T05:00:01.000Z</time>
      </trkpt>
      <trkpt lat="44.95521" lon="5.8446">
        <ele>1805.9</ele>
        <time>2000-01-01T05:00:11.000Z</time>
      </trkpt>
      <trkpt lat="44.95529" lon="5.84472">
        <ele>1798</ele>
        <time>2000-01-01T05:00:21.000Z</time>
      </trkpt>
      <trkpt lat="44.95537" lon="5.84482">
        <ele>1802.2</ele>
        <time>2000-01-01T05:00:31.000Z</time>
      </trkpt>
      <trkpt lat="44.95527" lon="5.84487">
        <ele>1795</ele>
        <time>2000-01-01T05:00:41.000Z</time>
      </trkpt>
      <trkpt lat="44.95518" lon="5.84479">
        <ele>1794.9</ele>
        <time>2000-01-01T05:00:51.000Z</time>
      </trkpt>
      <trkpt lat="44.95523" lon="5.84492">
        <ele>1790</ele>
        <time>2000-01-01T05:01:01.000Z</time>
      </trkpt>
      <trkpt lat="44.95531" lon="5.84503">
        <ele>1789.9</ele>
        <time>2000-01-01T05:01:11.000Z</time>
      </trkpt>
      <trkpt lat="44.95525" lon="5.84516">
        <ele>1782</ele>
        <time>2000-01-01T05:01:21.000Z</time>
      </trkpt>
      <trkpt lat="44.95515" lon="5.8451">
        <ele>1778.4</ele>
        <time>2000-01-01T05:01:31.000Z</time>
      </trkpt>
      <trkpt lat="44.95507" lon="5.84501">
        <ele>1779</ele>
        <time>2000-01-01T05:01:41.000Z</time>
      </trkpt>
      <trkpt lat="44.95522" lon="5.84528">
        <ele>1776</ele>
        <time>2000-01-01T05:01:51.000Z</time>
      </trkpt>
      <trkpt lat="44.95511" lon="5.84533">
        <ele>1765.8</ele>
        <time>2000-01-01T05:02:01.000Z</time>
      </trkpt>
      <trkpt lat="44.95522" lon="5.84542">
        <ele>1767</ele>
        <time>2000-01-01T05:02:11.000Z</time>
      </trkpt>
      <trkpt lat="44.95531" lon="5.84555">
        <ele>1765.8</ele>
        <time>2000-01-01T05:02:21.000Z</time>
      </trkpt>
      <trkpt lat="44.95537" lon="5.84566">
        <ele>1762</ele>
        <time>2000-01-01T05:02:31.000Z</time>
      </trkpt>
      <trkpt lat="44.95545" lon="5.84575">
        <ele>1767.5</ele>
        <time>2000-01-01T05:02:41.000Z</time>
      </trkpt>
      <trkpt lat="44.95543" lon="5.84589">
        <ele>1760</ele>
        <time>2000-01-01T05:02:51.000Z</time>
      </trkpt>
      <trkpt lat="44.95538" lon="5.84604">
        <ele>1758.1</ele>
        <time>2000-01-01T05:03:01.000Z</time>
      </trkpt>
      <trkpt lat="44.95538" lon="5.8462">
        <ele>1751</ele>
        <time>2000-01-01T05:03:11.000Z</time>
      </trkpt>
      <trkpt lat="44.95543" lon="5.84638">
        <ele>1752.9</ele>
        <time>2000-01-01T05:03:21.000Z</time>
      </trkpt>
      <trkpt lat="44.95523" lon="5.84618">
        <ele>1746</ele>
        <time>2000-01-01T05:03:31.000Z</time>
      </trkpt>
      <trkpt lat="44.95525" lon="5.84634">
        <ele>1744.4</ele>
        <time>2000-01-01T05:03:41.000Z</time>
      </trkpt>
      <trkpt lat="44.95529" lon="5.84653">
        <ele>1740</ele>
        <time>2000-01-01T05:03:51.000Z</time>
      </trkpt>
      <trkpt lat="44.95536" lon="5.84669">
        <ele>1738.2</ele>
        <time>2000-01-01T05:04:01.000Z</time>
      </trkpt>
      <trkpt lat="44.95541" lon="5.84684">
        <ele>1734</ele>
        <time>2000-01-01T05:04:11.000Z</time>
      </trkpt>
      <trkpt lat="44.95531" lon="5.84692">
        <ele>1725.8</ele>
        <time>2000-01-01T05:04:21.000Z</time>
      </trkpt>
      <trkpt lat="44.95511" lon="5.84671">
        <ele>1728</ele>
        <time>2000-01-01T05:04:31.000Z</time>
      </trkpt>
      <trkpt lat="44.95505" lon="5.84661">
        <ele>1727.6</ele>
        <time>2000-01-01T05:04:41.000Z</time>
      </trkpt>
      <trkpt lat="44.955" lon="5.84654">
        <ele>1726.7</ele>
        <time>2000-01-01T05:04:51.000Z</time>
      </trkpt>
      <trkpt lat="44.95495" lon="5.84636">
        <ele>1726</ele>
        <time>2000-01-01T05:05:01.000Z</time>
      </trkpt>
      <trkpt lat="44.95489" lon="5.84622">
        <ele>1726.1</ele>
        <time>2000-01-01T05:05:11.000Z</time>
      </trkpt>
      <trkpt lat="44.95478" lon="5.84624">
        <ele>1721</ele>
        <time>2000-01-01T05:05:21.000Z</time>
      </trkpt>
      <trkpt lat="44.95473" lon="5.84609">
        <ele>1719.1</ele>
        <time>2000-01-01T05:05:31.000Z</time>
      </trkpt>
      <trkpt lat="44.95465" lon="5.84598">
        <ele>1717</ele>
        <time>2000-01-01T05:05:41.000Z</time>
      </trkpt>
      <trkpt lat="44.95451" lon="5.84589">
        <ele>1713.7</ele>
        <time>2000-01-01T05:05:51.000Z</time>
      </trkpt>
      <trkpt lat="44.95439" lon="5.84583">
        <ele>1706</ele>
        <time>2000-01-01T05:06:01.000Z</time>
      </trkpt>
      <trkpt lat="44.9545" lon="5.84619">
        <ele>1706</ele>
        <time>2000-01-01T05:06:11.000Z</time>
      </trkpt>
      <trkpt lat="44.95459" lon="5.84634">
        <ele>1707.6</ele>
        <time>2000-01-01T05:06:21.000Z</time>
      </trkpt>
      <trkpt lat="44.95466" lon="5.84648">
        <ele>1702</ele>
        <time>2000-01-01T05:06:31.000Z</time>
      </trkpt>
      <trkpt lat="44.95464" lon="5.84666">
        <ele>1704</ele>
        <time>2000-01-01T05:06:41.000Z</time>
      </trkpt>
      <trkpt lat="44.95466" lon="5.84682">
        <ele>1698</ele>
        <time>2000-01-01T05:06:51.000Z</time>
      </trkpt>
      <trkpt lat="44.95476" lon="5.84714">
        <ele>1693</ele>
        <time>2000-01-01T05:07:01.000Z</time>
      </trkpt>
      <trkpt lat="44.95482" lon="5.84728">
        <ele>1693.6</ele>
        <time>2000-01-01T05:07:11.000Z</time>
      </trkpt>
      <trkpt lat="44.95487" lon="5.84745">
        <ele>1689</ele>
        <time>2000-01-01T05:07:21.000Z</time>
      </trkpt>
      <trkpt lat="44.95497" lon="5.84775">
        <ele>1686</ele>
        <time>2000-01-01T05:07:31.000Z</time>
      </trkpt>
      <trkpt lat="44.95506" lon="5.84783">
        <ele>1679.9</ele>
        <time>2000-01-01T05:07:41.000Z</time>
      </trkpt>
      <trkpt lat="44.95516" lon="5.84777">
        <ele>1684</ele>
        <time>2000-01-01T05:07:51.000Z</time>
      </trkpt>
      <trkpt lat="44.95525" lon="5.84784">
        <ele>1684.9</ele>
        <time>2000-01-01T05:08:01.000Z</time>
      </trkpt>
      <trkpt lat="44.95518" lon="5.84799">
        <ele>1678</ele>
        <time>2000-01-01T05:08:11.000Z</time>
      </trkpt>
      <trkpt lat="44.95514" lon="5.84812">
        <ele>1674.5</ele>
        <time>2000-01-01T05:08:21.000Z</time>
      </trkpt>
      <trkpt lat="44.95515" lon="5.84828">
        <ele>1670</ele>
        <time>2000-01-01T05:08:31.000Z</time>
      </trkpt>
      <trkpt lat="44.9552" lon="5.84843">
        <ele>1669.6</ele>
        <time>2000-01-01T05:08:41.000Z</time>
      </trkpt>
      <trkpt lat="44.95535" lon="5.84866">
        <ele>1669</ele>
        <time>2000-01-01T05:08:51.000Z</time>
      </trkpt>
      <trkpt lat="44.95542" lon="5.84881">
        <ele>1669.8</ele>
        <time>2000-01-01T05:09:01.000Z</time>
      </trkpt>
      <trkpt lat="44.95548" lon="5.84891">
        <ele>1665</ele>
        <time>2000-01-01T05:09:11.000Z</time>
      </trkpt>
      <trkpt lat="44.95553" lon="5.84907">
        <ele>1667.6</ele>
        <time>2000-01-01T05:09:21.000Z</time>
      </trkpt>
      <trkpt lat="44.95543" lon="5.84908">
        <ele>1662</ele>
        <time>2000-01-01T05:09:31.000Z</time>
      </trkpt>
      <trkpt lat="44.95533" lon="5.84898">
        <ele>1660.8</ele>
        <time>2000-01-01T05:09:41.000Z</time>
      </trkpt>
      <trkpt lat="44.95521" lon="5.84893">
        <ele>1657</ele>
        <time>2000-01-01T05:09:51.000Z</time>
      </trkpt>
      <trkpt lat="44.95519" lon="5.8488">
        <ele>1659.9</ele>
        <time>2000-01-01T05:10:01.000Z</time>
      </trkpt>
      <trkpt lat="44.95511" lon="5.84877">
        <ele>1657.6</ele>
        <time>2000-01-01T05:10:11.000Z</time>
      </trkpt>
      <trkpt lat="44.95508" lon="5.84864">
        <ele>1657</ele>
        <time>2000-01-01T05:10:21.000Z</time>
      </trkpt>
      <trkpt lat="44.95501" lon="5.84854">
        <ele>1659.9</ele>
        <time>2000-01-01T05:10:31.000Z</time>
      </trkpt>
      <trkpt lat="44.95488" lon="5.84844">
        <ele>1657</ele>
        <time>2000-01-01T05:10:41.000Z</time>
      </trkpt>
      <trkpt lat="44.95474" lon="5.84845">
        <ele>1654.1</ele>
        <time>2000-01-01T05:10:51.000Z</time>
      </trkpt>
      <trkpt lat="44.95466" lon="5.84853">
        <ele>1649</ele>
        <time>2000-01-01T05:11:01.000Z</time>
      </trkpt>
      <trkpt lat="44.95456" lon="5.84861">
        <ele>1643.8</ele>
        <time>2000-01-01T05:11:11.000Z</time>
      </trkpt>
      <trkpt lat="44.95433" lon="5.84853">
        <ele>1640</ele>
        <time>2000-01-01T05:11:21.000Z</time>
      </trkpt>
      <trkpt lat="44.95423" lon="5.84847">
        <ele>1636.6</ele>
        <time>2000-01-01T05:11:31.000Z</time>
      </trkpt>
      <trkpt lat="44.95415" lon="5.84839">
        <ele>1636</ele>
        <time>2000-01-01T05:11:41.000Z</time>
      </trkpt>
      <trkpt lat="44.95398" lon="5.84814">
        <ele>1631</ele>
        <time>2000-01-01T05:11:51.000Z</time>
      </trkpt>
      <trkpt lat="44.9538" lon="5.84795">
        <ele>1631</ele>
        <time>2000-01-01T05:12:01.000Z</time>
      </trkpt>
      <trkpt lat="44.95358" lon="5.84782">
        <ele>1627</ele>
        <time>2000-01-01T05:12:11.000Z</time>
      </trkpt>
      <trkpt lat="44.95349" lon="5.84772">
        <ele>1628.7</ele>
        <time>2000-01-01T05:12:21.000Z</time>
      </trkpt>
      <trkpt lat="44.95328" lon="5.84761">
        <ele>1623</ele>
        <time>2000-01-01T05:12:31.000Z</time>
      </trkpt>
      <trkpt lat="44.95317" lon="5.84757">
        <ele>1623.1</ele>
        <time>2000-01-01T05:12:41.000Z</time>
      </trkpt>
      <trkpt lat="44.95296" lon="5.84751">
        <ele>1616</ele>
        <time>2000-01-01T05:12:51.000Z</time>
      </trkpt>
      <trkpt lat="44.95274" lon="5.84743">
        <ele>1612</ele>
        <time>2000-01-01T05:13:01.000Z</time>
      </trkpt>
      <trkpt lat="44.95236" lon="5.84734">
        <ele>1602</ele>
        <time>2000-01-01T05:13:11.000Z</time>
      </trkpt>
      <trkpt lat="44.9525" lon="5.84752">
        <ele>1601.4</ele>
        <time>2000-01-01T05:13:21.000Z</time>
      </trkpt>
      <trkpt lat="44.95257" lon="5.84765">
        <ele>1602</ele>
        <time>2000-01-01T05:13:31.000Z</time>
      </trkpt>
      <trkpt lat="44.9528" lon="5.8478">
        <ele>1602</ele>
        <time>2000-01-01T05:13:41.000Z</time>
      </trkpt>
      <trkpt lat="44.95269" lon="5.84787">
        <ele>1598</ele>
        <time>2000-01-01T05:13:51.000Z</time>
      </trkpt>
      <trkpt lat="44.95257" lon="5.84787">
        <ele>1593</ele>
        <time>2000-01-01T05:14:01.000Z</time>
      </trkpt>
      <trkpt lat="44.95246" lon="5.84783">
        <ele>1590</ele>
        <time>2000-01-01T05:14:11.000Z</time>
      </trkpt>
      <trkpt lat="44.95235" lon="5.84778">
        <ele>1586</ele>
        <time>2000-01-01T05:14:21.000Z</time>
      </trkpt>
      <trkpt lat="44.95216" lon="5.84746">
        <ele>1586</ele>
        <time>2000-01-01T05:14:31.000Z</time>
      </trkpt>
      <trkpt lat="44.95208" lon="5.84731">
        <ele>1588.8</ele>
        <time>2000-01-01T05:14:41.000Z</time>
      </trkpt>
      <trkpt lat="44.952" lon="5.84712">
        <ele>1585</ele>
        <time>2000-01-01T05:14:51.000Z</time>
      </trkpt>
      <trkpt lat="44.95189" lon="5.84689">
        <ele>1587</ele>
        <time>2000-01-01T05:15:01.000Z</time>
      </trkpt>
      <trkpt lat="44.95181" lon="5.84662">
        <ele>1583</ele>
        <time>2000-01-01T05:15:11.000Z</time>
      </trkpt>
      <trkpt lat="44.95166" lon="5.8466">
        <ele>1585.2</ele>
        <time>2000-01-01T05:15:21.000Z</time>
      </trkpt>
      <trkpt lat="44.95157" lon="5.84669">
        <ele>1580</ele>
        <time>2000-01-01T05:15:31.000Z</time>
      </trkpt>
      <trkpt lat="44.95145" lon="5.84673">
        <ele>1575.4</ele>
        <time>2000-01-01T05:15:41.000Z</time>
      </trkpt>
      <trkpt lat="44.95138" lon="5.84685">
        <ele>1569</ele>
        <time>2000-01-01T05:15:51.000Z</time>
      </trkpt>
      <trkpt lat="44.95145" lon="5.84701">
        <ele>1565.7</ele>
        <time>2000-01-01T05:16:01.000Z</time>
      </trkpt>
      <trkpt lat="44.95116" lon="5.84707">
        <ele>1560</ele>
        <time>2000-01-01T05:16:11.000Z</time>
      </trkpt>
      <trkpt lat="44.95099" lon="5.84713">
        <ele>1553.2</ele>
        <time>2000-01-01T05:16:21.000Z</time>
      </trkpt>
      <trkpt lat="44.95081" lon="5.84716">
        <ele>1552</ele>
        <time>2000-01-01T05:16:31.000Z</time>
      </trkpt>
      <trkpt lat="44.95099" lon="5.84742">
        <ele>1541</ele>
        <time>2000-01-01T05:16:41.000Z</time>
      </trkpt>
      <trkpt lat="44.95081" lon="5.84743">
        <ele>1539.6</ele>
        <time>2000-01-01T05:16:51.000Z</time>
      </trkpt>
      <trkpt lat="44.95057" lon="5.84743">
        <ele>1538</ele>
        <time>2000-01-01T05:17:01.000Z</time>
      </trkpt>
      <trkpt lat="44.95042" lon="5.84739">
        <ele>1537.4</ele>
        <time>2000-01-01T05:17:11.000Z</time>
      </trkpt>
      <trkpt lat="44.95029" lon="5.84732">
        <ele>1537</ele>
        <time>2000-01-01T05:17:21.000Z</time>
      </trkpt>
      <trkpt lat="44.95003" lon="5.84705">
        <ele>1537</ele>
        <time>2000-01-01T05:17:31.000Z</time>
      </trkpt>
      <trkpt lat="44.94996" lon="5.84695">
        <ele>1536.4</ele>
        <time>2000-01-01T05:17:41.000Z</time>
      </trkpt>
      <trkpt lat="44.94982" lon="5.8468">
        <ele>1537</ele>
        <time>2000-01-01T05:17:51.000Z</time>
      </trkpt>
      <trkpt lat="44.94958" lon="5.84657">
        <ele>1528</ele>
        <time>2000-01-01T05:18:01.000Z</time>
      </trkpt>
      <trkpt lat="44.94945" lon="5.84643">
        <ele>1527.5</ele>
        <time>2000-01-01T05:18:11.000Z</time>
      </trkpt>
      <trkpt lat="44.94931" lon="5.84623">
        <ele>1523</ele>
        <time>2000-01-01T05:18:21.000Z</time>
      </trkpt>
      <trkpt lat="44.94916" lon="5.84611">
        <ele>1518.8</ele>
        <time>2000-01-01T05:18:31.000Z</time>
      </trkpt>
      <trkpt lat="44.94904" lon="5.84597">
        <ele>1516</ele>
        <time>2000-01-01T05:18:41.000Z</time>
      </trkpt>
      <trkpt lat="44.94886" lon="5.84566">
        <ele>1514</ele>
        <time>2000-01-01T05:18:51.000Z</time>
      </trkpt>
      <trkpt lat="44.94868" lon="5.84546">
        <ele>1510</ele>
        <time>2000-01-01T05:19:01.000Z</time>
      </trkpt>
      <trkpt lat="44.94861" lon="5.84536">
        <ele>1511.2</ele>
        <time>2000-01-01T05:19:11.000Z</time>
      </trkpt>
      <trkpt lat="44.94846" lon="5.84511">
        <ele>1504</ele>
        <time>2000-01-01T05:19:21.000Z</time>
      </trkpt>
      <trkpt lat="44.94836" lon="5.84501">
        <ele>1504.4</ele>
        <time>2000-01-01T05:19:31.000Z</time>
      </trkpt>
      <trkpt lat="44.94829" lon="5.84492">
        <ele>1495</ele>
        <time>2000-01-01T05:19:41.000Z</time>
      </trkpt>
      <trkpt lat="44.94815" lon="5.84468">
        <ele>1494</ele>
        <time>2000-01-01T05:19:51.000Z</time>
      </trkpt>
      <trkpt lat="44.94809" lon="5.84455">
        <ele>1495.5</ele>
        <time>2000-01-01T05:20:01.000Z</time>
      </trkpt>
      <trkpt lat="44.94803" lon="5.8444">
        <ele>1493</ele>
        <time>2000-01-01T05:20:11.000Z</time>
      </trkpt>
      <trkpt lat="44.94804" lon="5.84459">
        <ele>1491.3</ele>
        <time>2000-01-01T05:20:21.000Z</time>
      </trkpt>
      <trkpt lat="44.94806" lon="5.84474">
        <ele>1487</ele>
        <time>2000-01-01T05:20:31.000Z</time>
      </trkpt>
      <trkpt lat="44.94806" lon="5.84489">
        <ele>1487.9</ele>
        <time>2000-01-01T05:20:41.000Z</time>
      </trkpt>
      <trkpt lat="44.94797" lon="5.84482">
        <ele>1477</ele>
        <time>2000-01-01T05:20:51.000Z</time>
      </trkpt>
      <trkpt lat="44.94781" lon="5.84439">
        <ele>1477</ele>
        <time>2000-01-01T05:21:01.000Z</time>
      </trkpt>
      <trkpt lat="44.94773" lon="5.84424">
        <ele>1474.5</ele>
        <time>2000-01-01T05:21:11.000Z</time>
      </trkpt>
      <trkpt lat="44.94768" lon="5.8441">
        <ele>1476</ele>
        <time>2000-01-01T05:21:21.000Z</time>
      </trkpt>
      <trkpt lat="44.94766" lon="5.84395">
        <ele>1475.6</ele>
        <time>2000-01-01T05:21:31.000Z</time>
      </trkpt>
      <trkpt lat="44.94768" lon="5.84379">
        <ele>1476</ele>
        <time>2000-01-01T05:21:41.000Z</time>
      </trkpt>
      <trkpt lat="44.94766" lon="5.84364">
        <ele>1485.2</ele>
        <time>2000-01-01T05:21:51.000Z</time>
      </trkpt>
      <trkpt lat="44.94765" lon="5.84349">
        <ele>1484</ele>
        <time>2000-01-01T05:22:01.000Z</time>
      </trkpt>
      <trkpt lat="44.94772" lon="5.84341">
        <ele>1495.7</ele>
        <time>2000-01-01T05:22:11.000Z</time>
      </trkpt>
      <trkpt lat="44.94778" lon="5.84332">
        <ele>1502.3</ele>
        <time>2000-01-01T05:22:21.000Z</time>
      </trkpt>
      <trkpt lat="44.94786" lon="5.84314">
        <ele>1505</ele>
        <time>2000-01-01T05:22:31.000Z</time>
      </trkpt>
      <trkpt lat="44.94793" lon="5.84304">
        <ele>1514.9</ele>
        <time>2000-01-01T05:22:41.000Z</time>
      </trkpt>
      <trkpt lat="44.94797" lon="5.84294">
        <ele>1517.1</ele>
        <time>2000-01-01T05:22:51.000Z</time>
      </trkpt>
      <trkpt lat="44.94808" lon="5.84285">
        <ele>1518</ele>
        <time>2000-01-01T05:23:01.000Z</time>
      </trkpt>
      <trkpt lat="44.94814" lon="5.84279">
        <ele>1527.9</ele>
        <time>2000-01-01T05:23:11.000Z</time>
      </trkpt>
      <trkpt lat="44.94827" lon="5.84263">
        <ele>1527</ele>
        <time>2000-01-01T05:23:21.000Z</time>
      </trkpt>
      <trkpt lat="44.94843" lon="5.8425">
        <ele>1544</ele>
        <time>2000-01-01T05:23:31.000Z</time>
      </trkpt>
      <trkpt lat="44.94844" lon="5.84236">
        <ele>1531</ele>
        <time>2000-01-01T05:23:41.000Z</time>
      </trkpt>
      <trkpt lat="44.94858" lon="5.84197">
        <ele>1533</ele>
        <time>2000-01-01T05:23:51.000Z</time>
      </trkpt>
      <trkpt lat="44.9486" lon="5.84159">
        <ele>1535</ele>
        <time>2000-01-01T05:24:01.000Z</time>
      </trkpt>
      <trkpt lat="44.94853" lon="5.84134">
        <ele>1541.9</ele>
        <time>2000-01-01T05:24:11.000Z</time>
      </trkpt>
      <trkpt lat="44.94836" lon="5.84086">
        <ele>1546</ele>
        <time>2000-01-01T05:24:21.000Z</time>
      </trkpt>
      <trkpt lat="44.94821" lon="5.84062">
        <ele>1549</ele>
        <time>2000-01-01T05:24:31.000Z</time>
      </trkpt>
      <trkpt lat="44.94799" lon="5.8403">
        <ele>1551</ele>
        <time>2000-01-01T05:24:41.000Z</time>
      </trkpt>
      <trkpt lat="44.94778" lon="5.84003">
        <ele>1552</ele>
        <time>2000-01-01T05:24:51.000Z</time>
      </trkpt>
      <trkpt lat="44.94757" lon="5.83978">
        <ele>1554</ele>
        <time>2000-01-01T05:25:01.000Z</time>
      </trkpt>
      <trkpt lat="44.94744" lon="5.8395">
        <ele>1555</ele>
        <time>2000-01-01T05:25:11.000Z</time>
      </trkpt>
      <trkpt lat="44.9473" lon="5.83927">
        <ele>1556</ele>
        <time>2000-01-01T05:25:21.000Z</time>
      </trkpt>
      <trkpt lat="44.94716" lon="5.83907">
        <ele>1556</ele>
        <time>2000-01-01T05:25:31.000Z</time>
      </trkpt>
      <trkpt lat="44.94696" lon="5.839">
        <ele>1550</ele>
        <time>2000-01-01T05:25:41.000Z</time>
      </trkpt>
      <trkpt lat="44.94685" lon="5.83878">
        <ele>1548.9</ele>
        <time>2000-01-01T05:25:51.000Z</time>
      </trkpt>
      <trkpt lat="44.94668" lon="5.83881">
        <ele>1542</ele>
        <time>2000-01-01T05:26:01.000Z</time>
      </trkpt>
      <trkpt lat="44.9465" lon="5.83878">
        <ele>1539.6</ele>
        <time>2000-01-01T05:26:11.000Z</time>
      </trkpt>
      <trkpt lat="44.94619" lon="5.83878">
        <ele>1531</ele>
        <time>2000-01-01T05:26:21.000Z</time>
      </trkpt>
      <trkpt lat="44.94596" lon="5.83867">
        <ele>1525</ele>
        <time>2000-01-01T05:26:31.000Z</time>
      </trkpt>
      <trkpt lat="44.94614" lon="5.83814">
        <ele>1516</ele>
        <time>2000-01-01T05:26:41.000Z</time>
      </trkpt>
      <trkpt lat="44.94638" lon="5.83787">
        <ele>1505</ele>
        <time>2000-01-01T05:26:51.000Z</time>
      </trkpt>
      <trkpt lat="44.94656" lon="5.83768">
        <ele>1499</ele>
        <time>2000-01-01T05:27:01.000Z</time>
      </trkpt>
      <trkpt lat="44.94675" lon="5.83747">
        <ele>1492</ele>
        <time>2000-01-01T05:27:11.000Z</time>
      </trkpt>
      <trkpt lat="44.94695" lon="5.83725">
        <ele>1480</ele>
        <time>2000-01-01T05:27:21.000Z</time>
      </trkpt>
      <trkpt lat="44.94716" lon="5.83706">
        <ele>1474</ele>
        <time>2000-01-01T05:27:31.000Z</time>
      </trkpt>
      <trkpt lat="44.94731" lon="5.83686">
        <ele>1471</ele>
        <time>2000-01-01T05:27:41.000Z</time>
      </trkpt>
      <trkpt lat="44.94737" lon="5.8367">
        <ele>1468.8</ele>
        <time>2000-01-01T05:27:51.000Z</time>
      </trkpt>
      <trkpt lat="44.94745" lon="5.83656">
        <ele>1461</ele>
        <time>2000-01-01T05:28:01.000Z</time>
      </trkpt>
      <trkpt lat="44.94754" lon="5.83647">
        <ele>1464.4</ele>
        <time>2000-01-01T05:28:11.000Z</time>
      </trkpt>
      <trkpt lat="44.94803" lon="5.83592">
        <ele>1458</ele>
        <time>2000-01-01T05:28:21.000Z</time>
      </trkpt>
      <trkpt lat="44.94813" lon="5.83577">
        <ele>1457.5</ele>
        <time>2000-01-01T05:28:31.000Z</time>
      </trkpt>
      <trkpt lat="44.94824" lon="5.83566">
        <ele>1456</ele>
        <time>2000-01-01T05:28:41.000Z</time>
      </trkpt>
      <trkpt lat="44.94834" lon="5.83559">
        <ele>1459.5</ele>
        <time>2000-01-01T05:28:51.000Z</time>
      </trkpt>
      <trkpt lat="44.94845" lon="5.8355">
        <ele>1459</ele>
        <time>2000-01-01T05:29:01.000Z</time>
      </trkpt>
      <trkpt lat="44.94865" lon="5.83543">
        <ele>1463</ele>
        <time>2000-01-01T05:29:11.000Z</time>
      </trkpt>
      <trkpt lat="44.94895" lon="5.83514">
        <ele>1456</ele>
        <time>2000-01-01T05:29:21.000Z</time>
      </trkpt>
      <trkpt lat="44.94899" lon="5.8349">
        <ele>1461.6</ele>
        <time>2000-01-01T05:29:31.000Z</time>
      </trkpt>
      <trkpt lat="44.94908" lon="5.83466">
        <ele>1450</ele>
        <time>2000-01-01T05:29:41.000Z</time>
      </trkpt>
      <trkpt lat="44.94917" lon="5.83447">
        <ele>1452.2</ele>
        <time>2000-01-01T05:29:51.000Z</time>
      </trkpt>
      <trkpt lat="44.94926" lon="5.83426">
        <ele>1442</ele>
        <time>2000-01-01T05:30:01.000Z</time>
      </trkpt>
      <trkpt lat="44.94936" lon="5.83381">
        <ele>1431</ele>
        <time>2000-01-01T05:30:11.000Z</time>
      </trkpt>
      <trkpt lat="44.94936" lon="5.83353">
        <ele>1420</ele>
        <time>2000-01-01T05:30:21.000Z</time>
      </trkpt>
      <trkpt lat="44.94932" lon="5.83324">
        <ele>1409</ele>
        <time>2000-01-01T05:30:31.000Z</time>
      </trkpt>
      <trkpt lat="44.94924" lon="5.83295">
        <ele>1395</ele>
        <time>2000-01-01T05:30:41.000Z</time>
      </trkpt>
      <trkpt lat="44.94911" lon="5.83279">
        <ele>1387.2</ele>
        <time>2000-01-01T05:30:51.000Z</time>
      </trkpt>
      <trkpt lat="44.94902" lon="5.83251">
        <ele>1373</ele>
        <time>2000-01-01T05:31:01.000Z</time>
      </trkpt>
      <trkpt lat="44.94893" lon="5.83227">
        <ele>1360</ele>
        <time>2000-01-01T05:31:11.000Z</time>
      </trkpt>
      <trkpt lat="44.94877" lon="5.83219">
        <ele>1354.4</ele>
        <time>2000-01-01T05:31:21.000Z</time>
      </trkpt>
      <trkpt lat="44.94882" lon="5.83204">
        <ele>1349</ele>
        <time>2000-01-01T05:31:31.000Z</time>
      </trkpt>
      <trkpt lat="44.9487" lon="5.83199">
        <ele>1345.8</ele>
        <time>2000-01-01T05:31:41.000Z</time>
      </trkpt>
      <trkpt lat="44.94879" lon="5.83182">
        <ele>1339</ele>
        <time>2000-01-01T05:31:51.000Z</time>
      </trkpt>
      <trkpt lat="44.94876" lon="5.83152">
        <ele>1331</ele>
        <time>2000-01-01T05:32:01.000Z</time>
      </trkpt>
      <trkpt lat="44.94869" lon="5.831">
        <ele>1322</ele>
        <time>2000-01-01T05:32:11.000Z</time>
      </trkpt>
      <trkpt lat="44.94878" lon="5.83092">
        <ele>1318.2</ele>
        <time>2000-01-01T05:32:21.000Z</time>
      </trkpt>
      <trkpt lat="44.94888" lon="5.83089">
        <ele>1320</ele>
        <time>2000-01-01T05:32:31.000Z</time>
      </trkpt>
      <trkpt lat="44.94898" lon="5.83083">
        <ele>1321.8</ele>
        <time>2000-01-01T05:32:41.000Z</time>
      </trkpt>
      <trkpt lat="44.94908" lon="5.83076">
        <ele>1321</ele>
        <time>2000-01-01T05:32:51.000Z</time>
      </trkpt>
      <trkpt lat="44.94918" lon="5.83072">
        <ele>1324.4</ele>
        <time>2000-01-01T05:33:01.000Z</time>
      </trkpt>
      <trkpt lat="44.94939" lon="5.83068">
        <ele>1323</ele>
        <time>2000-01-01T05:33:11.000Z</time>
      </trkpt>
      <trkpt lat="44.94959" lon="5.83054">
        <ele>1324</ele>
        <time>2000-01-01T05:33:21.000Z</time>
      </trkpt>
      <trkpt lat="44.94976" lon="5.83038">
        <ele>1326</ele>
        <time>2000-01-01T05:33:31.000Z</time>
      </trkpt>
      <trkpt lat="44.94986" lon="5.8303">
        <ele>1333.6</ele>
        <time>2000-01-01T05:33:41.000Z</time>
      </trkpt>
      <trkpt lat="44.94995" lon="5.83025">
        <ele>1332</ele>
        <time>2000-01-01T05:33:51.000Z</time>
      </trkpt>
      <trkpt lat="44.95004" lon="5.83017">
        <ele>1339.1</ele>
        <time>2000-01-01T05:34:01.000Z</time>
      </trkpt>
      <trkpt lat="44.95007" lon="5.83001">
        <ele>1335</ele>
        <time>2000-01-01T05:34:11.000Z</time>
      </trkpt>
      <trkpt lat="44.95013" lon="5.82951">
        <ele>1337</ele>
        <time>2000-01-01T05:34:21.000Z</time>
      </trkpt>
      <trkpt lat="44.95012" lon="5.82934">
        <ele>1340.6</ele>
        <time>2000-01-01T05:34:31.000Z</time>
      </trkpt>
      <trkpt lat="44.95012" lon="5.82919">
        <ele>1337</ele>
        <time>2000-01-01T05:34:41.000Z</time>
      </trkpt>
      <trkpt lat="44.95019" lon="5.82889">
        <ele>1338</ele>
        <time>2000-01-01T05:34:51.000Z</time>
      </trkpt>
      <trkpt lat="44.95025" lon="5.82877">
        <ele>1342.8</ele>
        <time>2000-01-01T05:35:01.000Z</time>
      </trkpt>
      <trkpt lat="44.95045" lon="5.82822">
        <ele>1340</ele>
        <time>2000-01-01T05:35:11.000Z</time>
      </trkpt>
      <trkpt lat="44.95047" lon="5.82806">
        <ele>1345.2</ele>
        <time>2000-01-01T05:35:21.000Z</time>
      </trkpt>
      <trkpt lat="44.9505" lon="5.82792">
        <ele>1342</ele>
        <time>2000-01-01T05:35:31.000Z</time>
      </trkpt>
      <trkpt lat="44.95056" lon="5.82779">
        <ele>1344.2</ele>
        <time>2000-01-01T05:35:41.000Z</time>
      </trkpt>
      <trkpt lat="44.95065" lon="5.82767">
        <ele>1343</ele>
        <time>2000-01-01T05:35:51.000Z</time>
      </trkpt>
      <trkpt lat="44.95076" lon="5.82757">
        <ele>1345.6</ele>
        <time>2000-01-01T05:36:01.000Z</time>
      </trkpt>
      <trkpt lat="44.95086" lon="5.8276">
        <ele>1345</ele>
        <time>2000-01-01T05:36:11.000Z</time>
      </trkpt>
      <trkpt lat="44.95098" lon="5.82759">
        <ele>1349.4</ele>
        <time>2000-01-01T05:36:21.000Z</time>
      </trkpt>
      <trkpt lat="44.95109" lon="5.82751">
        <ele>1345</ele>
        <time>2000-01-01T05:36:31.000Z</time>
      </trkpt>
      <trkpt lat="44.95118" lon="5.82743">
        <ele>1350.4</ele>
        <time>2000-01-01T05:36:41.000Z</time>
      </trkpt>
      <trkpt lat="44.95118" lon="5.82727">
        <ele>1345</ele>
        <time>2000-01-01T05:36:51.000Z</time>
      </trkpt>
      <trkpt lat="44.95112" lon="5.82715">
        <ele>1344.9</ele>
        <time>2000-01-01T05:37:01.000Z</time>
      </trkpt>
      <trkpt lat="44.95125" lon="5.8269">
        <ele>1339</ele>
        <time>2000-01-01T05:37:11.000Z</time>
      </trkpt>
      <trkpt lat="44.95138" lon="5.82655">
        <ele>1338</ele>
        <time>2000-01-01T05:37:21.000Z</time>
      </trkpt>
      <trkpt lat="44.95147" lon="5.82642">
        <ele>1338.9</ele>
        <time>2000-01-01T05:37:31.000Z</time>
      </trkpt>
      <trkpt lat="44.9517" lon="5.82614">
        <ele>1337</ele>
        <time>2000-01-01T05:37:41.000Z</time>
      </trkpt>
      <trkpt lat="44.95174" lon="5.826">
        <ele>1340.7</ele>
        <time>2000-01-01T05:37:51.000Z</time>
      </trkpt>
      <trkpt lat="44.95171" lon="5.82583">
        <ele>1336</ele>
        <time>2000-01-01T05:38:01.000Z</time>
      </trkpt>
      <trkpt lat="44.95166" lon="5.82569">
        <ele>1334.3</ele>
        <time>2000-01-01T05:38:11.000Z</time>
      </trkpt>
      <trkpt lat="44.95163" lon="5.82556">
        <ele>1330</ele>
        <time>2000-01-01T05:38:21.000Z</time>
      </trkpt>
      <trkpt lat="44.95161" lon="5.82542">
        <ele>1330.2</ele>
        <time>2000-01-01T05:38:31.000Z</time>
      </trkpt>
      <trkpt lat="44.95154" lon="5.82513">
        <ele>1323</ele>
        <time>2000-01-01T05:38:41.000Z</time>
      </trkpt>
      <trkpt lat="44.9515" lon="5.82492">
        <ele>1322.5</ele>
        <time>2000-01-01T05:38:51.000Z</time>
      </trkpt>
      <trkpt lat="44.95143" lon="5.82469">
        <ele>1317</ele>
        <time>2000-01-01T05:39:01.000Z</time>
      </trkpt>
      <trkpt lat="44.9514" lon="5.82411">
        <ele>1310</ele>
        <time>2000-01-01T05:39:11.000Z</time>
      </trkpt>
      <trkpt lat="44.95139" lon="5.82366">
        <ele>1304</ele>
        <time>2000-01-01T05:39:21.000Z</time>
      </trkpt>
      <trkpt lat="44.95136" lon="5.82341">
        <ele>1303.7</ele>
        <time>2000-01-01T05:39:31.000Z</time>
      </trkpt>
      <trkpt lat="44.95134" lon="5.82329">
        <ele>1299</ele>
        <time>2000-01-01T05:39:41.000Z</time>
      </trkpt>
      <trkpt lat="44.95134" lon="5.82308">
        <ele>1299.6</ele>
        <time>2000-01-01T05:39:51.000Z</time>
      </trkpt>
      <trkpt lat="44.95136" lon="5.82297">
        <ele>1297</ele>
        <time>2000-01-01T05:40:01.000Z</time>
      </trkpt>
      <trkpt lat="44.95137" lon="5.82285">
        <ele>1297.5</ele>
        <time>2000-01-01T05:40:11.000Z</time>
      </trkpt>
      <trkpt lat="44.95143" lon="5.82266">
        <ele>1293</ele>
        <time>2000-01-01T05:40:21.000Z</time>
      </trkpt>
      <trkpt lat="44.95131" lon="5.82271">
        <ele>1294.4</ele>
        <time>2000-01-01T05:40:31.000Z</time>
      </trkpt>
      <trkpt lat="44.95123" lon="5.82277">
        <ele>1291</ele>
        <time>2000-01-01T05:40:41.000Z</time>
      </trkpt>
      <trkpt lat="44.95112" lon="5.82283">
        <ele>1292.9</ele>
        <time>2000-01-01T05:40:51.000Z</time>
      </trkpt>
      <trkpt lat="44.95105" lon="5.82288">
        <ele>1291</ele>
        <time>2000-01-01T05:41:01.000Z</time>
      </trkpt>
      <trkpt lat="44.95091" lon="5.82294">
        <ele>1292.2</ele>
        <time>2000-01-01T05:41:11.000Z</time>
      </trkpt>
      <trkpt lat="44.95078" lon="5.82301">
        <ele>1291</ele>
        <time>2000-01-01T05:41:21.000Z</time>
      </trkpt>
      <trkpt lat="44.95071" lon="5.82306">
        <ele>1292.2</ele>
        <time>2000-01-01T05:41:31.000Z</time>
      </trkpt>
      <trkpt lat="44.95061" lon="5.82311">
        <ele>1292</ele>
        <time>2000-01-01T05:41:41.000Z</time>
      </trkpt>
      <trkpt lat="44.95052" lon="5.82317">
        <ele>1290</ele>
        <time>2000-01-01T05:41:51.000Z</time>
      </trkpt>
      <trkpt lat="44.95042" lon="5.82321">
        <ele>1291</ele>
        <time>2000-01-01T05:42:01.000Z</time>
      </trkpt>
      <trkpt lat="44.95033" lon="5.82327">
        <ele>1289</ele>
        <time>2000-01-01T05:42:11.000Z</time>
      </trkpt>
      <trkpt lat="44.95018" lon="5.82339">
        <ele>1290.2</ele>
        <time>2000-01-01T05:42:21.000Z</time>
      </trkpt>
      <trkpt lat="44.95011" lon="5.82341">
        <ele>1289</ele>
        <time>2000-01-01T05:42:31.000Z</time>
      </trkpt>
      <trkpt lat="44.95001" lon="5.82345">
        <ele>1288.4</ele>
        <time>2000-01-01T05:42:41.000Z</time>
      </trkpt>
      <trkpt lat="44.94984" lon="5.82361">
        <ele>1286</ele>
        <time>2000-01-01T05:42:51.000Z</time>
      </trkpt>
      <trkpt lat="44.94977" lon="5.8237">
        <ele>1286.8</ele>
        <time>2000-01-01T05:43:01.000Z</time>
      </trkpt>
      <trkpt lat="44.94972" lon="5.82379">
        <ele>1286.9</ele>
        <time>2000-01-01T05:43:11.000Z</time>
      </trkpt>
      <trkpt lat="44.94966" lon="5.82384">
        <ele>1285</ele>
        <time>2000-01-01T05:43:21.000Z</time>
      </trkpt>
      <trkpt lat="44.94957" lon="5.82381">
        <ele>1285.9</ele>
        <time>2000-01-01T05:43:31.000Z</time>
      </trkpt>
      <trkpt lat="44.94929" lon="5.82343">
        <ele>1277</ele>
        <time>2000-01-01T05:43:41.000Z</time>
      </trkpt>
      <trkpt lat="44.94923" lon="5.82336">
        <ele>1276.8</ele>
        <time>2000-01-01T05:43:51.000Z</time>
      </trkpt>
      <trkpt lat="44.94908" lon="5.82314">
        <ele>1272</ele>
        <time>2000-01-01T05:44:01.000Z</time>
      </trkpt>
      <trkpt lat="44.949" lon="5.82296">
        <ele>1271.5</ele>
        <time>2000-01-01T05:44:11.000Z</time>
      </trkpt>
      <trkpt lat="44.94897" lon="5.82278">
        <ele>1268</ele>
        <time>2000-01-01T05:44:21.000Z</time>
      </trkpt>
      <trkpt lat="44.94887" lon="5.82252">
        <ele>1265</ele>
        <time>2000-01-01T05:44:31.000Z</time>
      </trkpt>
      <trkpt lat="44.94883" lon="5.82239">
        <ele>1264.3</ele>
        <time>2000-01-01T05:44:41.000Z</time>
      </trkpt>
      <trkpt lat="44.94878" lon="5.82215">
        <ele>1260</ele>
        <time>2000-01-01T05:44:51.000Z</time>
      </trkpt>
      <trkpt lat="44.94877" lon="5.82195">
        <ele>1258.1</ele>
        <time>2000-01-01T05:45:01.000Z</time>
      </trkpt>
      <trkpt lat="44.94884" lon="5.82137">
        <ele>1248</ele>
        <time>2000-01-01T05:45:11.000Z</time>
      </trkpt>
      <trkpt lat="44.94881" lon="5.82124">
        <ele>1247.4</ele>
        <time>2000-01-01T05:45:21.000Z</time>
      </trkpt>
      <trkpt lat="44.94876" lon="5.82111">
        <ele>1246</ele>
        <time>2000-01-01T05:45:31.000Z</time>
      </trkpt>
      <trkpt lat="44.94869" lon="5.82098">
        <ele>1245.2</ele>
        <time>2000-01-01T05:45:41.000Z</time>
      </trkpt>
      <trkpt lat="44.94861" lon="5.82087">
        <ele>1245</ele>
        <time>2000-01-01T05:45:51.000Z</time>
      </trkpt>
      <trkpt lat="44.94855" lon="5.82075">
        <ele>1244.9</ele>
        <time>2000-01-01T05:46:01.000Z</time>
      </trkpt>
      <trkpt lat="44.94845" lon="5.82049">
        <ele>1245</ele>
        <time>2000-01-01T05:46:11.000Z</time>
      </trkpt>
      <trkpt lat="44.9484" lon="5.82038">
        <ele>1245.1</ele>
        <time>2000-01-01T05:46:21.000Z</time>
      </trkpt>
      <trkpt lat="44.94832" lon="5.82028">
        <ele>1245</ele>
        <time>2000-01-01T05:46:31.000Z</time>
      </trkpt>
      <trkpt lat="44.94826" lon="5.82018">
        <ele>1245.1</ele>
        <time>2000-01-01T05:46:41.000Z</time>
      </trkpt>
      <trkpt lat="44.94818" lon="5.82008">
        <ele>1244</ele>
        <time>2000-01-01T05:46:51.000Z</time>
      </trkpt>
      <trkpt lat="44.94812" lon="5.81998">
        <ele>1243.9</ele>
        <time>2000-01-01T05:47:01.000Z</time>
      </trkpt>
      <trkpt lat="44.94796" lon="5.81978">
        <ele>1239</ele>
        <time>2000-01-01T05:47:11.000Z</time>
      </trkpt>
      <trkpt lat="44.94785" lon="5.81981">
        <ele>1239.7</ele>
        <time>2000-01-01T05:47:21.000Z</time>
      </trkpt>
      <trkpt lat="44.9478" lon="5.81993">
        <ele>1238</ele>
        <time>2000-01-01T05:47:31.000Z</time>
      </trkpt>
      <trkpt lat="44.94775" lon="5.82009">
        <ele>1239.6</ele>
        <time>2000-01-01T05:47:41.000Z</time>
      </trkpt>
      <trkpt lat="44.94763" lon="5.82054">
        <ele>1238</ele>
        <time>2000-01-01T05:47:51.000Z</time>
      </trkpt>
      <trkpt lat="44.94759" lon="5.82067">
        <ele>1239</ele>
        <time>2000-01-01T05:48:01.000Z</time>
      </trkpt>
      <trkpt lat="44.94753" lon="5.82082">
        <ele>1238</ele>
        <time>2000-01-01T05:48:11.000Z</time>
      </trkpt>
      <trkpt lat="44.94748" lon="5.82098">
        <ele>1240</ele>
        <time>2000-01-01T05:48:21.000Z</time>
      </trkpt>
      <trkpt lat="44.94743" lon="5.8211">
        <ele>1238</ele>
        <time>2000-01-01T05:48:31.000Z</time>
      </trkpt>
      <trkpt lat="44.94736" lon="5.82124">
        <ele>1239.6</ele>
        <time>2000-01-01T05:48:41.000Z</time>
      </trkpt>
      <trkpt lat="44.9473" lon="5.8214">
        <ele>1237</ele>
        <time>2000-01-01T05:48:51.000Z</time>
      </trkpt>
      <trkpt lat="44.94723" lon="5.82155">
        <ele>1239.9</ele>
        <time>2000-01-01T05:49:01.000Z</time>
      </trkpt>
      <trkpt lat="44.94717" lon="5.82167">
        <ele>1237</ele>
        <time>2000-01-01T05:49:11.000Z</time>
      </trkpt>
      <trkpt lat="44.9471" lon="5.82177">
        <ele>1238.2</ele>
        <time>2000-01-01T05:49:21.000Z</time>
      </trkpt>
      <trkpt lat="44.94703" lon="5.82191">
        <ele>1234</ele>
        <time>2000-01-01T05:49:31.000Z</time>
      </trkpt>
      <trkpt lat="44.94696" lon="5.82202">
        <ele>1238.5</ele>
        <time>2000-01-01T05:49:41.000Z</time>
      </trkpt>
      <trkpt lat="44.94689" lon="5.8221">
        <ele>1232</ele>
        <time>2000-01-01T05:49:51.000Z</time>
      </trkpt>
      <trkpt lat="44.94681" lon="5.82215">
        <ele>1234.9</ele>
        <time>2000-01-01T05:50:01.000Z</time>
      </trkpt>
      <trkpt lat="44.94672" lon="5.82222">
        <ele>1232.9</ele>
        <time>2000-01-01T05:50:11.000Z</time>
      </trkpt>
      <trkpt lat="44.94643" lon="5.82239">
        <ele>1224</ele>
        <time>2000-01-01T05:50:21.000Z</time>
      </trkpt>
      <trkpt lat="44.94632" lon="5.82239">
        <ele>1225.3</ele>
        <time>2000-01-01T05:50:31.000Z</time>
      </trkpt>
      <trkpt lat="44.9462" lon="5.82238">
        <ele>1219</ele>
        <time>2000-01-01T05:50:41.000Z</time>
      </trkpt>
      <trkpt lat="44.94599" lon="5.82232">
        <ele>1219</ele>
        <time>2000-01-01T05:50:51.000Z</time>
      </trkpt>
      <trkpt lat="44.94589" lon="5.82228">
        <ele>1218.5</ele>
        <time>2000-01-01T05:51:01.000Z</time>
      </trkpt>
      <trkpt lat="44.94568" lon="5.82212">
        <ele>1214</ele>
        <time>2000-01-01T05:51:11.000Z</time>
      </trkpt>
      <trkpt lat="44.94556" lon="5.82201">
        <ele>1212.1</ele>
        <time>2000-01-01T05:51:21.000Z</time>
      </trkpt>
      <trkpt lat="44.94538" lon="5.82188">
        <ele>1207</ele>
        <time>2000-01-01T05:51:31.000Z</time>
      </trkpt>
      <trkpt lat="44.94525" lon="5.82184">
        <ele>1208.7</ele>
        <time>2000-01-01T05:51:41.000Z</time>
      </trkpt>
      <trkpt lat="44.94517" lon="5.82177">
        <ele>1204</ele>
        <time>2000-01-01T05:51:51.000Z</time>
      </trkpt>
      <trkpt lat="44.94515" lon="5.82164">
        <ele>1202.9</ele>
        <time>2000-01-01T05:52:01.000Z</time>
      </trkpt>
      <trkpt lat="44.94509" lon="5.82152">
        <ele>1200</ele>
        <time>2000-01-01T05:52:11.000Z</time>
      </trkpt>
      <trkpt lat="44.94499" lon="5.82145">
        <ele>1199</ele>
        <time>2000-01-01T05:52:21.000Z</time>
      </trkpt>
      <trkpt lat="44.94491" lon="5.82133">
        <ele>1196</ele>
        <time>2000-01-01T05:52:31.000Z</time>
      </trkpt>
      <trkpt lat="44.94485" lon="5.82121">
        <ele>1192.6</ele>
        <time>2000-01-01T05:52:41.000Z</time>
      </trkpt>
      <trkpt lat="44.94478" lon="5.8211">
        <ele>1187</ele>
        <time>2000-01-01T05:52:51.000Z</time>
      </trkpt>
      <trkpt lat="44.94469" lon="5.82098">
        <ele>1186.3</ele>
        <time>2000-01-01T05:53:01.000Z</time>
      </trkpt>
      <trkpt lat="44.94461" lon="5.82089">
        <ele>1181</ele>
        <time>2000-01-01T05:53:11.000Z</time>
      </trkpt>
      <trkpt lat="44.94448" lon="5.82085">
        <ele>1181.6</ele>
        <time>2000-01-01T05:53:21.000Z</time>
      </trkpt>
      <trkpt lat="44.94426" lon="5.82084">
        <ele>1176</ele>
        <time>2000-01-01T05:53:31.000Z</time>
      </trkpt>
      <trkpt lat="44.94415" lon="5.82087">
        <ele>1177</ele>
        <time>2000-01-01T05:53:41.000Z</time>
      </trkpt>
      <trkpt lat="44.94405" lon="5.82081">
        <ele>1173</ele>
        <time>2000-01-01T05:53:51.000Z</time>
      </trkpt>
      <trkpt lat="44.94394" lon="5.82072">
        <ele>1170</ele>
        <time>2000-01-01T05:54:01.000Z</time>
      </trkpt>
      <trkpt lat="44.94387" lon="5.82065">
        <ele>1164</ele>
        <time>2000-01-01T05:54:11.000Z</time>
      </trkpt>
      <trkpt lat="44.94378" lon="5.82062">
        <ele>1164</ele>
        <time>2000-01-01T05:54:21.000Z</time>
      </trkpt>
      <trkpt lat="44.94357" lon="5.82064">
        <ele>1155</ele>
        <time>2000-01-01T05:54:31.000Z</time>
      </trkpt>
      <trkpt lat="44.94346" lon="5.82064">
        <ele>1154.6</ele>
        <time>2000-01-01T05:54:41.000Z</time>
      </trkpt>
      <trkpt lat="44.94335" lon="5.8207">
        <ele>1148</ele>
        <time>2000-01-01T05:54:51.000Z</time>
      </trkpt>
      <trkpt lat="44.94323" lon="5.82071">
        <ele>1148.4</ele>
        <time>2000-01-01T05:55:01.000Z</time>
      </trkpt>
      <trkpt lat="44.94312" lon="5.82073">
        <ele>1145</ele>
        <time>2000-01-01T05:55:11.000Z</time>
      </trkpt>
      <trkpt lat="44.94305" lon="5.82077">
        <ele>1143.7</ele>
        <time>2000-01-01T05:55:21.000Z</time>
      </trkpt>
      <trkpt lat="44.94296" lon="5.82078">
        <ele>1141.1</ele>
        <time>2000-01-01T05:55:31.000Z</time>
      </trkpt>
      <trkpt lat="44.94287" lon="5.82076">
        <ele>1136</ele>
        <time>2000-01-01T05:55:41.000Z</time>
      </trkpt>
      <trkpt lat="44.94276" lon="5.82072">
        <ele>1134.3</ele>
        <time>2000-01-01T05:55:51.000Z</time>
      </trkpt>
      <trkpt lat="44.94254" lon="5.82072">
        <ele>1128</ele>
        <time>2000-01-01T05:56:01.000Z</time>
      </trkpt>
      <trkpt lat="44.94243" lon="5.82069">
        <ele>1125.6</ele>
        <time>2000-01-01T05:56:11.000Z</time>
      </trkpt>
      <trkpt lat="44.94233" lon="5.82072">
        <ele>1122</ele>
        <time>2000-01-01T05:56:21.000Z</time>
      </trkpt>
      <trkpt lat="44.94212" lon="5.82076">
        <ele>1116</ele>
        <time>2000-01-01T05:56:31.000Z</time>
      </trkpt>
      <trkpt lat="44.94201" lon="5.82073">
        <ele>1114.6</ele>
        <time>2000-01-01T05:56:41.000Z</time>
      </trkpt>
      <trkpt lat="44.94188" lon="5.82073">
        <ele>1109</ele>
        <time>2000-01-01T05:56:51.000Z</time>
      </trkpt>
      <trkpt lat="44.94169" lon="5.8208">
        <ele>1105</ele>
        <time>2000-01-01T05:57:01.000Z</time>
      </trkpt>
      <trkpt lat="44.9415" lon="5.82084">
        <ele>1102</ele>
        <time>2000-01-01T05:57:11.000Z</time>
      </trkpt>
      <trkpt lat="44.94137" lon="5.82088">
        <ele>1102.6</ele>
        <time>2000-01-01T05:57:21.000Z</time>
      </trkpt>
      <trkpt lat="44.94113" lon="5.82087">
        <ele>1098</ele>
        <time>2000-01-01T05:57:31.000Z</time>
      </trkpt>
      <trkpt lat="44.94103" lon="5.82089">
        <ele>1097.8</ele>
        <time>2000-01-01T05:57:41.000Z</time>
      </trkpt>
      <trkpt lat="44.94093" lon="5.82093">
        <ele>1096</ele>
        <time>2000-01-01T05:57:51.000Z</time>
      </trkpt>
      <trkpt lat="44.9408" lon="5.821">
        <ele>1094.5</ele>
        <time>2000-01-01T05:58:01.000Z</time>
      </trkpt>
      <trkpt lat="44.94071" lon="5.82107">
        <ele>1094</ele>
        <time>2000-01-01T05:58:11.000Z</time>
      </trkpt>
      <trkpt lat="44.94061" lon="5.82117">
        <ele>1092</ele>
        <time>2000-01-01T05:58:21.000Z</time>
      </trkpt>
      <trkpt lat="44.94054" lon="5.82127">
        <ele>1091</ele>
        <time>2000-01-01T05:58:31.000Z</time>
      </trkpt>
      <trkpt lat="44.94043" lon="5.82138">
        <ele>1089.1</ele>
        <time>2000-01-01T05:58:41.000Z</time>
      </trkpt>
      <trkpt lat="44.94032" lon="5.82145">
        <ele>1088</ele>
        <time>2000-01-01T05:58:51.000Z</time>
      </trkpt>
      <trkpt lat="44.94021" lon="5.82151">
        <ele>1085.4</ele>
        <time>2000-01-01T05:59:01.000Z</time>
      </trkpt>
      <trkpt lat="44.9401" lon="5.82155">
        <ele>1083</ele>
        <time>2000-01-01T05:59:11.000Z</time>
      </trkpt>
      <trkpt lat="44.94" lon="5.8216">
        <ele>1081.7</ele>
        <time>2000-01-01T05:59:21.000Z</time>
      </trkpt>
      <trkpt lat="44.9398" lon="5.82166">
        <ele>1075</ele>
        <time>2000-01-01T05:59:31.000Z</time>
      </trkpt>
      <trkpt lat="44.93946" lon="5.82168">
        <ele>1067</ele>
        <time>2000-01-01T05:59:41.000Z</time>
      </trkpt>
      <trkpt lat="44.93935" lon="5.82175">
        <ele>1064.5</ele>
        <time>2000-01-01T05:59:51.000Z</time>
      </trkpt>
      <trkpt lat="44.93923" lon="5.8218">
        <ele>1062</ele>
        <time>2000-01-01T06:00:01.000Z</time>
      </trkpt>
      <trkpt lat="44.93903" lon="5.82185">
        <ele>1056</ele>
        <time>2000-01-01T06:00:11.000Z</time>
      </trkpt>
      <trkpt lat="44.93879" lon="5.82189">
        <ele>1050</ele>
        <time>2000-01-01T06:00:21.000Z</time>
      </trkpt>
      <trkpt lat="44.93869" lon="5.82194">
        <ele>1048.7</ele>
        <time>2000-01-01T06:00:31.000Z</time>
      </trkpt>
      <trkpt lat="44.93859" lon="5.82197">
        <ele>1044</ele>
        <time>2000-01-01T06:00:41.000Z</time>
      </trkpt>
      <trkpt lat="44.9385" lon="5.82201">
        <ele>1043.9</ele>
        <time>2000-01-01T06:00:51.000Z</time>
      </trkpt>
      <trkpt lat="44.93813" lon="5.82208">
        <ele>1034</ele>
        <time>2000-01-01T06:01:01.000Z</time>
      </trkpt>
      <trkpt lat="44.93802" lon="5.82209">
        <ele>1031.9</ele>
        <time>2000-01-01T06:01:11.000Z</time>
      </trkpt>
      <trkpt lat="44.93793" lon="5.82219">
        <ele>1028</ele>
        <time>2000-01-01T06:01:21.000Z</time>
      </trkpt>
      <trkpt lat="44.9379" lon="5.82231">
        <ele>1026.7</ele>
        <time>2000-01-01T06:01:31.000Z</time>
      </trkpt>
      <trkpt lat="44.93783" lon="5.8224">
        <ele>1023.6</ele>
        <time>2000-01-01T06:01:41.000Z</time>
      </trkpt>
      <trkpt lat="44.93773" lon="5.82244">
        <ele>1021</ele>
        <time>2000-01-01T06:01:51.000Z</time>
      </trkpt>
      <trkpt lat="44.93752" lon="5.82248">
        <ele>1015</ele>
        <time>2000-01-01T06:02:01.000Z</time>
      </trkpt>
      <trkpt lat="44.93741" lon="5.82252">
        <ele>1011</ele>
        <time>2000-01-01T06:02:11.000Z</time>
      </trkpt>
      <trkpt lat="44.93731" lon="5.82254">
        <ele>1007</ele>
        <time>2000-01-01T06:02:21.000Z</time>
      </trkpt>
      <trkpt lat="44.9372" lon="5.82255">
        <ele>1004.5</ele>
        <time>2000-01-01T06:02:31.000Z</time>
      </trkpt>
      <trkpt lat="44.9371" lon="5.82253">
        <ele>998</ele>
        <time>2000-01-01T06:02:41.000Z</time>
      </trkpt>
      <trkpt lat="44.93698" lon="5.82253">
        <ele>998.6</ele>
        <time>2000-01-01T06:02:51.000Z</time>
      </trkpt>
      <trkpt lat="44.93685" lon="5.82268">
        <ele>992</ele>
        <time>2000-01-01T06:03:01.000Z</time>
      </trkpt>
      <trkpt lat="44.93675" lon="5.82278">
        <ele>989.8</ele>
        <time>2000-01-01T06:03:11.000Z</time>
      </trkpt>
      <trkpt lat="44.93654" lon="5.82287">
        <ele>983</ele>
        <time>2000-01-01T06:03:21.000Z</time>
      </trkpt>
      <trkpt lat="44.93644" lon="5.82289">
        <ele>981.3</ele>
        <time>2000-01-01T06:03:31.000Z</time>
      </trkpt>
      <trkpt lat="44.93624" lon="5.82283">
        <ele>975</ele>
        <time>2000-01-01T06:03:41.000Z</time>
      </trkpt>
      <trkpt lat="44.93608" lon="5.82284">
        <ele>971.8</ele>
        <time>2000-01-01T06:03:51.000Z</time>
      </trkpt>
      <trkpt lat="44.93602" lon="5.82287">
        <ele>969</ele>
        <time>2000-01-01T06:04:01.000Z</time>
      </trkpt>
      <trkpt lat="44.93596" lon="5.82291">
        <ele>967.9</ele>
        <time>2000-01-01T06:04:11.000Z</time>
      </trkpt>
      <trkpt lat="44.9359" lon="5.82292">
        <ele>966</ele>
        <time>2000-01-01T06:04:21.000Z</time>
      </trkpt>
      <trkpt lat="44.93581" lon="5.82289">
        <ele>963</ele>
        <time>2000-01-01T06:04:31.000Z</time>
      </trkpt>
      <trkpt lat="44.93582" lon="5.82273">
        <ele>963.2</ele>
        <time>2000-01-01T06:04:41.000Z</time>
      </trkpt>
      <trkpt lat="44.93585" lon="5.82262">
        <ele>962</ele>
        <time>2000-01-01T06:04:51.000Z</time>
      </trkpt>
      <trkpt lat="44.93587" lon="5.82251">
        <ele>963.3</ele>
        <time>2000-01-01T06:05:01.000Z</time>
      </trkpt>
      <trkpt lat="44.93591" lon="5.82238">
        <ele>963.2</ele>
        <time>2000-01-01T06:05:11.000Z</time>
      </trkpt>
      <trkpt lat="44.93595" lon="5.82221">
        <ele>961</ele>
        <time>2000-01-01T06:05:21.000Z</time>
      </trkpt>
      <trkpt lat="44.936" lon="5.82205">
        <ele>962.5</ele>
        <time>2000-01-01T06:05:31.000Z</time>
      </trkpt>
      <trkpt lat="44.93604" lon="5.82188">
        <ele>961</ele>
        <time>2000-01-01T06:05:41.000Z</time>
      </trkpt>
      <trkpt lat="44.93604" lon="5.8217">
        <ele>960.9</ele>
        <time>2000-01-01T06:05:51.000Z</time>
      </trkpt>
      <trkpt lat="44.93617" lon="5.82127">
        <ele>961</ele>
        <time>2000-01-01T06:06:01.000Z</time>
      </trkpt>
      <trkpt lat="44.93623" lon="5.821">
        <ele>961</ele>
        <time>2000-01-01T06:06:11.000Z</time>
      </trkpt>
      <trkpt lat="44.93629" lon="5.82039">
        <ele>962</ele>
        <time>2000-01-01T06:06:21.000Z</time>
      </trkpt>
      <trkpt lat="44.93631" lon="5.82029">
        <ele>965.5</ele>
        <time>2000-01-01T06:06:31.000Z</time>
      </trkpt>
      <trkpt lat="44.93635" lon="5.8202">
        <ele>966.2</ele>
        <time>2000-01-01T06:06:41.000Z</time>
      </trkpt>
      <trkpt lat="44.93638" lon="5.82009">
        <ele>963</ele>
        <time>2000-01-01T06:06:51.000Z</time>
      </trkpt>
      <trkpt lat="44.93643" lon="5.81996">
        <ele>966.8</ele>
        <time>2000-01-01T06:07:01.000Z</time>
      </trkpt>
      <trkpt lat="44.93649" lon="5.81982">
        <ele>965</ele>
        <time>2000-01-01T06:07:11.000Z</time>
      </trkpt>
      <trkpt lat="44.93659" lon="5.81965">
        <ele>967.8</ele>
        <time>2000-01-01T06:07:21.000Z</time>
      </trkpt>
      <trkpt lat="44.93668" lon="5.81951">
        <ele>965</ele>
        <time>2000-01-01T06:07:31.000Z</time>
      </trkpt>
      <trkpt lat="44.93674" lon="5.8194">
        <ele>967.6</ele>
        <time>2000-01-01T06:07:41.000Z</time>
      </trkpt>
      <trkpt lat="44.93688" lon="5.81921">
        <ele>965</ele>
        <time>2000-01-01T06:07:51.000Z</time>
      </trkpt>
      <trkpt lat="44.93696" lon="5.81906">
        <ele>965.4</ele>
        <time>2000-01-01T06:08:01.000Z</time>
      </trkpt>
      <trkpt lat="44.93703" lon="5.81895">
        <ele>963</ele>
        <time>2000-01-01T06:08:11.000Z</time>
      </trkpt>
      <trkpt lat="44.93728" lon="5.81848">
        <ele>959</ele>
        <time>2000-01-01T06:08:21.000Z</time>
      </trkpt>
      <trkpt lat="44.93735" lon="5.81837">
        <ele>962.2</ele>
        <time>2000-01-01T06:08:31.000Z</time>
      </trkpt>
      <trkpt lat="44.9374" lon="5.81826">
        <ele>959</ele>
        <time>2000-01-01T06:08:41.000Z</time>
      </trkpt>
      <trkpt lat="44.93757" lon="5.81796">
        <ele>959</ele>
        <time>2000-01-01T06:08:51.000Z</time>
      </trkpt>
      <trkpt lat="44.93767" lon="5.81773">
        <ele>959</ele>
        <time>2000-01-01T06:09:01.000Z</time>
      </trkpt>
      <trkpt lat="44.93785" lon="5.81737">
        <ele>959</ele>
        <time>2000-01-01T06:09:11.000Z</time>
      </trkpt>
      <trkpt lat="44.93792" lon="5.81727">
        <ele>960.9</ele>
        <time>2000-01-01T06:09:21.000Z</time>
      </trkpt>
      <trkpt lat="44.93802" lon="5.81708">
        <ele>960</ele>
        <time>2000-01-01T06:09:31.000Z</time>
      </trkpt>
      <trkpt lat="44.93809" lon="5.81699">
        <ele>961.7</ele>
        <time>2000-01-01T06:09:41.000Z</time>
      </trkpt>
      <trkpt lat="44.93815" lon="5.81688">
        <ele>961</ele>
        <time>2000-01-01T06:09:51.000Z</time>
      </trkpt>
      <trkpt lat="44.93822" lon="5.81673">
        <ele>962.1</ele>
        <time>2000-01-01T06:10:01.000Z</time>
      </trkpt>
      <trkpt lat="44.93826" lon="5.81658">
        <ele>961</ele>
        <time>2000-01-01T06:10:11.000Z</time>
      </trkpt>
      <trkpt lat="44.93827" lon="5.81642">
        <ele>961.4</ele>
        <time>2000-01-01T06:10:21.000Z</time>
      </trkpt>
      <trkpt lat="44.93826" lon="5.81625">
        <ele>960</ele>
        <time>2000-01-01T06:10:31.000Z</time>
      </trkpt>
      <trkpt lat="44.93829" lon="5.81608">
        <ele>961.4</ele>
        <time>2000-01-01T06:10:41.000Z</time>
      </trkpt>
      <trkpt lat="44.93828" lon="5.81592">
        <ele>959</ele>
        <time>2000-01-01T06:10:51.000Z</time>
      </trkpt>
      <trkpt lat="44.9383" lon="5.81559">
        <ele>959</ele>
        <time>2000-01-01T06:11:01.000Z</time>
      </trkpt>
      <trkpt lat="44.93832" lon="5.81544">
        <ele>959.9</ele>
        <time>2000-01-01T06:11:11.000Z</time>
      </trkpt>
      <trkpt lat="44.93833" lon="5.81532">
        <ele>959</ele>
        <time>2000-01-01T06:11:21.000Z</time>
      </trkpt>
      <trkpt lat="44.93832" lon="5.81519">
        <ele>959.9</ele>
        <time>2000-01-01T06:11:31.000Z</time>
      </trkpt>
      <trkpt lat="44.93832" lon="5.81506">
        <ele>959.9</ele>
        <time>2000-01-01T06:11:41.000Z</time>
      </trkpt>
      <trkpt lat="44.93834" lon="5.81491">
        <ele>959</ele>
        <time>2000-01-01T06:11:51.000Z</time>
      </trkpt>
      <trkpt lat="44.93841" lon="5.8146">
        <ele>960</ele>
        <time>2000-01-01T06:12:01.000Z</time>
      </trkpt>
      <trkpt lat="44.93846" lon="5.81444">
        <ele>960.9</ele>
        <time>2000-01-01T06:12:11.000Z</time>
      </trkpt>
      <trkpt lat="44.93851" lon="5.81434">
        <ele>961</ele>
        <time>2000-01-01T06:12:21.000Z</time>
      </trkpt>
      <trkpt lat="44.93856" lon="5.81419">
        <ele>961.6</ele>
        <time>2000-01-01T06:12:31.000Z</time>
      </trkpt>
      <trkpt lat="44.93857" lon="5.81407">
        <ele>961</ele>
        <time>2000-01-01T06:12:41.000Z</time>
      </trkpt>
      <trkpt lat="44.93857" lon="5.81391">
        <ele>962.5</ele>
        <time>2000-01-01T06:12:51.000Z</time>
      </trkpt>
      <trkpt lat="44.93854" lon="5.81375">
        <ele>961</ele>
        <time>2000-01-01T06:13:01.000Z</time>
      </trkpt>
      <trkpt lat="44.93853" lon="5.81363">
        <ele>962.4</ele>
        <time>2000-01-01T06:13:11.000Z</time>
      </trkpt>
      <trkpt lat="44.93846" lon="5.81338">
        <ele>962</ele>
        <time>2000-01-01T06:13:21.000Z</time>
      </trkpt>
      <trkpt lat="44.93842" lon="5.81315">
        <ele>963.1</ele>
        <time>2000-01-01T06:13:31.000Z</time>
      </trkpt>
      <trkpt lat="44.93836" lon="5.81294">
        <ele>963</ele>
        <time>2000-01-01T06:13:41.000Z</time>
      </trkpt>
      <trkpt lat="44.93829" lon="5.81273">
        <ele>964</ele>
        <time>2000-01-01T06:13:51.000Z</time>
      </trkpt>
      <trkpt lat="44.93823" lon="5.81264">
        <ele>964</ele>
        <time>2000-01-01T06:14:01.000Z</time>
      </trkpt>
      <trkpt lat="44.93802" lon="5.81223">
        <ele>964</ele>
        <time>2000-01-01T06:14:11.000Z</time>
      </trkpt>
      <trkpt lat="44.93795" lon="5.81214">
        <ele>964.8</ele>
        <time>2000-01-01T06:14:21.000Z</time>
      </trkpt>
      <trkpt lat="44.9379" lon="5.81205">
        <ele>965.1</ele>
        <time>2000-01-01T06:14:31.000Z</time>
      </trkpt>
      <trkpt lat="44.93783" lon="5.81196">
        <ele>964</ele>
        <time>2000-01-01T06:14:41.000Z</time>
      </trkpt>
      <trkpt lat="44.93778" lon="5.81186">
        <ele>965.3</ele>
        <time>2000-01-01T06:14:51.000Z</time>
      </trkpt>
      <trkpt lat="44.9376" lon="5.81157">
        <ele>965</ele>
        <time>2000-01-01T06:15:01.000Z</time>
      </trkpt>
      <trkpt lat="44.93755" lon="5.81138">
        <ele>966.4</ele>
        <time>2000-01-01T06:15:11.000Z</time>
      </trkpt>
      <trkpt lat="44.93753" lon="5.81117">
        <ele>967</ele>
        <time>2000-01-01T06:15:21.000Z</time>
      </trkpt>
      <trkpt lat="44.9375" lon="5.81106">
        <ele>968</ele>
        <time>2000-01-01T06:15:31.000Z</time>
      </trkpt>
      <trkpt lat="44.93748" lon="5.81093">
        <ele>968</ele>
        <time>2000-01-01T06:15:41.000Z</time>
      </trkpt>
      <trkpt lat="44.93747" lon="5.81068">
        <ele>967</ele>
        <time>2000-01-01T06:15:51.000Z</time>
      </trkpt>
      <trkpt lat="44.93745" lon="5.81055">
        <ele>968</ele>
        <time>2000-01-01T06:16:01.000Z</time>
      </trkpt>
      <trkpt lat="44.9374" lon="5.81044">
        <ele>967.6</ele>
        <time>2000-01-01T06:16:11.000Z</time>
      </trkpt>
      <trkpt lat="44.93736" lon="5.81033">
        <ele>967</ele>
        <time>2000-01-01T06:16:21.000Z</time>
      </trkpt>
      <trkpt lat="44.93733" lon="5.81021">
        <ele>966.9</ele>
        <time>2000-01-01T06:16:31.000Z</time>
      </trkpt>
      <trkpt lat="44.93729" lon="5.81011">
        <ele>966.9</ele>
        <time>2000-01-01T06:16:41.000Z</time>
      </trkpt>
      <trkpt lat="44.93721" lon="5.80986">
        <ele>966</ele>
        <time>2000-01-01T06:16:51.000Z</time>
      </trkpt>
      <trkpt lat="44.93718" lon="5.80974">
        <ele>966.2</ele>
        <time>2000-01-01T06:17:01.000Z</time>
      </trkpt>
      <trkpt lat="44.93716" lon="5.8096">
        <ele>966</ele>
        <time>2000-01-01T06:17:11.000Z</time>
      </trkpt>
      <trkpt lat="44.93715" lon="5.80942">
        <ele>965.4</ele>
        <time>2000-01-01T06:17:21.000Z</time>
      </trkpt>
      <trkpt lat="44.93715" lon="5.80927">
        <ele>965</ele>
        <time>2000-01-01T06:17:31.000Z</time>
      </trkpt>
      <trkpt lat="44.9372" lon="5.80902">
        <ele>963.6</ele>
        <time>2000-01-01T06:17:41.000Z</time>
      </trkpt>
      <trkpt lat="44.93726" lon="5.8089">
        <ele>963</ele>
        <time>2000-01-01T06:17:51.000Z</time>
      </trkpt>
      <trkpt lat="44.93755" lon="5.80847">
        <ele>960</ele>
        <time>2000-01-01T06:18:01.000Z</time>
      </trkpt>
      <trkpt lat="44.93762" lon="5.80835">
        <ele>959.6</ele>
        <time>2000-01-01T06:18:11.000Z</time>
      </trkpt>
      <trkpt lat="44.93771" lon="5.80826">
        <ele>958</ele>
        <time>2000-01-01T06:18:21.000Z</time>
      </trkpt>
      <trkpt lat="44.93785" lon="5.80805">
        <ele>957</ele>
        <time>2000-01-01T06:18:31.000Z</time>
      </trkpt>
      <trkpt lat="44.93798" lon="5.80781">
        <ele>956</ele>
        <time>2000-01-01T06:18:41.000Z</time>
      </trkpt>
      <trkpt lat="44.93806" lon="5.80771">
        <ele>955.7</ele>
        <time>2000-01-01T06:18:51.000Z</time>
      </trkpt>
      <trkpt lat="44.93815" lon="5.80762">
        <ele>954</ele>
        <time>2000-01-01T06:19:01.000Z</time>
      </trkpt>
      <trkpt lat="44.9383" lon="5.8074">
        <ele>953</ele>
        <time>2000-01-01T06:19:11.000Z</time>
      </trkpt>
      <trkpt lat="44.93837" lon="5.80731">
        <ele>952.1</ele>
        <time>2000-01-01T06:19:21.000Z</time>
      </trkpt>
      <trkpt lat="44.93849" lon="5.80724">
        <ele>951</ele>
        <time>2000-01-01T06:19:31.000Z</time>
      </trkpt>
      <trkpt lat="44.93858" lon="5.8072">
        <ele>951</ele>
        <time>2000-01-01T06:19:41.000Z</time>
      </trkpt>
      <trkpt lat="44.93869" lon="5.80708">
        <ele>949</ele>
        <time>2000-01-01T06:19:51.000Z</time>
      </trkpt>
      <trkpt lat="44.93893" lon="5.80672">
        <ele>946</ele>
        <time>2000-01-01T06:20:01.000Z</time>
      </trkpt>
      <trkpt lat="44.93904" lon="5.80646">
        <ele>945</ele>
        <time>2000-01-01T06:20:11.000Z</time>
      </trkpt>
      <trkpt lat="44.93908" lon="5.80632">
        <ele>944.4</ele>
        <time>2000-01-01T06:20:21.000Z</time>
      </trkpt>
      <trkpt lat="44.93928" lon="5.80596">
        <ele>942</ele>
        <time>2000-01-01T06:20:31.000Z</time>
      </trkpt>
      <trkpt lat="44.93937" lon="5.80584">
        <ele>940.6</ele>
        <time>2000-01-01T06:20:41.000Z</time>
      </trkpt>
      <trkpt lat="44.93968" lon="5.80525">
        <ele>937</ele>
        <time>2000-01-01T06:20:51.000Z</time>
      </trkpt>
      <trkpt lat="44.93974" lon="5.80516">
        <ele>936.4</ele>
        <time>2000-01-01T06:21:01.000Z</time>
      </trkpt>
      <trkpt lat="44.93984" lon="5.80491">
        <ele>934</ele>
        <time>2000-01-01T06:21:11.000Z</time>
      </trkpt>
      <trkpt lat="44.93989" lon="5.8048">
        <ele>934.1</ele>
        <time>2000-01-01T06:21:21.000Z</time>
      </trkpt>
      <trkpt lat="44.94003" lon="5.80457">
        <ele>932</ele>
        <time>2000-01-01T06:21:31.000Z</time>
      </trkpt>
      <trkpt lat="44.94011" lon="5.80423">
        <ele>930</ele>
        <time>2000-01-01T06:21:41.000Z</time>
      </trkpt>
      <trkpt lat="44.94017" lon="5.8041">
        <ele>929.9</ele>
        <time>2000-01-01T06:21:51.000Z</time>
      </trkpt>
      <trkpt lat="44.94022" lon="5.80395">
        <ele>929</ele>
        <time>2000-01-01T06:22:01.000Z</time>
      </trkpt>
      <trkpt lat="44.94032" lon="5.80371">
        <ele>927</ele>
        <time>2000-01-01T06:22:11.000Z</time>
      </trkpt>
      <trkpt lat="44.94056" lon="5.80319">
        <ele>925</ele>
        <time>2000-01-01T06:22:21.000Z</time>
      </trkpt>
      <trkpt lat="44.94071" lon="5.80278">
        <ele>922</ele>
        <time>2000-01-01T06:22:31.000Z</time>
      </trkpt>
      <trkpt lat="44.94075" lon="5.80264">
        <ele>921.6</ele>
        <time>2000-01-01T06:22:41.000Z</time>
      </trkpt>
      <trkpt lat="44.94086" lon="5.80237">
        <ele>920</ele>
        <time>2000-01-01T06:22:51.000Z</time>
      </trkpt>
      <trkpt lat="44.94091" lon="5.80221">
        <ele>918.9</ele>
        <time>2000-01-01T06:23:01.000Z</time>
      </trkpt>
      <trkpt lat="44.94097" lon="5.8019">
        <ele>918</ele>
        <time>2000-01-01T06:23:11.000Z</time>
      </trkpt>
      <trkpt lat="44.94099" lon="5.80177">
        <ele>916.9</ele>
        <time>2000-01-01T06:23:21.000Z</time>
      </trkpt>
      <trkpt lat="44.94099" lon="5.80146">
        <ele>916</ele>
        <time>2000-01-01T06:23:31.000Z</time>
      </trkpt>
      <trkpt lat="44.94097" lon="5.8013">
        <ele>915</ele>
        <time>2000-01-01T06:23:41.000Z</time>
      </trkpt>
      <trkpt lat="44.94096" lon="5.80115">
        <ele>914</ele>
        <time>2000-01-01T06:23:51.000Z</time>
      </trkpt>
      <trkpt lat="44.94098" lon="5.80103">
        <ele>913.5</ele>
        <time>2000-01-01T06:24:01.000Z</time>
      </trkpt>
      <trkpt lat="44.94099" lon="5.80086">
        <ele>913</ele>
        <time>2000-01-01T06:24:11.000Z</time>
      </trkpt>
      <trkpt lat="44.94103" lon="5.80057">
        <ele>911</ele>
        <time>2000-01-01T06:24:21.000Z</time>
      </trkpt>
      <trkpt lat="44.94105" lon="5.80046">
        <ele>910.8</ele>
        <time>2000-01-01T06:24:31.000Z</time>
      </trkpt>
      <trkpt lat="44.9411" lon="5.80032">
        <ele>910</ele>
        <time>2000-01-01T06:24:41.000Z</time>
      </trkpt>
      <trkpt lat="44.94112" lon="5.80029">
        <ele>910</ele>
        <time>2000-01-01T06:24:51.000Z</time>
      </trkpt>
      <trkpt lat="44.94108" lon="5.80039">
        <ele>910</ele>
        <time>2000-01-01T06:25:01.000Z</time>
      </trkpt>
    </trkseg>
  </trk>
  <trk>
    <name><![CDATA[matheysins_2]]></name>
    <trkseg>
      <trkpt lat="44.97224" lon="5.82383">
        <ele>1503.4</ele>
        <extensions>
          <visugpx:TrkExtension xmlns:visugpx="https://www.visugpx.com/editgpx/">
            <visugpx:node>2</visugpx:node>
            </visugpx:TrkExtension>
        </extensions>
      </trkpt>
      <trkpt lat="44.97227" lon="5.82406">
        <ele>1503.1</ele>
      </trkpt>
      <trkpt lat="44.97229" lon="5.82428">
        <ele>1502.8</ele>
      </trkpt>
      <trkpt lat="44.97233" lon="5.82457">
        <ele>1501.5</ele>
      </trkpt>
      <trkpt lat="44.97253" lon="5.8252">
        <ele>1498.1</ele>
      </trkpt>
      <trkpt lat="44.9726" lon="5.8253">
        <ele>1497.3</ele>
      </trkpt>
      <trkpt lat="44.97256" lon="5.82538">
        <ele>1497.6</ele>
      </trkpt>
      <trkpt lat="44.97247" lon="5.82551">
        <ele>1498</ele>
      </trkpt>
      <trkpt lat="44.97245" lon="5.82555">
        <ele>1498</ele>
      </trkpt>
      <trkpt lat="44.97244" lon="5.8256">
        <ele>1498</ele>
      </trkpt>
      <trkpt lat="44.97244" lon="5.8257">
        <ele>1497.9</ele>
      </trkpt>
      <trkpt lat="44.97244" lon="5.82584">
        <ele>1497.8</ele>
      </trkpt>
      <trkpt lat="44.97242" lon="5.82597">
        <ele>1497.7</ele>
      </trkpt>
      <trkpt lat="44.9724" lon="5.82607">
        <ele>1497.6</ele>
      </trkpt>
      <trkpt lat="44.97236" lon="5.82631">
        <ele>1498.2</ele>
      </trkpt>
      <trkpt lat="44.9723" lon="5.82691">
        <ele>1504.2</ele>
      </trkpt>
      <trkpt lat="44.9723" lon="5.8271">
        <ele>1507.5</ele>
      </trkpt>
      <trkpt lat="44.9723" lon="5.82728">
        <ele>1511</ele>
      </trkpt>
      <trkpt lat="44.97232" lon="5.8274">
        <ele>1513.7</ele>
      </trkpt>
      <trkpt lat="44.9724" lon="5.82763">
        <ele>1519.7</ele>
      </trkpt>
      <trkpt lat="44.97251" lon="5.82779">
        <ele>1524.3</ele>
      </trkpt>
      <trkpt lat="44.97277" lon="5.82794">
        <ele>1527.9</ele>
      </trkpt>
      <trkpt lat="44.97291" lon="5.82805">
        <ele>1530.4</ele>
      </trkpt>
      <trkpt lat="44.97316" lon="5.82846">
        <ele>1544.7</ele>
      </trkpt>
      <trkpt lat="44.97324" lon="5.82855">
        <ele>1548</ele>
      </trkpt>
      <trkpt lat="44.97367" lon="5.82893">
        <ele>1559.6</ele>
      </trkpt>
      <trkpt lat="44.97392" lon="5.82911">
        <ele>1561.5</ele>
      </trkpt>
      <trkpt lat="44.97398" lon="5.82919">
        <ele>1562.4</ele>
      </trkpt>
      <trkpt lat="44.97411" lon="5.82927">
        <ele>1560.1</ele>
      </trkpt>
      <trkpt lat="44.97417" lon="5.82941">
        <ele>1561.9</ele>
      </trkpt>
      <trkpt lat="44.97419" lon="5.82953">
        <ele>1564.3</ele>
      </trkpt>
      <trkpt lat="44.97419" lon="5.82966">
        <ele>1568.1</ele>
      </trkpt>
      <trkpt lat="44.97418" lon="5.82975">
        <ele>1571.1</ele>
      </trkpt>
      <trkpt lat="44.97415" lon="5.82977">
        <ele>1573.2</ele>
      </trkpt>
      <trkpt lat="44.97417" lon="5.82993">
        <ele>1576.8</ele>
      </trkpt>
      <trkpt lat="44.9742" lon="5.83068">
        <ele>1592.6</ele>
      </trkpt>
      <trkpt lat="44.97422" lon="5.83092">
        <ele>1596.9</ele>
      </trkpt>
      <trkpt lat="44.97423" lon="5.83107">
        <ele>1599.9</ele>
      </trkpt>
      <trkpt lat="44.97427" lon="5.83121">
        <ele>1600.8</ele>
      </trkpt>
      <trkpt lat="44.9743" lon="5.83145">
        <ele>1604.9</ele>
      </trkpt>
      <trkpt lat="44.97435" lon="5.83193">
        <ele>1613.7</ele>
      </trkpt>
      <trkpt lat="44.97441" lon="5.83235">
        <ele>1620.5</ele>
      </trkpt>
      <trkpt lat="44.97449" lon="5.83263">
        <ele>1622.9</ele>
      </trkpt>
      <trkpt lat="44.97473" lon="5.83326">
        <ele>1629.2</ele>
      </trkpt>
      <trkpt lat="44.9749" lon="5.83383">
        <ele>1638.2</ele>
      </trkpt>
      <trkpt lat="44.97501" lon="5.83412">
        <ele>1641.2</ele>
      </trkpt>
      <trkpt lat="44.97506" lon="5.83434">
        <ele>1645.8</ele>
      </trkpt>
      <trkpt lat="44.9753" lon="5.8349">
        <ele>1650.9</ele>
      </trkpt>
      <trkpt lat="44.9754" lon="5.83534">
        <ele>1657.8</ele>
      </trkpt>
      <trkpt lat="44.97542" lon="5.83547">
        <ele>1660.3</ele>
      </trkpt>
      <trkpt lat="44.97542" lon="5.83569">
        <ele>1666.4</ele>
      </trkpt>
      <trkpt lat="44.97543" lon="5.8358">
        <ele>1668.8</ele>
      </trkpt>
      <trkpt lat="44.97552" lon="5.83608">
        <ele>1669.7</ele>
      </trkpt>
      <trkpt lat="44.97553" lon="5.83631">
        <ele>1672.7</ele>
      </trkpt>
      <trkpt lat="44.97548" lon="5.83647">
        <ele>1677.7</ele>
      </trkpt>
      <trkpt lat="44.97536" lon="5.83674">
        <ele>1686.4</ele>
      </trkpt>
      <trkpt lat="44.97533" lon="5.83682">
        <ele>1687.6</ele>
      </trkpt>
      <trkpt lat="44.97533" lon="5.83693">
        <ele>1686.3</ele>
      </trkpt>
      <trkpt lat="44.97547" lon="5.83763">
        <ele>1695</ele>
      </trkpt>
      <trkpt lat="44.97553" lon="5.83787">
        <ele>1698.9</ele>
      </trkpt>
      <trkpt lat="44.97583" lon="5.8384">
        <ele>1705.3</ele>
      </trkpt>
      <trkpt lat="44.97593" lon="5.83855">
        <ele>1708.9</ele>
      </trkpt>
      <trkpt lat="44.97606" lon="5.83866">
        <ele>1710.8</ele>
      </trkpt>
      <trkpt lat="44.97638" lon="5.83904">
        <ele>1721.7</ele>
      </trkpt>
      <trkpt lat="44.97645" lon="5.83917">
        <ele>1727</ele>
      </trkpt>
      <trkpt lat="44.9766" lon="5.83927">
        <ele>1727.6</ele>
      </trkpt>
      <trkpt lat="44.97667" lon="5.8393">
        <ele>1727.1</ele>
      </trkpt>
      <trkpt lat="44.97682" lon="5.83951">
        <ele>1736.4</ele>
      </trkpt>
      <trkpt lat="44.97704" lon="5.83965">
        <ele>1739.5</ele>
      </trkpt>
      <trkpt lat="44.97708" lon="5.83972">
        <ele>1742.4</ele>
      </trkpt>
      <trkpt lat="44.97718" lon="5.83981">
        <ele>1745</ele>
      </trkpt>
      <trkpt lat="44.9772" lon="5.83989">
        <ele>1748</ele>
      </trkpt>
      <trkpt lat="44.97746" lon="5.84023">
        <ele>1756.9</ele>
      </trkpt>
      <trkpt lat="44.97768" lon="5.8404">
        <ele>1760.6</ele>
      </trkpt>
      <trkpt lat="44.9778" lon="5.84055">
        <ele>1765.3</ele>
      </trkpt>
      <trkpt lat="44.97812" lon="5.84082">
        <ele>1773.6</ele>
      </trkpt>
      <trkpt lat="44.97892" lon="5.84118">
        <ele>1789.1</ele>
      </trkpt>
      <trkpt lat="44.97931" lon="5.84153">
        <ele>1801.1</ele>
      </trkpt>
      <trkpt lat="44.97944" lon="5.84157">
        <ele>1801.9</ele>
      </trkpt>
      <trkpt lat="44.97949" lon="5.84164">
        <ele>1804.3</ele>
      </trkpt>
      <trkpt lat="44.97966" lon="5.84174">
        <ele>1807.8</ele>
      </trkpt>
      <trkpt lat="44.97974" lon="5.84182">
        <ele>1810.2</ele>
      </trkpt>
      <trkpt lat="44.97987" lon="5.84183">
        <ele>1812.7</ele>
      </trkpt>
      <trkpt lat="44.97999" lon="5.84174">
        <ele>1813.1</ele>
      </trkpt>
      <trkpt lat="44.98004" lon="5.84176">
        <ele>1814.6</ele>
      </trkpt>
      <trkpt lat="44.98007" lon="5.84175">
        <ele>1815.2</ele>
      </trkpt>
      <trkpt lat="44.98012" lon="5.84172">
        <ele>1815.9</ele>
      </trkpt>
      <trkpt lat="44.98016" lon="5.8417">
        <ele>1816.6</ele>
      </trkpt>
      <trkpt lat="44.98025" lon="5.84159">
        <ele>1816.6</ele>
      </trkpt>
      <trkpt lat="44.98036" lon="5.84154">
        <ele>1818.3</ele>
      </trkpt>
      <trkpt lat="44.98056" lon="5.84158">
        <ele>1823.5</ele>
      </trkpt>
      <trkpt lat="44.98063" lon="5.84157">
        <ele>1825.4</ele>
      </trkpt>
      <trkpt lat="44.98073" lon="5.84164">
        <ele>1828.3</ele>
      </trkpt>
      <trkpt lat="44.98081" lon="5.84172">
        <ele>1830.6</ele>
      </trkpt>
      <trkpt lat="44.9809" lon="5.84177">
        <ele>1833.5</ele>
      </trkpt>
      <trkpt lat="44.98097" lon="5.84178">
        <ele>1835.8</ele>
      </trkpt>
      <trkpt lat="44.98115" lon="5.84172">
        <ele>1840.7</ele>
      </trkpt>
      <trkpt lat="44.98122" lon="5.84172">
        <ele>1841.5</ele>
      </trkpt>
      <trkpt lat="44.98137" lon="5.84187">
        <ele>1844.9</ele>
      </trkpt>
      <trkpt lat="44.98148" lon="5.84189">
        <ele>1845.5</ele>
      </trkpt>
      <trkpt lat="44.98163" lon="5.84206">
        <ele>1848.4</ele>
      </trkpt>
      <trkpt lat="44.98175" lon="5.84212">
        <ele>1849.3</ele>
      </trkpt>
      <trkpt lat="44.98175" lon="5.8422">
        <ele>1850.9</ele>
      </trkpt>
      <trkpt lat="44.98263" lon="5.84288">
        <ele>1866.5</ele>
      </trkpt>
      <trkpt lat="44.98312" lon="5.8434">
        <ele>1877.5</ele>
      </trkpt>
      <trkpt lat="44.98338" lon="5.84355">
        <ele>1878.5</ele>
      </trkpt>
      <trkpt lat="44.9839" lon="5.84409">
        <ele>1888.1</ele>
      </trkpt>
      <trkpt lat="44.98405" lon="5.8443">
        <ele>1889</ele>
      </trkpt>
      <trkpt lat="44.98417" lon="5.84454">
        <ele>1891.3</ele>
      </trkpt>
      <trkpt lat="44.98448" lon="5.845">
        <ele>1895.5</ele>
      </trkpt>
      <trkpt lat="44.98474" lon="5.84532">
        <ele>1898.4</ele>
      </trkpt>
      <trkpt lat="44.98478" lon="5.84535">
        <ele>1898.9</ele>
      </trkpt>
      <trkpt lat="44.98481" lon="5.84537">
        <ele>1899.3</ele>
      </trkpt>
      <trkpt lat="44.98496" lon="5.84549">
        <ele>1901.2</ele>
      </trkpt>
      <trkpt lat="44.98518" lon="5.84567">
        <ele>1905.5</ele>
      </trkpt>
      <trkpt lat="44.98522" lon="5.8457">
        <ele>1905.8</ele>
      </trkpt>
      <trkpt lat="44.98545" lon="5.84582">
        <ele>1908.2</ele>
      </trkpt>
      <trkpt lat="44.98601" lon="5.84629">
        <ele>1916.9</ele>
      </trkpt>
      <trkpt lat="44.98623" lon="5.84676">
        <ele>1924.5</ele>
      </trkpt>
      <trkpt lat="44.98629" lon="5.84681">
        <ele>1925.7</ele>
      </trkpt>
      <trkpt lat="44.98643" lon="5.84675">
        <ele>1926.5</ele>
      </trkpt>
      <trkpt lat="44.98657" lon="5.84663">
        <ele>1927.2</ele>
      </trkpt>
      <trkpt lat="44.98664" lon="5.84667">
        <ele>1928.7</ele>
      </trkpt>
      <trkpt lat="44.98666" lon="5.8468">
        <ele>1930.3</ele>
      </trkpt>
      <trkpt lat="44.98664" lon="5.84764">
        <ele>1936</ele>
      </trkpt>
      <trkpt lat="44.98666" lon="5.84791">
        <ele>1939.2</ele>
      </trkpt>
      <trkpt lat="44.9867" lon="5.84806">
        <ele>1941.4</ele>
      </trkpt>
      <trkpt lat="44.98676" lon="5.8482">
        <ele>1943.4</ele>
      </trkpt>
      <trkpt lat="44.98692" lon="5.84848">
        <ele>1950.1</ele>
      </trkpt>
      <trkpt lat="44.98695" lon="5.84857">
        <ele>1952.3</ele>
      </trkpt>
      <trkpt lat="44.98696" lon="5.84869">
        <ele>1955.4</ele>
      </trkpt>
      <trkpt lat="44.98674" lon="5.84943">
        <ele>1970.3</ele>
      </trkpt>
      <trkpt lat="44.98672" lon="5.84957">
        <ele>1972.4</ele>
      </trkpt>
      <trkpt lat="44.98673" lon="5.84964">
        <ele>1973.9</ele>
      </trkpt>
      <trkpt lat="44.98676" lon="5.84967">
        <ele>1975.1</ele>
      </trkpt>
      <trkpt lat="44.98707" lon="5.8498">
        <ele>1983.3</ele>
      </trkpt>
      <trkpt lat="44.98722" lon="5.84991">
        <ele>1987.7</ele>
      </trkpt>
      <trkpt lat="44.98724" lon="5.84995">
        <ele>1989.3</ele>
      </trkpt>
      <trkpt lat="44.98724" lon="5.85001">
        <ele>1990.8</ele>
      </trkpt>
      <trkpt lat="44.98709" lon="5.85015">
        <ele>1993.4</ele>
      </trkpt>
      <trkpt lat="44.98706" lon="5.85019">
        <ele>1994.6</ele>
      </trkpt>
      <trkpt lat="44.98707" lon="5.85025">
        <ele>1996.6</ele>
      </trkpt>
      <trkpt lat="44.98714" lon="5.85032">
        <ele>1998.6</ele>
      </trkpt>
      <trkpt lat="44.98727" lon="5.85038">
        <ele>2001.2</ele>
      </trkpt>
      <trkpt lat="44.98735" lon="5.85038">
        <ele>2003.3</ele>
      </trkpt>
      <trkpt lat="44.98742" lon="5.85034">
        <ele>2003.9</ele>
      </trkpt>
      <trkpt lat="44.98758" lon="5.8502">
        <ele>2006.4</ele>
      </trkpt>
      <trkpt lat="44.98783" lon="5.84989">
        <ele>2012.4</ele>
      </trkpt>
      <trkpt lat="44.98807" lon="5.84967">
        <ele>2018.3</ele>
      </trkpt>
      <trkpt lat="44.98823" lon="5.84958">
        <ele>2019.4</ele>
      </trkpt>
      <trkpt lat="44.98828" lon="5.84956">
        <ele>2020.3</ele>
        <extensions>
          <visugpx:TrkExtension xmlns:visugpx="https://www.visugpx.com/editgpx/">
            <visugpx:node>1</visugpx:node>
            </visugpx:TrkExtension>
        </extensions>
      </trkpt>
      <trkpt lat="44.98823" lon="5.84958">
        <ele>2019.4</ele>
      </trkpt>
      <trkpt lat="44.98807" lon="5.84967">
        <ele>2018.3</ele>
      </trkpt>
      <trkpt lat="44.98783" lon="5.84989">
        <ele>2012.4</ele>
      </trkpt>
      <trkpt lat="44.98758" lon="5.8502">
        <ele>2006.4</ele>
      </trkpt>
      <trkpt lat="44.98742" lon="5.85034">
        <ele>2003.9</ele>
      </trkpt>
      <trkpt lat="44.98735" lon="5.85038">
        <ele>2003.3</ele>
      </trkpt>
      <trkpt lat="44.98727" lon="5.85038">
        <ele>2001.2</ele>
      </trkpt>
      <trkpt lat="44.98714" lon="5.85032">
        <ele>1998.6</ele>
      </trkpt>
      <trkpt lat="44.98707" lon="5.85025">
        <ele>1996.6</ele>
      </trkpt>
      <trkpt lat="44.98706" lon="5.85019">
        <ele>1994.6</ele>
      </trkpt>
      <trkpt lat="44.98709" lon="5.85015">
        <ele>1993.4</ele>
      </trkpt>
      <trkpt lat="44.98724" lon="5.85001">
        <ele>1990.8</ele>
      </trkpt>
      <trkpt lat="44.98724" lon="5.84995">
        <ele>1989.3</ele>
      </trkpt>
      <trkpt lat="44.98722" lon="5.84991">
        <ele>1987.7</ele>
      </trkpt>
      <trkpt lat="44.98707" lon="5.8498">
        <ele>1983.3</ele>
      </trkpt>
      <trkpt lat="44.98676" lon="5.84967">
        <ele>1975.1</ele>
      </trkpt>
      <trkpt lat="44.98673" lon="5.84964">
        <ele>1973.9</ele>
      </trkpt>
      <trkpt lat="44.98672" lon="5.84957">
        <ele>1972.4</ele>
      </trkpt>
      <trkpt lat="44.98674" lon="5.84943">
        <ele>1970.3</ele>
      </trkpt>
      <trkpt lat="44.98696" lon="5.84869">
        <ele>1955.4</ele>
      </trkpt>
      <trkpt lat="44.98695" lon="5.84857">
        <ele>1952.3</ele>
      </trkpt>
      <trkpt lat="44.98692" lon="5.84848">
        <ele>1950.1</ele>
      </trkpt>
      <trkpt lat="44.98676" lon="5.8482">
        <ele>1943.4</ele>
      </trkpt>
      <trkpt lat="44.9867" lon="5.84806">
        <ele>1941.4</ele>
      </trkpt>
      <trkpt lat="44.98666" lon="5.84791">
        <ele>1939.2</ele>
      </trkpt>
      <trkpt lat="44.98664" lon="5.84764">
        <ele>1936</ele>
      </trkpt>
      <trkpt lat="44.98666" lon="5.8468">
        <ele>1930.3</ele>
      </trkpt>
      <trkpt lat="44.98664" lon="5.84667">
        <ele>1928.7</ele>
      </trkpt>
      <trkpt lat="44.98657" lon="5.84663">
        <ele>1927.2</ele>
      </trkpt>
      <trkpt lat="44.98643" lon="5.84675">
        <ele>1926.5</ele>
      </trkpt>
      <trkpt lat="44.98629" lon="5.84681">
        <ele>1925.7</ele>
      </trkpt>
      <trkpt lat="44.98623" lon="5.84676">
        <ele>1924.5</ele>
      </trkpt>
      <trkpt lat="44.98601" lon="5.84629">
        <ele>1916.9</ele>
      </trkpt>
      <trkpt lat="44.98545" lon="5.84582">
        <ele>1908.2</ele>
      </trkpt>
      <trkpt lat="44.98522" lon="5.8457">
        <ele>1905.8</ele>
      </trkpt>
      <trkpt lat="44.98518" lon="5.84567">
        <ele>1905.5</ele>
      </trkpt>
      <trkpt lat="44.98487" lon="5.84556">
        <ele>1901.2</ele>
      </trkpt>
      <trkpt lat="44.98477" lon="5.84556">
        <ele>1900.5</ele>
      </trkpt>
      <trkpt lat="44.98466" lon="5.84543">
        <ele>1899.5</ele>
      </trkpt>
      <trkpt lat="44.98452" lon="5.84535">
        <ele>1900</ele>
      </trkpt>
      <trkpt lat="44.98438" lon="5.8453">
        <ele>1900.6</ele>
      </trkpt>
      <trkpt lat="44.98399" lon="5.84506">
        <ele>1904.4</ele>
      </trkpt>
      <trkpt lat="44.98391" lon="5.84504">
        <ele>1905.4</ele>
      </trkpt>
      <trkpt lat="44.98378" lon="5.8451">
        <ele>1905.3</ele>
      </trkpt>
      <trkpt lat="44.98355" lon="5.84513">
        <ele>1905.8</ele>
      </trkpt>
      <trkpt lat="44.98313" lon="5.84512">
        <ele>1909.5</ele>
      </trkpt>
      <trkpt lat="44.98293" lon="5.84527">
        <ele>1910.5</ele>
      </trkpt>
      <trkpt lat="44.98268" lon="5.8452">
        <ele>1912.6</ele>
      </trkpt>
      <trkpt lat="44.98258" lon="5.84513">
        <ele>1913.2</ele>
      </trkpt>
      <trkpt lat="44.98248" lon="5.845">
        <ele>1913.1</ele>
      </trkpt>
      <trkpt lat="44.98231" lon="5.84486">
        <ele>1913.7</ele>
      </trkpt>
      <trkpt lat="44.98227" lon="5.84485">
        <ele>1913.6</ele>
      </trkpt>
      <trkpt lat="44.9822" lon="5.8449">
        <ele>1914.1</ele>
      </trkpt>
      <trkpt lat="44.98214" lon="5.84488">
        <ele>1915.3</ele>
      </trkpt>
      <trkpt lat="44.98206" lon="5.84481">
        <ele>1916</ele>
      </trkpt>
      <trkpt lat="44.98209" lon="5.84493">
        <ele>1917</ele>
      </trkpt>
      <trkpt lat="44.98213" lon="5.84504">
        <ele>1917</ele>
      </trkpt>
      <trkpt lat="44.98215" lon="5.84527">
        <ele>1918.3</ele>
      </trkpt>
      <trkpt lat="44.98222" lon="5.84553">
        <ele>1917</ele>
      </trkpt>
      <trkpt lat="44.98221" lon="5.84564">
        <ele>1918.1</ele>
      </trkpt>
      <trkpt lat="44.98228" lon="5.84572">
        <ele>1917.2</ele>
      </trkpt>
      <trkpt lat="44.98231" lon="5.84593">
        <ele>1918</ele>
      </trkpt>
      <trkpt lat="44.98229" lon="5.84602">
        <ele>1918.8</ele>
      </trkpt>
      <trkpt lat="44.98229" lon="5.8461">
        <ele>1919.2</ele>
      </trkpt>
      <trkpt lat="44.98238" lon="5.84637">
        <ele>1926.8</ele>
      </trkpt>
      <trkpt lat="44.98242" lon="5.84644">
        <ele>1928.1</ele>
      </trkpt>
      <trkpt lat="44.98268" lon="5.84649">
        <ele>1930.9</ele>
      </trkpt>
      <trkpt lat="44.98274" lon="5.84648">
        <ele>1931.6</ele>
      </trkpt>
      <trkpt lat="44.98282" lon="5.84651">
        <ele>1934.2</ele>
      </trkpt>
      <trkpt lat="44.98288" lon="5.8465">
        <ele>1935</ele>
      </trkpt>
      <trkpt lat="44.9829" lon="5.84693">
        <ele>1948.1</ele>
      </trkpt>
      <trkpt lat="44.98301" lon="5.84686">
        <ele>1946.1</ele>
      </trkpt>
      <trkpt lat="44.98319" lon="5.84688">
        <ele>1948.5</ele>
      </trkpt>
      <trkpt lat="44.98324" lon="5.84692">
        <ele>1950.1</ele>
      </trkpt>
      <trkpt lat="44.98333" lon="5.84703">
        <ele>1953.8</ele>
      </trkpt>
      <trkpt lat="44.98344" lon="5.84718">
        <ele>1959.8</ele>
      </trkpt>
      <trkpt lat="44.98341" lon="5.84738">
        <ele>1962.6</ele>
      </trkpt>
      <trkpt lat="44.98343" lon="5.84759">
        <ele>1965.1</ele>
      </trkpt>
      <trkpt lat="44.98343" lon="5.8477">
        <ele>1965.6</ele>
      </trkpt>
      <trkpt lat="44.98341" lon="5.84776">
        <ele>1965.9</ele>
      </trkpt>
      <trkpt lat="44.98326" lon="5.84795">
        <ele>1966.4</ele>
      </trkpt>
      <trkpt lat="44.98313" lon="5.84806">
        <ele>1967.6</ele>
      </trkpt>
      <trkpt lat="44.9828" lon="5.84816">
        <ele>1974</ele>
      </trkpt>
      <trkpt lat="44.98263" lon="5.8483">
        <ele>1977.3</ele>
      </trkpt>
      <trkpt lat="44.9824" lon="5.84842">
        <ele>1983.9</ele>
      </trkpt>
      <trkpt lat="44.98226" lon="5.84843">
        <ele>1989.2</ele>
      </trkpt>
      <trkpt lat="44.98212" lon="5.84839">
        <ele>1993.3</ele>
      </trkpt>
      <trkpt lat="44.98202" lon="5.84839">
        <ele>1995.4</ele>
      </trkpt>
      <trkpt lat="44.98192" lon="5.84829">
        <ele>1997.5</ele>
      </trkpt>
      <trkpt lat="44.98179" lon="5.84833">
        <ele>1998.7</ele>
      </trkpt>
      <trkpt lat="44.98148" lon="5.84832">
        <ele>2002.8</ele>
      </trkpt>
      <trkpt lat="44.9808" lon="5.84838">
        <ele>2009.4</ele>
      </trkpt>
      <trkpt lat="44.98076" lon="5.84834">
        <ele>2009.4</ele>
      </trkpt>
      <trkpt lat="44.98069" lon="5.8483">
        <ele>2011.1</ele>
      </trkpt>
      <trkpt lat="44.98061" lon="5.84835">
        <ele>2012.1</ele>
      </trkpt>
      <trkpt lat="44.98048" lon="5.84826">
        <ele>2015.3</ele>
      </trkpt>
      <trkpt lat="44.98037" lon="5.8483">
        <ele>2016.7</ele>
      </trkpt>
      <trkpt lat="44.98031" lon="5.84827">
        <ele>2018.1</ele>
      </trkpt>
      <trkpt lat="44.98026" lon="5.84829">
        <ele>2018.9</ele>
      </trkpt>
      <trkpt lat="44.98022" lon="5.84829">
        <ele>2019.8</ele>
      </trkpt>
      <trkpt lat="44.98018" lon="5.84825">
        <ele>2020.9</ele>
      </trkpt>
      <trkpt lat="44.98009" lon="5.84806">
        <ele>2023</ele>
      </trkpt>
      <trkpt lat="44.97991" lon="5.84799">
        <ele>2026.2</ele>
      </trkpt>
      <trkpt lat="44.97967" lon="5.84794">
        <ele>2030.7</ele>
      </trkpt>
      <trkpt lat="44.97957" lon="5.84789">
        <ele>2033.9</ele>
      </trkpt>
      <trkpt lat="44.97945" lon="5.84792">
        <ele>2035.8</ele>
      </trkpt>
      <trkpt lat="44.97938" lon="5.84777">
        <ele>2041.6</ele>
      </trkpt>
      <trkpt lat="44.97922" lon="5.84776">
        <ele>2045.4</ele>
      </trkpt>
      <trkpt lat="44.97918" lon="5.8478">
        <ele>2046.1</ele>
      </trkpt>
      <trkpt lat="44.97907" lon="5.84779">
        <ele>2049.2</ele>
      </trkpt>
      <trkpt lat="44.97901" lon="5.84781">
        <ele>2050.3</ele>
      </trkpt>
      <trkpt lat="44.97893" lon="5.84778">
        <ele>2052.9</ele>
      </trkpt>
      <trkpt lat="44.9787" lon="5.8479">
        <ele>2057.2</ele>
      </trkpt>
      <trkpt lat="44.97849" lon="5.84789">
        <ele>2063.3</ele>
      </trkpt>
      <trkpt lat="44.97838" lon="5.84793">
        <ele>2066.5</ele>
      </trkpt>
      <trkpt lat="44.97833" lon="5.84799">
        <ele>2067.7</ele>
      </trkpt>
      <trkpt lat="44.97812" lon="5.84808">
        <ele>2077.2</ele>
      </trkpt>
      <trkpt lat="44.97806" lon="5.84814">
        <ele>2078.7</ele>
      </trkpt>
      <trkpt lat="44.97792" lon="5.84806">
        <ele>2088.2</ele>
      </trkpt>
      <trkpt lat="44.97776" lon="5.84792">
        <ele>2100.6</ele>
      </trkpt>
      <trkpt lat="44.97759" lon="5.84766">
        <ele>2112.4</ele>
      </trkpt>
      <trkpt lat="44.97749" lon="5.84754">
        <ele>2115.7</ele>
      </trkpt>
      <trkpt lat="44.97737" lon="5.84758">
        <ele>2120.5</ele>
      </trkpt>
      <trkpt lat="44.97705" lon="5.84745">
        <ele>2130.2</ele>
      </trkpt>
      <trkpt lat="44.97688" lon="5.84743">
        <ele>2135.6</ele>
      </trkpt>
      <trkpt lat="44.97655" lon="5.84729">
        <ele>2143.6</ele>
      </trkpt>
      <trkpt lat="44.97633" lon="5.84725">
        <ele>2148.8</ele>
      </trkpt>
      <trkpt lat="44.97614" lon="5.84726">
        <ele>2153.2</ele>
      </trkpt>
      <trkpt lat="44.9756" lon="5.84714">
        <ele>2160.1</ele>
      </trkpt>
      <trkpt lat="44.97548" lon="5.84708">
        <ele>2160.6</ele>
        <extensions>
          <visugpx:TrkExtension xmlns:visugpx="https://www.visugpx.com/editgpx/">
            <visugpx:node>3</visugpx:node>
            </visugpx:TrkExtension>
        </extensions>
      </trkpt>
      <trkpt lat="44.97516" lon="5.847">
        <ele>2163.7</ele>
      </trkpt>
      <trkpt lat="44.97496" lon="5.84697">
        <ele>2166.4</ele>
      </trkpt>
      <trkpt lat="44.97481" lon="5.84698">
        <ele>2169.4</ele>
      </trkpt>
      <trkpt lat="44.97427" lon="5.84682">
        <ele>2175.3</ele>
      </trkpt>
      <trkpt lat="44.97417" lon="5.84684">
        <ele>2177.7</ele>
      </trkpt>
      <trkpt lat="44.97405" lon="5.84681">
        <ele>2179.8</ele>
      </trkpt>
      <trkpt lat="44.97384" lon="5.84681">
        <ele>2184.8</ele>
      </trkpt>
      <trkpt lat="44.97375" lon="5.84677">
        <ele>2185.9</ele>
      </trkpt>
      <trkpt lat="44.97361" lon="5.84677">
        <ele>2189.3</ele>
      </trkpt>
      <trkpt lat="44.97298" lon="5.8468">
        <ele>2204.7</ele>
      </trkpt>
      <trkpt lat="44.97268" lon="5.84693">
        <ele>2214.2</ele>
      </trkpt>
      <trkpt lat="44.97238" lon="5.84716">
        <ele>2222.7</ele>
      </trkpt>
      <trkpt lat="44.97225" lon="5.84726">
        <ele>2223.6</ele>
      </trkpt>
      <trkpt lat="44.9722" lon="5.84718">
        <ele>2224.4</ele>
      </trkpt>
      <trkpt lat="44.97216" lon="5.84715">
        <ele>2225</ele>
      </trkpt>
      <trkpt lat="44.97198" lon="5.8471">
        <ele>2227.3</ele>
      </trkpt>
      <trkpt lat="44.97184" lon="5.84709">
        <ele>2228.4</ele>
      </trkpt>
      <trkpt lat="44.97177" lon="5.84708">
        <ele>2229</ele>
      </trkpt>
      <trkpt lat="44.97171" lon="5.84706">
        <ele>2229.8</ele>
      </trkpt>
      <trkpt lat="44.97155" lon="5.84703">
        <ele>2229.8</ele>
      </trkpt>
      <trkpt lat="44.97145" lon="5.84699">
        <ele>2229.8</ele>
      </trkpt>
      <trkpt lat="44.97137" lon="5.84691">
        <ele>2230.3</ele>
      </trkpt>
      <trkpt lat="44.97132" lon="5.84688">
        <ele>2230.2</ele>
      </trkpt>
      <trkpt lat="44.97107" lon="5.84679">
        <ele>2228</ele>
      </trkpt>
      <trkpt lat="44.97082" lon="5.84675">
        <ele>2223.9</ele>
      </trkpt>
      <trkpt lat="44.97072" lon="5.8467">
        <ele>2222.8</ele>
      </trkpt>
      <trkpt lat="44.97061" lon="5.84662">
        <ele>2222.2</ele>
      </trkpt>
      <trkpt lat="44.97047" lon="5.84657">
        <ele>2219.6</ele>
      </trkpt>
      <trkpt lat="44.97025" lon="5.84644">
        <ele>2216.2</ele>
      </trkpt>
      <trkpt lat="44.96992" lon="5.84632">
        <ele>2210.7</ele>
      </trkpt>
      <trkpt lat="44.96982" lon="5.84628">
        <ele>2209.2</ele>
      </trkpt>
      <trkpt lat="44.96977" lon="5.84624">
        <ele>2209</ele>
      </trkpt>
      <trkpt lat="44.96965" lon="5.8462">
        <ele>2207.8</ele>
      </trkpt>
      <trkpt lat="44.96959" lon="5.84621">
        <ele>2206.8</ele>
      </trkpt>
      <trkpt lat="44.96949" lon="5.84616">
        <ele>2206.6</ele>
      </trkpt>
      <trkpt lat="44.96947" lon="5.84617">
        <ele>2206.1</ele>
      </trkpt>
      <trkpt lat="44.9691" lon="5.84606">
        <ele>2204.6</ele>
      </trkpt>
      <trkpt lat="44.96889" lon="5.84588">
        <ele>2203.2</ele>
      </trkpt>
      <trkpt lat="44.96887" lon="5.84588">
        <ele>2202.6</ele>
      </trkpt>
      <trkpt lat="44.9687" lon="5.84571">
        <ele>2198.5</ele>
      </trkpt>
      <trkpt lat="44.96863" lon="5.84556">
        <ele>2196.7</ele>
      </trkpt>
      <trkpt lat="44.96853" lon="5.84546">
        <ele>2194.1</ele>
      </trkpt>
      <trkpt lat="44.96831" lon="5.84528">
        <ele>2189.4</ele>
      </trkpt>
      <trkpt lat="44.96824" lon="5.84528">
        <ele>2187.6</ele>
      </trkpt>
      <trkpt lat="44.96819" lon="5.84525">
        <ele>2186.3</ele>
      </trkpt>
      <trkpt lat="44.9681" lon="5.84526">
        <ele>2184.1</ele>
      </trkpt>
      <trkpt lat="44.96783" lon="5.84516">
        <ele>2176.1</ele>
      </trkpt>
      <trkpt lat="44.96768" lon="5.8449">
        <ele>2171.3</ele>
      </trkpt>
      <trkpt lat="44.96758" lon="5.84481">
        <ele>2168.9</ele>
      </trkpt>
      <trkpt lat="44.96753" lon="5.84467">
        <ele>2166.8</ele>
      </trkpt>
      <trkpt lat="44.96753" lon="5.84459">
        <ele>2165.8</ele>
      </trkpt>
      <trkpt lat="44.96756" lon="5.8445">
        <ele>2164.9</ele>
      </trkpt>
      <trkpt lat="44.96766" lon="5.84443">
        <ele>2164.1</ele>
      </trkpt>
      <trkpt lat="44.96775" lon="5.84437">
        <ele>2162.3</ele>
      </trkpt>
      <trkpt lat="44.96781" lon="5.84435">
        <ele>2161.9</ele>
      </trkpt>
      <trkpt lat="44.96791" lon="5.84436">
        <ele>2163.1</ele>
      </trkpt>
      <trkpt lat="44.96853" lon="5.84415">
        <ele>2161.1</ele>
      </trkpt>
      <trkpt lat="44.9686" lon="5.84411">
        <ele>2160.4</ele>
      </trkpt>
      <trkpt lat="44.96876" lon="5.84407">
        <ele>2159.9</ele>
      </trkpt>
      <trkpt lat="44.96891" lon="5.84406">
        <ele>2160.6</ele>
      </trkpt>
      <trkpt lat="44.96919" lon="5.84392">
        <ele>2158.5</ele>
      </trkpt>
      <trkpt lat="44.96927" lon="5.84383">
        <ele>2156.7</ele>
      </trkpt>
      <trkpt lat="44.96931" lon="5.84381">
        <ele>2156.7</ele>
      </trkpt>
      <trkpt lat="44.96941" lon="5.84372">
        <ele>2155.3</ele>
      </trkpt>
      <trkpt lat="44.96945" lon="5.84365">
        <ele>2153.5</ele>
      </trkpt>
      <trkpt lat="44.96955" lon="5.84357">
        <ele>2151.6</ele>
      </trkpt>
      <trkpt lat="44.96973" lon="5.84334">
        <ele>2144.3</ele>
      </trkpt>
      <trkpt lat="44.96977" lon="5.84331">
        <ele>2143.5</ele>
      </trkpt>
      <trkpt lat="44.96991" lon="5.84308">
        <ele>2136.2</ele>
      </trkpt>
      <trkpt lat="44.96993" lon="5.84303">
        <ele>2134.5</ele>
      </trkpt>
      <trkpt lat="44.96996" lon="5.84298">
        <ele>2132.9</ele>
      </trkpt>
      <trkpt lat="44.97006" lon="5.84288">
        <ele>2129.5</ele>
      </trkpt>
      <trkpt lat="44.97013" lon="5.84279">
        <ele>2126</ele>
      </trkpt>
      <trkpt lat="44.97028" lon="5.84267">
        <ele>2121.1</ele>
      </trkpt>
      <trkpt lat="44.97035" lon="5.84253">
        <ele>2115.6</ele>
      </trkpt>
      <trkpt lat="44.97039" lon="5.84251">
        <ele>2114.6</ele>
      </trkpt>
      <trkpt lat="44.9704" lon="5.84248">
        <ele>2113.4</ele>
      </trkpt>
      <trkpt lat="44.97034" lon="5.84235">
        <ele>2108.7</ele>
      </trkpt>
      <trkpt lat="44.97039" lon="5.84231">
        <ele>2106.9</ele>
      </trkpt>
      <trkpt lat="44.97039" lon="5.84224">
        <ele>2104.3</ele>
      </trkpt>
      <trkpt lat="44.97037" lon="5.84221">
        <ele>2103.2</ele>
        <extensions>
          <visugpx:TrkExtension xmlns:visugpx="https://www.visugpx.com/editgpx/">
            <visugpx:node>4</visugpx:node>
            </visugpx:TrkExtension>
        </extensions>
      </trkpt>
      <trkpt lat="44.97035" lon="5.84219">
        <ele>2102.4</ele>
      </trkpt>
      <trkpt lat="44.97039" lon="5.84215">
        <ele>2100.8</ele>
      </trkpt>
      <trkpt lat="44.97031" lon="5.84205">
        <ele>2096.7</ele>
      </trkpt>
      <trkpt lat="44.97036" lon="5.84195">
        <ele>2092.8</ele>
      </trkpt>
      <trkpt lat="44.97045" lon="5.84184">
        <ele>2089.6</ele>
      </trkpt>
      <trkpt lat="44.97044" lon="5.8418">
        <ele>2088.1</ele>
      </trkpt>
      <trkpt lat="44.97047" lon="5.84177">
        <ele>2087.3</ele>
      </trkpt>
      <trkpt lat="44.97043" lon="5.84167">
        <ele>2083.3</ele>
      </trkpt>
      <trkpt lat="44.9705" lon="5.84159">
        <ele>2081.2</ele>
      </trkpt>
      <trkpt lat="44.97048" lon="5.84155">
        <ele>2079.1</ele>
      </trkpt>
      <trkpt lat="44.97048" lon="5.84152">
        <ele>2077.9</ele>
      </trkpt>
      <trkpt lat="44.97051" lon="5.84151">
        <ele>2078.2</ele>
      </trkpt>
      <trkpt lat="44.9705" lon="5.84149">
        <ele>2077.2</ele>
      </trkpt>
      <trkpt lat="44.97048" lon="5.84146">
        <ele>2075.5</ele>
      </trkpt>
      <trkpt lat="44.97048" lon="5.84133">
        <ele>2070.3</ele>
      </trkpt>
      <trkpt lat="44.97043" lon="5.84122">
        <ele>2064</ele>
      </trkpt>
      <trkpt lat="44.97044" lon="5.84106">
        <ele>2058.1</ele>
      </trkpt>
      <trkpt lat="44.97042" lon="5.841">
        <ele>2054.9</ele>
      </trkpt>
      <trkpt lat="44.97045" lon="5.84094">
        <ele>2054</ele>
      </trkpt>
      <trkpt lat="44.97049" lon="5.84076">
        <ele>2049.3</ele>
      </trkpt>
      <trkpt lat="44.97044" lon="5.84056">
        <ele>2039.8</ele>
      </trkpt>
      <trkpt lat="44.97046" lon="5.84049">
        <ele>2038.3</ele>
      </trkpt>
      <trkpt lat="44.97046" lon="5.84039">
        <ele>2035</ele>
      </trkpt>
      <trkpt lat="44.9705" lon="5.8403">
        <ele>2033.9</ele>
      </trkpt>
      <trkpt lat="44.97046" lon="5.84013">
        <ele>2026.2</ele>
      </trkpt>
      <trkpt lat="44.97034" lon="5.83992">
        <ele>2014.2</ele>
      </trkpt>
      <trkpt lat="44.97033" lon="5.83982">
        <ele>2010.7</ele>
      </trkpt>
      <trkpt lat="44.97039" lon="5.83964">
        <ele>2006.1</ele>
      </trkpt>
      <trkpt lat="44.97038" lon="5.83948">
        <ele>1998.9</ele>
      </trkpt>
      <trkpt lat="44.97034" lon="5.83928">
        <ele>1990.3</ele>
      </trkpt>
      <trkpt lat="44.97035" lon="5.83917">
        <ele>1986.9</ele>
      </trkpt>
      <trkpt lat="44.97032" lon="5.83904">
        <ele>1981.8</ele>
      </trkpt>
      <trkpt lat="44.97024" lon="5.83895">
        <ele>1975</ele>
      </trkpt>
      <trkpt lat="44.97022" lon="5.83883">
        <ele>1969.7</ele>
      </trkpt>
      <trkpt lat="44.97019" lon="5.83879">
        <ele>1966.3</ele>
      </trkpt>
      <trkpt lat="44.9702" lon="5.83866">
        <ele>1962.8</ele>
      </trkpt>
      <trkpt lat="44.97015" lon="5.83858">
        <ele>1957.2</ele>
      </trkpt>
      <trkpt lat="44.97014" lon="5.83851">
        <ele>1954.5</ele>
      </trkpt>
      <trkpt lat="44.97006" lon="5.83835">
        <ele>1946</ele>
      </trkpt>
      <trkpt lat="44.97008" lon="5.83831">
        <ele>1945.5</ele>
      </trkpt>
      <trkpt lat="44.97006" lon="5.83827">
        <ele>1943.1</ele>
      </trkpt>
      <trkpt lat="44.97008" lon="5.83822">
        <ele>1941.8</ele>
      </trkpt>
      <trkpt lat="44.97005" lon="5.83818">
        <ele>1939.1</ele>
      </trkpt>
      <trkpt lat="44.97006" lon="5.83806">
        <ele>1934.7</ele>
      </trkpt>
      <trkpt lat="44.97004" lon="5.83802">
        <ele>1932.8</ele>
      </trkpt>
      <trkpt lat="44.97002" lon="5.83789">
        <ele>1928</ele>
      </trkpt>
      <trkpt lat="44.96997" lon="5.83778">
        <ele>1922.3</ele>
      </trkpt>
      <trkpt lat="44.96994" lon="5.83775">
        <ele>1919.8</ele>
      </trkpt>
      <trkpt lat="44.96988" lon="5.83756">
        <ele>1911.7</ele>
      </trkpt>
      <trkpt lat="44.96987" lon="5.83749">
        <ele>1909.6</ele>
      </trkpt>
      <trkpt lat="44.96966" lon="5.83712">
        <ele>1894</ele>
      </trkpt>
      <trkpt lat="44.96965" lon="5.83703">
        <ele>1891.4</ele>
      </trkpt>
      <trkpt lat="44.96957" lon="5.83688">
        <ele>1884.6</ele>
      </trkpt>
      <trkpt lat="44.96953" lon="5.83674">
        <ele>1879.8</ele>
      </trkpt>
      <trkpt lat="44.96947" lon="5.83668">
        <ele>1877.5</ele>
      </trkpt>
      <trkpt lat="44.96944" lon="5.83661">
        <ele>1875.1</ele>
      </trkpt>
      <trkpt lat="44.96944" lon="5.83653">
        <ele>1872.8</ele>
      </trkpt>
      <trkpt lat="44.9694" lon="5.83648">
        <ele>1869.1</ele>
      </trkpt>
      <trkpt lat="44.96937" lon="5.83631">
        <ele>1862.7</ele>
      </trkpt>
      <trkpt lat="44.96931" lon="5.83624">
        <ele>1858.1</ele>
      </trkpt>
      <trkpt lat="44.96928" lon="5.83605">
        <ele>1851.6</ele>
      </trkpt>
      <trkpt lat="44.96922" lon="5.836">
        <ele>1848.8</ele>
      </trkpt>
      <trkpt lat="44.96921" lon="5.83592">
        <ele>1846.1</ele>
      </trkpt>
      <trkpt lat="44.96916" lon="5.83583">
        <ele>1842.5</ele>
      </trkpt>
      <trkpt lat="44.96911" lon="5.83562">
        <ele>1832.1</ele>
      </trkpt>
      <trkpt lat="44.969" lon="5.83548">
        <ele>1822.8</ele>
      </trkpt>
      <trkpt lat="44.969" lon="5.83539">
        <ele>1819.8</ele>
      </trkpt>
      <trkpt lat="44.96895" lon="5.83526">
        <ele>1814.5</ele>
      </trkpt>
      <trkpt lat="44.96886" lon="5.83514">
        <ele>1808</ele>
      </trkpt>
      <trkpt lat="44.96876" lon="5.83484">
        <ele>1794</ele>
      </trkpt>
      <trkpt lat="44.96863" lon="5.83464">
        <ele>1784.7</ele>
      </trkpt>
      <trkpt lat="44.96855" lon="5.83457">
        <ele>1778.9</ele>
      </trkpt>
      <trkpt lat="44.96844" lon="5.834">
        <ele>1757.9</ele>
      </trkpt>
      <trkpt lat="44.96842" lon="5.83388">
        <ele>1753.4</ele>
      </trkpt>
      <trkpt lat="44.96844" lon="5.8338">
        <ele>1750.8</ele>
      </trkpt>
      <trkpt lat="44.96834" lon="5.83375">
        <ele>1746.2</ele>
      </trkpt>
      <trkpt lat="44.96828" lon="5.83378">
        <ele>1743.9</ele>
      </trkpt>
      <trkpt lat="44.96824" lon="5.83365">
        <ele>1737.7</ele>
      </trkpt>
      <trkpt lat="44.96815" lon="5.8336">
        <ele>1732.1</ele>
      </trkpt>
      <trkpt lat="44.96812" lon="5.83345">
        <ele>1726.7</ele>
      </trkpt>
      <trkpt lat="44.96808" lon="5.83339">
        <ele>1723.9</ele>
      </trkpt>
      <trkpt lat="44.96803" lon="5.83338">
        <ele>1721.7</ele>
      </trkpt>
      <trkpt lat="44.96799" lon="5.83333">
        <ele>1718.8</ele>
      </trkpt>
      <trkpt lat="44.96797" lon="5.83327">
        <ele>1716.3</ele>
      </trkpt>
      <trkpt lat="44.96776" lon="5.83308">
        <ele>1704.6</ele>
      </trkpt>
      <trkpt lat="44.96766" lon="5.83294">
        <ele>1698.5</ele>
      </trkpt>
      <trkpt lat="44.96763" lon="5.83285">
        <ele>1696.3</ele>
      </trkpt>
      <trkpt lat="44.96755" lon="5.83282">
        <ele>1693.7</ele>
      </trkpt>
      <trkpt lat="44.96755" lon="5.83276">
        <ele>1692.8</ele>
      </trkpt>
      <trkpt lat="44.96741" lon="5.83243">
        <ele>1679.2</ele>
      </trkpt>
      <trkpt lat="44.9675" lon="5.83225">
        <ele>1676</ele>
      </trkpt>
      <trkpt lat="44.96769" lon="5.83217">
        <ele>1675</ele>
      </trkpt>
      <trkpt lat="44.96838" lon="5.83203">
        <ele>1670.9</ele>
      </trkpt>
      <trkpt lat="44.96884" lon="5.83196">
        <ele>1666.7</ele>
      </trkpt>
      <trkpt lat="44.96908" lon="5.83197">
        <ele>1664.4</ele>
      </trkpt>
      <trkpt lat="44.9699" lon="5.83209">
        <ele>1657.7</ele>
      </trkpt>
      <trkpt lat="44.97011" lon="5.83209">
        <ele>1655.9</ele>
      </trkpt>
      <trkpt lat="44.97025" lon="5.83205">
        <ele>1653.9</ele>
      </trkpt>
      <trkpt lat="44.97052" lon="5.83183">
        <ele>1651.5</ele>
      </trkpt>
      <trkpt lat="44.97056" lon="5.83178">
        <ele>1650.8</ele>
      </trkpt>
      <trkpt lat="44.97063" lon="5.83167">
        <ele>1650.1</ele>
      </trkpt>
      <trkpt lat="44.97073" lon="5.83138">
        <ele>1646.6</ele>
      </trkpt>
      <trkpt lat="44.97087" lon="5.83109">
        <ele>1642.6</ele>
      </trkpt>
      <trkpt lat="44.97101" lon="5.8309">
        <ele>1641</ele>
      </trkpt>
      <trkpt lat="44.97118" lon="5.83073">
        <ele>1639.6</ele>
      </trkpt>
      <trkpt lat="44.97133" lon="5.83061">
        <ele>1638</ele>
      </trkpt>
      <trkpt lat="44.97167" lon="5.83043">
        <ele>1635.6</ele>
      </trkpt>
      <trkpt lat="44.97224" lon="5.83023">
        <ele>1631.3</ele>
      </trkpt>
      <trkpt lat="44.9726" lon="5.83012">
        <ele>1623.2</ele>
      </trkpt>
      <trkpt lat="44.973" lon="5.83008">
        <ele>1618.5</ele>
      </trkpt>
      <trkpt lat="44.9733" lon="5.83012">
        <ele>1615.5</ele>
      </trkpt>
      <trkpt lat="44.97344" lon="5.83016">
        <ele>1613.3</ele>
      </trkpt>
      <trkpt lat="44.97368" lon="5.83035">
        <ele>1611</ele>
      </trkpt>
      <trkpt lat="44.9739" lon="5.83067">
        <ele>1609.3</ele>
      </trkpt>
      <trkpt lat="44.97414" lon="5.83117">
        <ele>1608.2</ele>
      </trkpt>
      <trkpt lat="44.97419" lon="5.8314">
        <ele>1610.8</ele>
      </trkpt>
      <trkpt lat="44.97435" lon="5.83193">
        <ele>1613.7</ele>
      </trkpt>
      <trkpt lat="44.9743" lon="5.83145">
        <ele>1604.9</ele>
      </trkpt>
      <trkpt lat="44.97427" lon="5.83121">
        <ele>1600.8</ele>
      </trkpt>
      <trkpt lat="44.97423" lon="5.83107">
        <ele>1599.9</ele>
      </trkpt>
      <trkpt lat="44.97422" lon="5.83092">
        <ele>1596.9</ele>
      </trkpt>
      <trkpt lat="44.9742" lon="5.83068">
        <ele>1592.6</ele>
      </trkpt>
      <trkpt lat="44.97417" lon="5.82993">
        <ele>1576.8</ele>
      </trkpt>
      <trkpt lat="44.97415" lon="5.82977">
        <ele>1573.2</ele>
      </trkpt>
      <trkpt lat="44.97418" lon="5.82975">
        <ele>1571.1</ele>
      </trkpt>
      <trkpt lat="44.97419" lon="5.82966">
        <ele>1568.1</ele>
      </trkpt>
      <trkpt lat="44.97419" lon="5.82953">
        <ele>1564.3</ele>
      </trkpt>
      <trkpt lat="44.97417" lon="5.82941">
        <ele>1561.9</ele>
      </trkpt>
      <trkpt lat="44.97411" lon="5.82927">
        <ele>1560.1</ele>
      </trkpt>
      <trkpt lat="44.97398" lon="5.82919">
        <ele>1562.4</ele>
      </trkpt>
      <trkpt lat="44.97392" lon="5.82911">
        <ele>1561.5</ele>
      </trkpt>
      <trkpt lat="44.97367" lon="5.82893">
        <ele>1559.6</ele>
      </trkpt>
      <trkpt lat="44.97324" lon="5.82855">
        <ele>1548</ele>
      </trkpt>
      <trkpt lat="44.97316" lon="5.82846">
        <ele>1544.7</ele>
      </trkpt>
      <trkpt lat="44.97291" lon="5.82805">
        <ele>1530.4</ele>
      </trkpt>
      <trkpt lat="44.97277" lon="5.82794">
        <ele>1527.9</ele>
      </trkpt>
      <trkpt lat="44.97251" lon="5.82779">
        <ele>1524.3</ele>
      </trkpt>
      <trkpt lat="44.9724" lon="5.82763">
        <ele>1519.7</ele>
      </trkpt>
      <trkpt lat="44.97232" lon="5.8274">
        <ele>1513.7</ele>
      </trkpt>
      <trkpt lat="44.9723" lon="5.82728">
        <ele>1511</ele>
      </trkpt>
      <trkpt lat="44.9723" lon="5.8271">
        <ele>1507.5</ele>
      </trkpt>
      <trkpt lat="44.9723" lon="5.82691">
        <ele>1504.2</ele>
      </trkpt>
      <trkpt lat="44.97236" lon="5.82631">
        <ele>1498.2</ele>
      </trkpt>
      <trkpt lat="44.9724" lon="5.82607">
        <ele>1497.6</ele>
      </trkpt>
      <trkpt lat="44.97242" lon="5.82597">
        <ele>1497.7</ele>
      </trkpt>
      <trkpt lat="44.97244" lon="5.82584">
        <ele>1497.8</ele>
      </trkpt>
      <trkpt lat="44.97244" lon="5.8257">
        <ele>1497.9</ele>
      </trkpt>
      <trkpt lat="44.97244" lon="5.8256">
        <ele>1498</ele>
      </trkpt>
      <trkpt lat="44.97245" lon="5.82555">
        <ele>1498</ele>
      </trkpt>
      <trkpt lat="44.97247" lon="5.82551">
        <ele>1498</ele>
      </trkpt>
      <trkpt lat="44.97256" lon="5.82538">
        <ele>1497.6</ele>
      </trkpt>
      <trkpt lat="44.9726" lon="5.8253">
        <ele>1497.3</ele>
      </trkpt>
      <trkpt lat="44.97269" lon="5.82533">
        <ele>1496.6</ele>
      </trkpt>
      <trkpt lat="44.97277" lon="5.82532">
        <ele>1496.1</ele>
      </trkpt>
      <trkpt lat="44.97282" lon="5.82525">
        <ele>1495.3</ele>
      </trkpt>
      <trkpt lat="44.97289" lon="5.82517">
        <ele>1494.2</ele>
      </trkpt>
      <trkpt lat="44.9729" lon="5.82504">
        <ele>1494.3</ele>
      </trkpt>
      <trkpt lat="44.97286" lon="5.82485">
        <ele>1495.1</ele>
      </trkpt>
      <trkpt lat="44.97275" lon="5.82462">
        <ele>1496.7</ele>
      </trkpt>
      <trkpt lat="44.97256" lon="5.8244">
        <ele>1499.5</ele>
        <extensions>
          <visugpx:TrkExtension xmlns:visugpx="https://www.visugpx.com/editgpx/">
            <visugpx:node>5</visugpx:node>
            </visugpx:TrkExtension>
        </extensions>
      </trkpt>
    </trkseg>
  </trk>
</gpx>